<?xml version="1.0" encoding="UTF-8" standalone="no" ?>
<gpx xmlns="http://www.topografix.com/GPX/1/1" xmlns:xsi="http://www.w3.org/2001/XMLSchema-instance" xsi:schemaLocation="http://www.topografix.com/GPX/1/1 http://www.topografix.com/GPX/1/1/gpx.xsd" version="1.1" creator="VisuGPX - https://www.visugpx.com">
  <metadata>
    <name>[07/02/2016] Sur les traces des Petits Maillons</name>
    <desc><![CDATA[Rando club SpeedEure VTT du 7 février 2016.
30 km de chemins ludiques et techniques.]]></desc>
  </metadata>
  <trk>
    <name><![CDATA[[07/02/2016] Sur les traces des Petits Maillons_1]]></name>
    <trkseg>
      <trkpt lat="49.02232" lon="1.14084">
        <ele>61.058327</ele>
        <time>2016-02-07T07:48:06Z</time>
      </trkpt>
      <trkpt lat="49.02232" lon="1.14084">
        <ele>61.058327</ele>
        <time>2016-02-07T07:48:07Z</time>
      </trkpt>
      <trkpt lat="49.02222" lon="1.14087">
        <ele>61</ele>
        <time>2016-02-07T07:48:19Z</time>
      </trkpt>
      <trkpt lat="49.02214" lon="1.14095">
        <ele>61</ele>
        <time>2016-02-07T07:48:23Z</time>
      </trkpt>
      <trkpt lat="49.02203" lon="1.141">
        <ele>61</ele>
        <time>2016-02-07T07:48:27Z</time>
      </trkpt>
      <trkpt lat="49.02191" lon="1.14102">
        <ele>61</ele>
        <time>2016-02-07T07:48:31Z</time>
      </trkpt>
      <trkpt lat="49.02179" lon="1.14106">
        <ele>61</ele>
        <time>2016-02-07T07:48:35Z</time>
      </trkpt>
      <trkpt lat="49.0217" lon="1.1411">
        <ele>61</ele>
        <time>2016-02-07T07:48:38Z</time>
      </trkpt>
      <trkpt lat="49.02161" lon="1.14113">
        <ele>61</ele>
        <time>2016-02-07T07:48:41Z</time>
      </trkpt>
      <trkpt lat="49.02151" lon="1.14117">
        <ele>61</ele>
        <time>2016-02-07T07:48:44Z</time>
      </trkpt>
      <trkpt lat="49.02141" lon="1.1412">
        <ele>61</ele>
        <time>2016-02-07T07:48:47Z</time>
      </trkpt>
      <trkpt lat="49.0213" lon="1.14124">
        <ele>61</ele>
        <time>2016-02-07T07:48:50Z</time>
      </trkpt>
      <trkpt lat="49.02119" lon="1.14128">
        <ele>61</ele>
        <time>2016-02-07T07:48:53Z</time>
      </trkpt>
      <trkpt lat="49.02109" lon="1.14132">
        <ele>61</ele>
        <time>2016-02-07T07:48:56Z</time>
      </trkpt>
      <trkpt lat="49.02098" lon="1.14136">
        <ele>61</ele>
        <time>2016-02-07T07:48:59Z</time>
      </trkpt>
      <trkpt lat="49.02087" lon="1.14141">
        <ele>61</ele>
        <time>2016-02-07T07:49:02Z</time>
      </trkpt>
      <trkpt lat="49.02076" lon="1.14145">
        <ele>61</ele>
        <time>2016-02-07T07:49:05Z</time>
      </trkpt>
      <trkpt lat="49.02065" lon="1.14149">
        <ele>61</ele>
        <time>2016-02-07T07:49:08Z</time>
      </trkpt>
      <trkpt lat="49.02053" lon="1.14154">
        <ele>61</ele>
        <time>2016-02-07T07:49:11Z</time>
      </trkpt>
      <trkpt lat="49.02043" lon="1.14158">
        <ele>61</ele>
        <time>2016-02-07T07:49:14Z</time>
      </trkpt>
      <trkpt lat="49.02032" lon="1.14162">
        <ele>61</ele>
        <time>2016-02-07T07:49:17Z</time>
      </trkpt>
      <trkpt lat="49.02021" lon="1.14166">
        <ele>61</ele>
        <time>2016-02-07T07:49:20Z</time>
      </trkpt>
      <trkpt lat="49.0201" lon="1.1417">
        <ele>61.1</ele>
        <time>2016-02-07T07:49:23Z</time>
      </trkpt>
      <trkpt lat="49.01999" lon="1.14174">
        <ele>61.1</ele>
        <time>2016-02-07T07:49:26Z</time>
      </trkpt>
      <trkpt lat="49.01988" lon="1.14179">
        <ele>61.2</ele>
        <time>2016-02-07T07:49:29Z</time>
      </trkpt>
      <trkpt lat="49.01978" lon="1.14183">
        <ele>61.4</ele>
        <time>2016-02-07T07:49:32Z</time>
      </trkpt>
      <trkpt lat="49.01968" lon="1.14187">
        <ele>61.5</ele>
        <time>2016-02-07T07:49:35Z</time>
      </trkpt>
      <trkpt lat="49.01958" lon="1.14191">
        <ele>61.6</ele>
        <time>2016-02-07T07:49:38Z</time>
      </trkpt>
      <trkpt lat="49.01949" lon="1.14195">
        <ele>61.7</ele>
        <time>2016-02-07T07:49:41Z</time>
      </trkpt>
      <trkpt lat="49.0194" lon="1.14199">
        <ele>61.8</ele>
        <time>2016-02-07T07:49:44Z</time>
      </trkpt>
      <trkpt lat="49.0193" lon="1.14203">
        <ele>61.9</ele>
        <time>2016-02-07T07:49:47Z</time>
      </trkpt>
      <trkpt lat="49.01921" lon="1.14208">
        <ele>62</ele>
        <time>2016-02-07T07:49:50Z</time>
      </trkpt>
      <trkpt lat="49.01911" lon="1.14214">
        <ele>62.2</ele>
        <time>2016-02-07T07:49:53Z</time>
      </trkpt>
      <trkpt lat="49.01903" lon="1.14219">
        <ele>62.3</ele>
        <time>2016-02-07T07:49:56Z</time>
      </trkpt>
      <trkpt lat="49.01893" lon="1.14226">
        <ele>62.6</ele>
        <time>2016-02-07T07:50:00Z</time>
      </trkpt>
      <trkpt lat="49.01884" lon="1.14233">
        <ele>62.9</ele>
        <time>2016-02-07T07:50:05Z</time>
      </trkpt>
      <trkpt lat="49.01875" lon="1.1424">
        <ele>63.6</ele>
        <time>2016-02-07T07:50:26Z</time>
      </trkpt>
      <trkpt lat="49.01866" lon="1.14245">
        <ele>63.7</ele>
        <time>2016-02-07T07:50:30Z</time>
      </trkpt>
      <trkpt lat="49.01855" lon="1.14251">
        <ele>63.9</ele>
        <time>2016-02-07T07:50:34Z</time>
      </trkpt>
      <trkpt lat="49.01846" lon="1.14257">
        <ele>64</ele>
        <time>2016-02-07T07:50:37Z</time>
      </trkpt>
      <trkpt lat="49.01837" lon="1.14263">
        <ele>64.1</ele>
        <time>2016-02-07T07:50:40Z</time>
      </trkpt>
      <trkpt lat="49.01827" lon="1.14268">
        <ele>64.3</ele>
        <time>2016-02-07T07:50:43Z</time>
      </trkpt>
      <trkpt lat="49.01818" lon="1.14273">
        <ele>64.5</ele>
        <time>2016-02-07T07:50:46Z</time>
      </trkpt>
      <trkpt lat="49.01808" lon="1.14279">
        <ele>64.7</ele>
        <time>2016-02-07T07:50:49Z</time>
      </trkpt>
      <trkpt lat="49.01799" lon="1.14284">
        <ele>64.9</ele>
        <time>2016-02-07T07:50:52Z</time>
      </trkpt>
      <trkpt lat="49.0179" lon="1.1429">
        <ele>65.1</ele>
        <time>2016-02-07T07:50:55Z</time>
      </trkpt>
      <trkpt lat="49.01781" lon="1.14295">
        <ele>65.2</ele>
        <time>2016-02-07T07:50:58Z</time>
      </trkpt>
      <trkpt lat="49.01772" lon="1.14299">
        <ele>65.5</ele>
        <time>2016-02-07T07:51:02Z</time>
      </trkpt>
      <trkpt lat="49.01751" lon="1.14322">
        <ele>66</ele>
        <time>2016-02-07T07:51:12Z</time>
      </trkpt>
      <trkpt lat="49.01739" lon="1.14331">
        <ele>66.5</ele>
        <time>2016-02-07T07:51:15Z</time>
      </trkpt>
      <trkpt lat="49.01726" lon="1.1434">
        <ele>66</ele>
        <time>2016-02-07T07:51:18Z</time>
      </trkpt>
      <trkpt lat="49.01712" lon="1.14341">
        <ele>67</ele>
        <time>2016-02-07T07:51:21Z</time>
      </trkpt>
      <trkpt lat="49.01701" lon="1.14343">
        <ele>67.2</ele>
        <time>2016-02-07T07:51:24Z</time>
      </trkpt>
      <trkpt lat="49.0169" lon="1.14349">
        <ele>67.6</ele>
        <time>2016-02-07T07:51:28Z</time>
      </trkpt>
      <trkpt lat="49.01681" lon="1.14356">
        <ele>68</ele>
        <time>2016-02-07T07:51:31Z</time>
      </trkpt>
      <trkpt lat="49.01672" lon="1.14361">
        <ele>68.3</ele>
        <time>2016-02-07T07:51:34Z</time>
      </trkpt>
      <trkpt lat="49.01664" lon="1.14367">
        <ele>68.7</ele>
        <time>2016-02-07T07:51:37Z</time>
      </trkpt>
      <trkpt lat="49.01653" lon="1.14373">
        <ele>69.3</ele>
        <time>2016-02-07T07:51:41Z</time>
      </trkpt>
      <trkpt lat="49.01643" lon="1.1438">
        <ele>69.8</ele>
        <time>2016-02-07T07:51:45Z</time>
      </trkpt>
      <trkpt lat="49.01632" lon="1.14387">
        <ele>70.4</ele>
        <time>2016-02-07T07:51:49Z</time>
      </trkpt>
      <trkpt lat="49.01621" lon="1.14394">
        <ele>70.9</ele>
        <time>2016-02-07T07:51:53Z</time>
      </trkpt>
      <trkpt lat="49.01613" lon="1.14399">
        <ele>71.4</ele>
        <time>2016-02-07T07:51:56Z</time>
      </trkpt>
      <trkpt lat="49.01602" lon="1.14405">
        <ele>72</ele>
        <time>2016-02-07T07:52:00Z</time>
      </trkpt>
      <trkpt lat="49.01592" lon="1.1441">
        <ele>72.5</ele>
        <time>2016-02-07T07:52:04Z</time>
      </trkpt>
      <trkpt lat="49.01581" lon="1.14414">
        <ele>73.2</ele>
        <time>2016-02-07T07:52:08Z</time>
      </trkpt>
      <trkpt lat="49.01571" lon="1.14417">
        <ele>73.8</ele>
        <time>2016-02-07T07:52:12Z</time>
      </trkpt>
      <trkpt lat="49.01559" lon="1.14417">
        <ele>74.3</ele>
        <time>2016-02-07T07:52:16Z</time>
      </trkpt>
      <trkpt lat="49.01548" lon="1.14416">
        <ele>74.9</ele>
        <time>2016-02-07T07:52:20Z</time>
      </trkpt>
      <trkpt lat="49.01536" lon="1.14415">
        <ele>75.5</ele>
        <time>2016-02-07T07:52:24Z</time>
      </trkpt>
      <trkpt lat="49.01525" lon="1.14413">
        <ele>76</ele>
        <time>2016-02-07T07:52:28Z</time>
      </trkpt>
      <trkpt lat="49.01513" lon="1.1441">
        <ele>76.7</ele>
        <time>2016-02-07T07:52:32Z</time>
      </trkpt>
      <trkpt lat="49.01501" lon="1.14406">
        <ele>77.3</ele>
        <time>2016-02-07T07:52:36Z</time>
      </trkpt>
      <trkpt lat="49.01491" lon="1.14402">
        <ele>77.9</ele>
        <time>2016-02-07T07:52:40Z</time>
      </trkpt>
      <trkpt lat="49.0148" lon="1.14396">
        <ele>78.5</ele>
        <time>2016-02-07T07:52:44Z</time>
      </trkpt>
      <trkpt lat="49.01469" lon="1.1439">
        <ele>78.9</ele>
        <time>2016-02-07T07:52:48Z</time>
      </trkpt>
      <trkpt lat="49.0146" lon="1.14383">
        <ele>79.6</ele>
        <time>2016-02-07T07:52:52Z</time>
      </trkpt>
      <trkpt lat="49.0145" lon="1.14374">
        <ele>80.2</ele>
        <time>2016-02-07T07:52:56Z</time>
      </trkpt>
      <trkpt lat="49.01441" lon="1.14364">
        <ele>80.8</ele>
        <time>2016-02-07T07:53:00Z</time>
      </trkpt>
      <trkpt lat="49.01432" lon="1.14354">
        <ele>81.3</ele>
        <time>2016-02-07T07:53:04Z</time>
      </trkpt>
      <trkpt lat="49.01424" lon="1.14343">
        <ele>81.9</ele>
        <time>2016-02-07T07:53:08Z</time>
      </trkpt>
      <trkpt lat="49.01415" lon="1.14331">
        <ele>82.4</ele>
        <time>2016-02-07T07:53:12Z</time>
      </trkpt>
      <trkpt lat="49.01406" lon="1.1432">
        <ele>82.9</ele>
        <time>2016-02-07T07:53:16Z</time>
      </trkpt>
      <trkpt lat="49.01397" lon="1.14309">
        <ele>83.4</ele>
        <time>2016-02-07T07:53:20Z</time>
      </trkpt>
      <trkpt lat="49.01388" lon="1.14298">
        <ele>84</ele>
        <time>2016-02-07T07:53:24Z</time>
      </trkpt>
      <trkpt lat="49.01379" lon="1.14286">
        <ele>84.5</ele>
        <time>2016-02-07T07:53:28Z</time>
      </trkpt>
      <trkpt lat="49.0137" lon="1.14275">
        <ele>85.1</ele>
        <time>2016-02-07T07:53:32Z</time>
      </trkpt>
      <trkpt lat="49.01361" lon="1.14264">
        <ele>85.6</ele>
        <time>2016-02-07T07:53:36Z</time>
      </trkpt>
      <trkpt lat="49.01354" lon="1.14256">
        <ele>85.9</ele>
        <time>2016-02-07T07:53:39Z</time>
      </trkpt>
      <trkpt lat="49.01345" lon="1.14244">
        <ele>86.3</ele>
        <time>2016-02-07T07:53:43Z</time>
      </trkpt>
      <trkpt lat="49.01336" lon="1.14233">
        <ele>86.8</ele>
        <time>2016-02-07T07:53:47Z</time>
      </trkpt>
      <trkpt lat="49.01327" lon="1.14223">
        <ele>87.2</ele>
        <time>2016-02-07T07:53:51Z</time>
      </trkpt>
      <trkpt lat="49.01318" lon="1.14214">
        <ele>87.6</ele>
        <time>2016-02-07T07:53:55Z</time>
      </trkpt>
      <trkpt lat="49.01308" lon="1.14204">
        <ele>88</ele>
        <time>2016-02-07T07:53:59Z</time>
      </trkpt>
      <trkpt lat="49.01297" lon="1.14196">
        <ele>88.4</ele>
        <time>2016-02-07T07:54:03Z</time>
      </trkpt>
      <trkpt lat="49.01287" lon="1.14189">
        <ele>88.8</ele>
        <time>2016-02-07T07:54:07Z</time>
      </trkpt>
      <trkpt lat="49.01276" lon="1.14183">
        <ele>89.4</ele>
        <time>2016-02-07T07:54:11Z</time>
      </trkpt>
      <trkpt lat="49.01266" lon="1.14177">
        <ele>89.9</ele>
        <time>2016-02-07T07:54:15Z</time>
      </trkpt>
      <trkpt lat="49.01254" lon="1.14172">
        <ele>90.2</ele>
        <time>2016-02-07T07:54:19Z</time>
      </trkpt>
      <trkpt lat="49.01246" lon="1.14169">
        <ele>90.5</ele>
        <time>2016-02-07T07:54:22Z</time>
      </trkpt>
      <trkpt lat="49.01237" lon="1.14166">
        <ele>90.8</ele>
        <time>2016-02-07T07:54:25Z</time>
      </trkpt>
      <trkpt lat="49.01225" lon="1.14163">
        <ele>91.2</ele>
        <time>2016-02-07T07:54:29Z</time>
      </trkpt>
      <trkpt lat="49.01213" lon="1.14161">
        <ele>91.5</ele>
        <time>2016-02-07T07:54:33Z</time>
      </trkpt>
      <trkpt lat="49.01202" lon="1.14159">
        <ele>91.9</ele>
        <time>2016-02-07T07:54:37Z</time>
      </trkpt>
      <trkpt lat="49.0119" lon="1.14158">
        <ele>92.2</ele>
        <time>2016-02-07T07:54:41Z</time>
      </trkpt>
      <trkpt lat="49.01179" lon="1.1416">
        <ele>92.5</ele>
        <time>2016-02-07T07:54:45Z</time>
      </trkpt>
      <trkpt lat="49.01167" lon="1.14161">
        <ele>92.8</ele>
        <time>2016-02-07T07:54:49Z</time>
      </trkpt>
      <trkpt lat="49.01155" lon="1.14163">
        <ele>93.1</ele>
        <time>2016-02-07T07:54:53Z</time>
      </trkpt>
      <trkpt lat="49.01146" lon="1.14166">
        <ele>93.3</ele>
        <time>2016-02-07T07:54:56Z</time>
      </trkpt>
      <trkpt lat="49.01134" lon="1.1417">
        <ele>93.6</ele>
        <time>2016-02-07T07:55:00Z</time>
      </trkpt>
      <trkpt lat="49.01123" lon="1.14174">
        <ele>94</ele>
        <time>2016-02-07T07:55:04Z</time>
      </trkpt>
      <trkpt lat="49.01114" lon="1.14179">
        <ele>94.3</ele>
        <time>2016-02-07T07:55:07Z</time>
      </trkpt>
      <trkpt lat="49.01106" lon="1.14184">
        <ele>94.7</ele>
        <time>2016-02-07T07:55:10Z</time>
      </trkpt>
      <trkpt lat="49.01095" lon="1.14192">
        <ele>95.1</ele>
        <time>2016-02-07T07:55:14Z</time>
      </trkpt>
      <trkpt lat="49.01086" lon="1.14198">
        <ele>95.4</ele>
        <time>2016-02-07T07:55:17Z</time>
      </trkpt>
      <trkpt lat="49.01078" lon="1.14203">
        <ele>95.6</ele>
        <time>2016-02-07T07:55:20Z</time>
      </trkpt>
      <trkpt lat="49.01067" lon="1.1421">
        <ele>96.1</ele>
        <time>2016-02-07T07:55:24Z</time>
      </trkpt>
      <trkpt lat="49.01059" lon="1.14216">
        <ele>96.3</ele>
        <time>2016-02-07T07:55:27Z</time>
      </trkpt>
      <trkpt lat="49.01048" lon="1.14223">
        <ele>96.7</ele>
        <time>2016-02-07T07:55:31Z</time>
      </trkpt>
      <trkpt lat="49.0104" lon="1.14229">
        <ele>97</ele>
        <time>2016-02-07T07:55:34Z</time>
      </trkpt>
      <trkpt lat="49.01032" lon="1.14235">
        <ele>97.3</ele>
        <time>2016-02-07T07:55:37Z</time>
      </trkpt>
      <trkpt lat="49.01024" lon="1.14242">
        <ele>97.5</ele>
        <time>2016-02-07T07:55:40Z</time>
      </trkpt>
      <trkpt lat="49.01013" lon="1.14249">
        <ele>97.9</ele>
        <time>2016-02-07T07:55:44Z</time>
      </trkpt>
      <trkpt lat="49.01005" lon="1.14255">
        <ele>98.2</ele>
        <time>2016-02-07T07:55:47Z</time>
      </trkpt>
      <trkpt lat="49.00997" lon="1.14261">
        <ele>98.6</ele>
        <time>2016-02-07T07:55:50Z</time>
      </trkpt>
      <trkpt lat="49.00989" lon="1.14268">
        <ele>98.9</ele>
        <time>2016-02-07T07:55:53Z</time>
      </trkpt>
      <trkpt lat="49.00981" lon="1.14274">
        <ele>99.3</ele>
        <time>2016-02-07T07:55:56Z</time>
      </trkpt>
      <trkpt lat="49.0097" lon="1.14281">
        <ele>99.7</ele>
        <time>2016-02-07T07:56:00Z</time>
      </trkpt>
      <trkpt lat="49.00962" lon="1.14286">
        <ele>100.2</ele>
        <time>2016-02-07T07:56:03Z</time>
      </trkpt>
      <trkpt lat="49.00951" lon="1.14293">
        <ele>100.7</ele>
        <time>2016-02-07T07:56:07Z</time>
      </trkpt>
      <trkpt lat="49.0094" lon="1.14299">
        <ele>101.3</ele>
        <time>2016-02-07T07:56:11Z</time>
      </trkpt>
      <trkpt lat="49.00931" lon="1.14304">
        <ele>101.8</ele>
        <time>2016-02-07T07:56:14Z</time>
      </trkpt>
      <trkpt lat="49.00921" lon="1.14309">
        <ele>102.3</ele>
        <time>2016-02-07T07:56:18Z</time>
      </trkpt>
      <trkpt lat="49.0091" lon="1.14314">
        <ele>102.9</ele>
        <time>2016-02-07T07:56:22Z</time>
      </trkpt>
      <trkpt lat="49.009" lon="1.14318">
        <ele>103.6</ele>
        <time>2016-02-07T07:56:26Z</time>
      </trkpt>
      <trkpt lat="49.00889" lon="1.14323">
        <ele>104.2</ele>
        <time>2016-02-07T07:56:30Z</time>
      </trkpt>
      <trkpt lat="49.00879" lon="1.14327">
        <ele>104.9</ele>
        <time>2016-02-07T07:56:34Z</time>
      </trkpt>
      <trkpt lat="49.00868" lon="1.1433">
        <ele>105.6</ele>
        <time>2016-02-07T07:56:38Z</time>
      </trkpt>
      <trkpt lat="49.00857" lon="1.14334">
        <ele>106.3</ele>
        <time>2016-02-07T07:56:42Z</time>
      </trkpt>
      <trkpt lat="49.00847" lon="1.14336">
        <ele>107.1</ele>
        <time>2016-02-07T07:56:46Z</time>
      </trkpt>
      <trkpt lat="49.00837" lon="1.1434">
        <ele>107.8</ele>
        <time>2016-02-07T07:56:50Z</time>
      </trkpt>
      <trkpt lat="49.00827" lon="1.14342">
        <ele>108.5</ele>
        <time>2016-02-07T07:56:54Z</time>
      </trkpt>
      <trkpt lat="49.00817" lon="1.14342">
        <ele>109</ele>
        <time>2016-02-07T07:56:58Z</time>
      </trkpt>
      <trkpt lat="49.00807" lon="1.14339">
        <ele>109.7</ele>
        <time>2016-02-07T07:57:02Z</time>
      </trkpt>
      <trkpt lat="49.00798" lon="1.14345">
        <ele>110.3</ele>
        <time>2016-02-07T07:57:06Z</time>
      </trkpt>
      <trkpt lat="49.0079" lon="1.14356">
        <ele>110.9</ele>
        <time>2016-02-07T07:57:10Z</time>
      </trkpt>
      <trkpt lat="49.0078" lon="1.14361">
        <ele>111.5</ele>
        <time>2016-02-07T07:57:14Z</time>
      </trkpt>
      <trkpt lat="49.0077" lon="1.14366">
        <ele>112.1</ele>
        <time>2016-02-07T07:57:18Z</time>
      </trkpt>
      <trkpt lat="49.0076" lon="1.14371">
        <ele>112.7</ele>
        <time>2016-02-07T07:57:22Z</time>
      </trkpt>
      <trkpt lat="49.0075" lon="1.14377">
        <ele>113.3</ele>
        <time>2016-02-07T07:57:26Z</time>
      </trkpt>
      <trkpt lat="49.0074" lon="1.14383">
        <ele>113.9</ele>
        <time>2016-02-07T07:57:30Z</time>
      </trkpt>
      <trkpt lat="49.0073" lon="1.14389">
        <ele>114.6</ele>
        <time>2016-02-07T07:57:34Z</time>
      </trkpt>
      <trkpt lat="49.00719" lon="1.14396">
        <ele>115.2</ele>
        <time>2016-02-07T07:57:38Z</time>
      </trkpt>
      <trkpt lat="49.0071" lon="1.14404">
        <ele>115.8</ele>
        <time>2016-02-07T07:57:42Z</time>
      </trkpt>
      <trkpt lat="49.007" lon="1.14412">
        <ele>116.4</ele>
        <time>2016-02-07T07:57:46Z</time>
      </trkpt>
      <trkpt lat="49.00691" lon="1.1442">
        <ele>117</ele>
        <time>2016-02-07T07:57:50Z</time>
      </trkpt>
      <trkpt lat="49.00681" lon="1.14429">
        <ele>117.7</ele>
        <time>2016-02-07T07:57:54Z</time>
      </trkpt>
      <trkpt lat="49.00671" lon="1.14438">
        <ele>118.4</ele>
        <time>2016-02-07T07:57:58Z</time>
      </trkpt>
      <trkpt lat="49.00662" lon="1.14446">
        <ele>119</ele>
        <time>2016-02-07T07:58:02Z</time>
      </trkpt>
      <trkpt lat="49.00652" lon="1.14443">
        <ele>119.7</ele>
        <time>2016-02-07T07:58:06Z</time>
      </trkpt>
      <trkpt lat="49.00643" lon="1.14433">
        <ele>120.2</ele>
        <time>2016-02-07T07:58:10Z</time>
      </trkpt>
      <trkpt lat="49.00638" lon="1.14418">
        <ele>120.6</ele>
        <time>2016-02-07T07:58:14Z</time>
      </trkpt>
      <trkpt lat="49.00634" lon="1.14405">
        <ele>120.8</ele>
        <time>2016-02-07T07:58:17Z</time>
      </trkpt>
      <trkpt lat="49.00631" lon="1.1439">
        <ele>120.9</ele>
        <time>2016-02-07T07:58:20Z</time>
      </trkpt>
      <trkpt lat="49.00628" lon="1.14376">
        <ele>121</ele>
        <time>2016-02-07T07:58:23Z</time>
      </trkpt>
      <trkpt lat="49.00625" lon="1.14363">
        <ele>121</ele>
        <time>2016-02-07T07:58:26Z</time>
      </trkpt>
      <trkpt lat="49.00621" lon="1.14349">
        <ele>121.1</ele>
        <time>2016-02-07T07:58:29Z</time>
      </trkpt>
      <trkpt lat="49.00618" lon="1.14334">
        <ele>121.1</ele>
        <time>2016-02-07T07:58:32Z</time>
      </trkpt>
      <trkpt lat="49.00615" lon="1.14321">
        <ele>121.2</ele>
        <time>2016-02-07T07:58:35Z</time>
      </trkpt>
      <trkpt lat="49.00612" lon="1.14307">
        <ele>121.2</ele>
        <time>2016-02-07T07:58:38Z</time>
      </trkpt>
      <trkpt lat="49.00608" lon="1.14293">
        <ele>121.2</ele>
        <time>2016-02-07T07:58:41Z</time>
      </trkpt>
      <trkpt lat="49.00605" lon="1.14279">
        <ele>121.3</ele>
        <time>2016-02-07T07:58:44Z</time>
      </trkpt>
      <trkpt lat="49.00602" lon="1.14265">
        <ele>121.3</ele>
        <time>2016-02-07T07:58:47Z</time>
      </trkpt>
      <trkpt lat="49.00598" lon="1.1425">
        <ele>121.2</ele>
        <time>2016-02-07T07:58:50Z</time>
      </trkpt>
      <trkpt lat="49.00594" lon="1.14237">
        <ele>121.2</ele>
        <time>2016-02-07T07:58:53Z</time>
      </trkpt>
      <trkpt lat="49.00591" lon="1.14222">
        <ele>121.2</ele>
        <time>2016-02-07T07:58:56Z</time>
      </trkpt>
      <trkpt lat="49.00587" lon="1.14208">
        <ele>121.1</ele>
        <time>2016-02-07T07:58:59Z</time>
      </trkpt>
      <trkpt lat="49.00583" lon="1.14193">
        <ele>121.1</ele>
        <time>2016-02-07T07:59:02Z</time>
      </trkpt>
      <trkpt lat="49.00578" lon="1.14178">
        <ele>121.1</ele>
        <time>2016-02-07T07:59:05Z</time>
      </trkpt>
      <trkpt lat="49.00575" lon="1.14165">
        <ele>121.1</ele>
        <time>2016-02-07T07:59:08Z</time>
      </trkpt>
      <trkpt lat="49.0057" lon="1.14148">
        <ele>121.1</ele>
        <time>2016-02-07T07:59:12Z</time>
      </trkpt>
      <trkpt lat="49.00566" lon="1.14135">
        <ele>121</ele>
        <time>2016-02-07T07:59:15Z</time>
      </trkpt>
      <trkpt lat="49.00563" lon="1.1412">
        <ele>121</ele>
        <time>2016-02-07T07:59:19Z</time>
      </trkpt>
      <trkpt lat="49.00564" lon="1.14106">
        <ele>121</ele>
        <time>2016-02-07T07:59:23Z</time>
      </trkpt>
      <trkpt lat="49.00566" lon="1.1409">
        <ele>121</ele>
        <time>2016-02-07T07:59:28Z</time>
      </trkpt>
      <trkpt lat="49.00561" lon="1.14075">
        <ele>120.8</ele>
        <time>2016-02-07T07:59:36Z</time>
      </trkpt>
      <trkpt lat="49.00564" lon="1.14059">
        <ele>120.6</ele>
        <time>2016-02-07T07:59:41Z</time>
      </trkpt>
      <trkpt lat="49.0057" lon="1.14045">
        <ele>120.5</ele>
        <time>2016-02-07T07:59:45Z</time>
      </trkpt>
      <trkpt lat="49.00572" lon="1.14031">
        <ele>120.2</ele>
        <time>2016-02-07T07:59:49Z</time>
      </trkpt>
      <trkpt lat="49.00572" lon="1.14015">
        <ele>120</ele>
        <time>2016-02-07T07:59:53Z</time>
      </trkpt>
      <trkpt lat="49.00574" lon="1.14">
        <ele>119.7</ele>
        <time>2016-02-07T07:59:56Z</time>
      </trkpt>
      <trkpt lat="49.00574" lon="1.13985">
        <ele>119.5</ele>
        <time>2016-02-07T07:59:59Z</time>
      </trkpt>
      <trkpt lat="49.00572" lon="1.13971">
        <ele>119.4</ele>
        <time>2016-02-07T08:00:02Z</time>
      </trkpt>
      <trkpt lat="49.00572" lon="1.13957">
        <ele>119.2</ele>
        <time>2016-02-07T08:00:05Z</time>
      </trkpt>
      <trkpt lat="49.00569" lon="1.13942">
        <ele>119.1</ele>
        <time>2016-02-07T08:00:08Z</time>
      </trkpt>
      <trkpt lat="49.00565" lon="1.1393">
        <ele>119</ele>
        <time>2016-02-07T08:00:11Z</time>
      </trkpt>
      <trkpt lat="49.00559" lon="1.13915">
        <ele>118.8</ele>
        <time>2016-02-07T08:00:15Z</time>
      </trkpt>
      <trkpt lat="49.00561" lon="1.13901">
        <ele>118.7</ele>
        <time>2016-02-07T08:00:20Z</time>
      </trkpt>
      <trkpt lat="49.00568" lon="1.13889">
        <ele>118.6</ele>
        <time>2016-02-07T08:00:23Z</time>
      </trkpt>
      <trkpt lat="49.00574" lon="1.13877">
        <ele>118.6</ele>
        <time>2016-02-07T08:00:25Z</time>
      </trkpt>
      <trkpt lat="49.00581" lon="1.13868">
        <ele>118.5</ele>
        <time>2016-02-07T08:00:27Z</time>
      </trkpt>
      <trkpt lat="49.00591" lon="1.1387">
        <ele>118.1</ele>
        <time>2016-02-07T08:00:32Z</time>
      </trkpt>
      <trkpt lat="49.00601" lon="1.1387">
        <ele>117.8</ele>
        <time>2016-02-07T08:00:35Z</time>
      </trkpt>
      <trkpt lat="49.00611" lon="1.13868">
        <ele>117.5</ele>
        <time>2016-02-07T08:00:38Z</time>
      </trkpt>
      <trkpt lat="49.00622" lon="1.13865">
        <ele>117.1</ele>
        <time>2016-02-07T08:00:41Z</time>
      </trkpt>
      <trkpt lat="49.00631" lon="1.13863">
        <ele>116.7</ele>
        <time>2016-02-07T08:00:45Z</time>
      </trkpt>
      <trkpt lat="49.00641" lon="1.13867">
        <ele>116.3</ele>
        <time>2016-02-07T08:00:50Z</time>
      </trkpt>
      <trkpt lat="49.00652" lon="1.13868">
        <ele>116</ele>
        <time>2016-02-07T08:00:54Z</time>
      </trkpt>
      <trkpt lat="49.00662" lon="1.13869">
        <ele>115.9</ele>
        <time>2016-02-07T08:00:57Z</time>
      </trkpt>
      <trkpt lat="49.00673" lon="1.13872">
        <ele>115.6</ele>
        <time>2016-02-07T08:01:00Z</time>
      </trkpt>
      <trkpt lat="49.00683" lon="1.13874">
        <ele>115.3</ele>
        <time>2016-02-07T08:01:04Z</time>
      </trkpt>
      <trkpt lat="49.00693" lon="1.13878">
        <ele>115</ele>
        <time>2016-02-07T08:01:08Z</time>
      </trkpt>
      <trkpt lat="49.00702" lon="1.13879">
        <ele>114.9</ele>
        <time>2016-02-07T08:01:11Z</time>
      </trkpt>
      <trkpt lat="49.00713" lon="1.13879">
        <ele>114.8</ele>
        <time>2016-02-07T08:01:15Z</time>
      </trkpt>
      <trkpt lat="49.00723" lon="1.1388">
        <ele>114.8</ele>
        <time>2016-02-07T08:01:19Z</time>
      </trkpt>
      <trkpt lat="49.00733" lon="1.13884">
        <ele>114.9</ele>
        <time>2016-02-07T08:01:23Z</time>
      </trkpt>
      <trkpt lat="49.00742" lon="1.13882">
        <ele>115</ele>
        <time>2016-02-07T08:01:26Z</time>
      </trkpt>
      <trkpt lat="49.00752" lon="1.1388">
        <ele>115</ele>
        <time>2016-02-07T08:01:30Z</time>
      </trkpt>
      <trkpt lat="49.00763" lon="1.13878">
        <ele>115.1</ele>
        <time>2016-02-07T08:01:34Z</time>
      </trkpt>
      <trkpt lat="49.00772" lon="1.13872">
        <ele>115.2</ele>
        <time>2016-02-07T08:01:38Z</time>
      </trkpt>
      <trkpt lat="49.00781" lon="1.13868">
        <ele>115.3</ele>
        <time>2016-02-07T08:01:41Z</time>
      </trkpt>
      <trkpt lat="49.00792" lon="1.13863">
        <ele>115.4</ele>
        <time>2016-02-07T08:01:45Z</time>
      </trkpt>
      <trkpt lat="49.00801" lon="1.13859">
        <ele>115.5</ele>
        <time>2016-02-07T08:01:48Z</time>
      </trkpt>
      <trkpt lat="49.00811" lon="1.13855">
        <ele>115.6</ele>
        <time>2016-02-07T08:01:51Z</time>
      </trkpt>
      <trkpt lat="49.0082" lon="1.13849">
        <ele>115.7</ele>
        <time>2016-02-07T08:01:54Z</time>
      </trkpt>
      <trkpt lat="49.0083" lon="1.13843">
        <ele>115.8</ele>
        <time>2016-02-07T08:01:57Z</time>
      </trkpt>
      <trkpt lat="49.00838" lon="1.1384">
        <ele>115.9</ele>
        <time>2016-02-07T08:02:00Z</time>
      </trkpt>
      <trkpt lat="49.00848" lon="1.13832">
        <ele>116.1</ele>
        <time>2016-02-07T08:02:04Z</time>
      </trkpt>
      <trkpt lat="49.00853" lon="1.1382">
        <ele>116.3</ele>
        <time>2016-02-07T08:02:07Z</time>
      </trkpt>
      <trkpt lat="49.0086" lon="1.13809">
        <ele>116.5</ele>
        <time>2016-02-07T08:02:10Z</time>
      </trkpt>
      <trkpt lat="49.00864" lon="1.13796">
        <ele>116.7</ele>
        <time>2016-02-07T08:02:13Z</time>
      </trkpt>
      <trkpt lat="49.0087" lon="1.13784">
        <ele>117</ele>
        <time>2016-02-07T08:02:16Z</time>
      </trkpt>
      <trkpt lat="49.00877" lon="1.13776">
        <ele>117.2</ele>
        <time>2016-02-07T08:02:19Z</time>
      </trkpt>
      <trkpt lat="49.00887" lon="1.13768">
        <ele>117.5</ele>
        <time>2016-02-07T08:02:23Z</time>
      </trkpt>
      <trkpt lat="49.00896" lon="1.13763">
        <ele>117.7</ele>
        <time>2016-02-07T08:02:27Z</time>
      </trkpt>
      <trkpt lat="49.00908" lon="1.13764">
        <ele>118</ele>
        <time>2016-02-07T08:02:32Z</time>
      </trkpt>
      <trkpt lat="49.0092" lon="1.13765">
        <ele>118.1</ele>
        <time>2016-02-07T08:02:36Z</time>
      </trkpt>
      <trkpt lat="49.00929" lon="1.13762">
        <ele>118.2</ele>
        <time>2016-02-07T08:02:39Z</time>
      </trkpt>
      <trkpt lat="49.00939" lon="1.13762">
        <ele>118.3</ele>
        <time>2016-02-07T08:02:43Z</time>
      </trkpt>
      <trkpt lat="49.00947" lon="1.13754">
        <ele>118.4</ele>
        <time>2016-02-07T08:02:46Z</time>
      </trkpt>
      <trkpt lat="49.00957" lon="1.13749">
        <ele>118.4</ele>
        <time>2016-02-07T08:02:50Z</time>
      </trkpt>
      <trkpt lat="49.00967" lon="1.13749">
        <ele>118.5</ele>
        <time>2016-02-07T08:02:54Z</time>
      </trkpt>
      <trkpt lat="49.00978" lon="1.1375">
        <ele>118.4</ele>
        <time>2016-02-07T08:02:59Z</time>
      </trkpt>
      <trkpt lat="49.00987" lon="1.13744">
        <ele>118.4</ele>
        <time>2016-02-07T08:03:05Z</time>
      </trkpt>
      <trkpt lat="49.00996" lon="1.13744">
        <ele>118.4</ele>
        <time>2016-02-07T08:03:11Z</time>
      </trkpt>
      <trkpt lat="49.01006" lon="1.13742">
        <ele>118.4</ele>
        <time>2016-02-07T08:03:14Z</time>
      </trkpt>
      <trkpt lat="49.01018" lon="1.1374">
        <ele>118.4</ele>
        <time>2016-02-07T08:03:17Z</time>
      </trkpt>
      <trkpt lat="49.01027" lon="1.13734">
        <ele>118.4</ele>
        <time>2016-02-07T08:03:20Z</time>
      </trkpt>
      <trkpt lat="49.01035" lon="1.13738">
        <ele>118.5</ele>
        <time>2016-02-07T08:03:29Z</time>
      </trkpt>
      <trkpt lat="49.01043" lon="1.13748">
        <ele>118.5</ele>
        <time>2016-02-07T08:03:54Z</time>
      </trkpt>
      <trkpt lat="49.01048" lon="1.13765">
        <ele>118.5</ele>
        <time>2016-02-07T08:03:57Z</time>
      </trkpt>
      <trkpt lat="49.01051" lon="1.13782">
        <ele>118.5</ele>
        <time>2016-02-07T08:04:00Z</time>
      </trkpt>
      <trkpt lat="49.01047" lon="1.13796">
        <ele>118.5</ele>
        <time>2016-02-07T08:04:03Z</time>
      </trkpt>
      <trkpt lat="49.01038" lon="1.13803">
        <ele>118.5</ele>
        <time>2016-02-07T08:04:06Z</time>
      </trkpt>
      <trkpt lat="49.01028" lon="1.1381">
        <ele>118.5</ele>
        <time>2016-02-07T08:04:09Z</time>
      </trkpt>
      <trkpt lat="49.01018" lon="1.13816">
        <ele>118.4</ele>
        <time>2016-02-07T08:04:12Z</time>
      </trkpt>
      <trkpt lat="49.01008" lon="1.13821">
        <ele>118.2</ele>
        <time>2016-02-07T08:04:15Z</time>
      </trkpt>
      <trkpt lat="49.00999" lon="1.13825">
        <ele>118.1</ele>
        <time>2016-02-07T08:04:19Z</time>
      </trkpt>
      <trkpt lat="49.0099" lon="1.13831">
        <ele>118</ele>
        <time>2016-02-07T08:04:23Z</time>
      </trkpt>
      <trkpt lat="49.00981" lon="1.13837">
        <ele>117.8</ele>
        <time>2016-02-07T08:04:28Z</time>
      </trkpt>
      <trkpt lat="49.00972" lon="1.13842">
        <ele>117.6</ele>
        <time>2016-02-07T08:04:32Z</time>
      </trkpt>
      <trkpt lat="49.00963" lon="1.13848">
        <ele>117.2</ele>
        <time>2016-02-07T08:04:37Z</time>
      </trkpt>
      <trkpt lat="49.00955" lon="1.13853">
        <ele>117</ele>
        <time>2016-02-07T08:04:42Z</time>
      </trkpt>
      <trkpt lat="49.00945" lon="1.13859">
        <ele>116.8</ele>
        <time>2016-02-07T08:04:48Z</time>
      </trkpt>
      <trkpt lat="49.00935" lon="1.13866">
        <ele>116.6</ele>
        <time>2016-02-07T08:04:54Z</time>
      </trkpt>
      <trkpt lat="49.00927" lon="1.13873">
        <ele>116.5</ele>
        <time>2016-02-07T08:04:58Z</time>
      </trkpt>
      <trkpt lat="49.00918" lon="1.13879">
        <ele>116.4</ele>
        <time>2016-02-07T08:05:03Z</time>
      </trkpt>
      <trkpt lat="49.0091" lon="1.13887">
        <ele>116.2</ele>
        <time>2016-02-07T08:05:13Z</time>
      </trkpt>
      <trkpt lat="49.00918" lon="1.13898">
        <ele>115.6</ele>
        <time>2016-02-07T08:05:19Z</time>
      </trkpt>
      <trkpt lat="49.00928" lon="1.13906">
        <ele>114.7</ele>
        <time>2016-02-07T08:05:23Z</time>
      </trkpt>
      <trkpt lat="49.00938" lon="1.13915">
        <ele>113.8</ele>
        <time>2016-02-07T08:05:26Z</time>
      </trkpt>
      <trkpt lat="49.00946" lon="1.13923">
        <ele>112.9</ele>
        <time>2016-02-07T08:05:29Z</time>
      </trkpt>
      <trkpt lat="49.00956" lon="1.13928">
        <ele>112</ele>
        <time>2016-02-07T08:05:32Z</time>
      </trkpt>
      <trkpt lat="49.00967" lon="1.13935">
        <ele>110.8</ele>
        <time>2016-02-07T08:05:36Z</time>
      </trkpt>
      <trkpt lat="49.00975" lon="1.13942">
        <ele>109.7</ele>
        <time>2016-02-07T08:05:40Z</time>
      </trkpt>
      <trkpt lat="49.00985" lon="1.13944">
        <ele>108.6</ele>
        <time>2016-02-07T08:05:44Z</time>
      </trkpt>
      <trkpt lat="49.00995" lon="1.13943">
        <ele>107.8</ele>
        <time>2016-02-07T08:05:48Z</time>
      </trkpt>
      <trkpt lat="49.01004" lon="1.13942">
        <ele>107.2</ele>
        <time>2016-02-07T08:05:52Z</time>
      </trkpt>
      <trkpt lat="49.01014" lon="1.13939">
        <ele>107</ele>
        <time>2016-02-07T08:05:56Z</time>
      </trkpt>
      <trkpt lat="49.01025" lon="1.13937">
        <ele>107.1</ele>
        <time>2016-02-07T08:06:01Z</time>
      </trkpt>
      <trkpt lat="49.01034" lon="1.13931">
        <ele>107.6</ele>
        <time>2016-02-07T08:06:07Z</time>
      </trkpt>
      <trkpt lat="49.01044" lon="1.13929">
        <ele>107.9</ele>
        <time>2016-02-07T08:06:11Z</time>
      </trkpt>
      <trkpt lat="49.01053" lon="1.13925">
        <ele>108.5</ele>
        <time>2016-02-07T08:06:15Z</time>
      </trkpt>
      <trkpt lat="49.01062" lon="1.1392">
        <ele>109.2</ele>
        <time>2016-02-07T08:06:20Z</time>
      </trkpt>
      <trkpt lat="49.01071" lon="1.13917">
        <ele>110.1</ele>
        <time>2016-02-07T08:06:26Z</time>
      </trkpt>
      <trkpt lat="49.01081" lon="1.1392">
        <ele>110.9</ele>
        <time>2016-02-07T08:06:31Z</time>
      </trkpt>
      <trkpt lat="49.01087" lon="1.13935">
        <ele>111.5</ele>
        <time>2016-02-07T08:06:35Z</time>
      </trkpt>
      <trkpt lat="49.01091" lon="1.13947">
        <ele>111.8</ele>
        <time>2016-02-07T08:06:38Z</time>
      </trkpt>
      <trkpt lat="49.01096" lon="1.13963">
        <ele>112.2</ele>
        <time>2016-02-07T08:06:42Z</time>
      </trkpt>
      <trkpt lat="49.01103" lon="1.13977">
        <ele>112.5</ele>
        <time>2016-02-07T08:06:46Z</time>
      </trkpt>
      <trkpt lat="49.01112" lon="1.13981">
        <ele>112.6</ele>
        <time>2016-02-07T08:06:49Z</time>
      </trkpt>
      <trkpt lat="49.01121" lon="1.13985">
        <ele>112.6</ele>
        <time>2016-02-07T08:06:52Z</time>
      </trkpt>
      <trkpt lat="49.01131" lon="1.13989">
        <ele>112.7</ele>
        <time>2016-02-07T08:06:55Z</time>
      </trkpt>
      <trkpt lat="49.0114" lon="1.13993">
        <ele>112.7</ele>
        <time>2016-02-07T08:06:58Z</time>
      </trkpt>
      <trkpt lat="49.0115" lon="1.13997">
        <ele>112.8</ele>
        <time>2016-02-07T08:07:01Z</time>
      </trkpt>
      <trkpt lat="49.01159" lon="1.14001">
        <ele>112.8</ele>
        <time>2016-02-07T08:07:04Z</time>
      </trkpt>
      <trkpt lat="49.0117" lon="1.14006">
        <ele>112.8</ele>
        <time>2016-02-07T08:07:08Z</time>
      </trkpt>
      <trkpt lat="49.01182" lon="1.14011">
        <ele>112.8</ele>
        <time>2016-02-07T08:07:11Z</time>
      </trkpt>
      <trkpt lat="49.01194" lon="1.14013">
        <ele>112.6</ele>
        <time>2016-02-07T08:07:14Z</time>
      </trkpt>
      <trkpt lat="49.01206" lon="1.14019">
        <ele>112.4</ele>
        <time>2016-02-07T08:07:17Z</time>
      </trkpt>
      <trkpt lat="49.01218" lon="1.14024">
        <ele>112.2</ele>
        <time>2016-02-07T08:07:20Z</time>
      </trkpt>
      <trkpt lat="49.01228" lon="1.14033">
        <ele>112</ele>
        <time>2016-02-07T08:07:23Z</time>
      </trkpt>
      <trkpt lat="49.01237" lon="1.14045">
        <ele>111.9</ele>
        <time>2016-02-07T08:07:26Z</time>
      </trkpt>
      <trkpt lat="49.01245" lon="1.14054">
        <ele>111.7</ele>
        <time>2016-02-07T08:07:29Z</time>
      </trkpt>
      <trkpt lat="49.01255" lon="1.14061">
        <ele>111.6</ele>
        <time>2016-02-07T08:07:32Z</time>
      </trkpt>
      <trkpt lat="49.01267" lon="1.14063">
        <ele>111.5</ele>
        <time>2016-02-07T08:07:35Z</time>
      </trkpt>
      <trkpt lat="49.01278" lon="1.14065">
        <ele>111.4</ele>
        <time>2016-02-07T08:07:38Z</time>
      </trkpt>
      <trkpt lat="49.01287" lon="1.14071">
        <ele>111.3</ele>
        <time>2016-02-07T08:07:41Z</time>
      </trkpt>
      <trkpt lat="49.01299" lon="1.14076">
        <ele>111.2</ele>
        <time>2016-02-07T08:07:45Z</time>
      </trkpt>
      <trkpt lat="49.01308" lon="1.14082">
        <ele>111.2</ele>
        <time>2016-02-07T08:07:49Z</time>
      </trkpt>
      <trkpt lat="49.01315" lon="1.14095">
        <ele>111.1</ele>
        <time>2016-02-07T08:07:53Z</time>
      </trkpt>
      <trkpt lat="49.01315" lon="1.14111">
        <ele>111</ele>
        <time>2016-02-07T08:07:57Z</time>
      </trkpt>
      <trkpt lat="49.01316" lon="1.14127">
        <ele>110.3</ele>
        <time>2016-02-07T08:08:03Z</time>
      </trkpt>
      <trkpt lat="49.0132" lon="1.1414">
        <ele>109.1</ele>
        <time>2016-02-07T08:08:11Z</time>
      </trkpt>
      <trkpt lat="49.01327" lon="1.14149">
        <ele>105.7</ele>
        <time>2016-02-07T08:08:30Z</time>
      </trkpt>
      <trkpt lat="49.01333" lon="1.14161">
        <ele>104.3</ele>
        <time>2016-02-07T08:08:38Z</time>
      </trkpt>
      <trkpt lat="49.01341" lon="1.14172">
        <ele>103.6</ele>
        <time>2016-02-07T08:08:42Z</time>
      </trkpt>
      <trkpt lat="49.0135" lon="1.14179">
        <ele>103.2</ele>
        <time>2016-02-07T08:08:46Z</time>
      </trkpt>
      <trkpt lat="49.01359" lon="1.14187">
        <ele>102.8</ele>
        <time>2016-02-07T08:08:50Z</time>
      </trkpt>
      <trkpt lat="49.01367" lon="1.14198">
        <ele>102.6</ele>
        <time>2016-02-07T08:08:54Z</time>
      </trkpt>
      <trkpt lat="49.01375" lon="1.14208">
        <ele>102.6</ele>
        <time>2016-02-07T08:08:58Z</time>
      </trkpt>
      <trkpt lat="49.01384" lon="1.14215">
        <ele>102.7</ele>
        <time>2016-02-07T08:09:02Z</time>
      </trkpt>
      <trkpt lat="49.01393" lon="1.1422">
        <ele>103</ele>
        <time>2016-02-07T08:09:07Z</time>
      </trkpt>
      <trkpt lat="49.01401" lon="1.14229">
        <ele>103.9</ele>
        <time>2016-02-07T08:09:43Z</time>
      </trkpt>
      <trkpt lat="49.01409" lon="1.14238">
        <ele>104</ele>
        <time>2016-02-07T08:09:49Z</time>
      </trkpt>
      <trkpt lat="49.01416" lon="1.14251">
        <ele>104</ele>
        <time>2016-02-07T08:09:53Z</time>
      </trkpt>
      <trkpt lat="49.01426" lon="1.14259">
        <ele>103.9</ele>
        <time>2016-02-07T08:09:56Z</time>
      </trkpt>
      <trkpt lat="49.01435" lon="1.14263">
        <ele>103.7</ele>
        <time>2016-02-07T08:09:59Z</time>
      </trkpt>
      <trkpt lat="49.01443" lon="1.14253">
        <ele>103.3</ele>
        <time>2016-02-07T08:10:03Z</time>
      </trkpt>
      <trkpt lat="49.01448" lon="1.14239">
        <ele>103.2</ele>
        <time>2016-02-07T08:10:06Z</time>
      </trkpt>
      <trkpt lat="49.01454" lon="1.14227">
        <ele>103.4</ele>
        <time>2016-02-07T08:10:09Z</time>
      </trkpt>
      <trkpt lat="49.0146" lon="1.14213">
        <ele>103.6</ele>
        <time>2016-02-07T08:10:13Z</time>
      </trkpt>
      <trkpt lat="49.01464" lon="1.14197">
        <ele>104</ele>
        <time>2016-02-07T08:10:17Z</time>
      </trkpt>
      <trkpt lat="49.01468" lon="1.14182">
        <ele>104.5</ele>
        <time>2016-02-07T08:10:21Z</time>
      </trkpt>
      <trkpt lat="49.01473" lon="1.14169">
        <ele>104.8</ele>
        <time>2016-02-07T08:10:24Z</time>
      </trkpt>
      <trkpt lat="49.01478" lon="1.14157">
        <ele>105.2</ele>
        <time>2016-02-07T08:10:27Z</time>
      </trkpt>
      <trkpt lat="49.01482" lon="1.14143">
        <ele>105.5</ele>
        <time>2016-02-07T08:10:30Z</time>
      </trkpt>
      <trkpt lat="49.01485" lon="1.14129">
        <ele>105.8</ele>
        <time>2016-02-07T08:10:33Z</time>
      </trkpt>
      <trkpt lat="49.01491" lon="1.14113">
        <ele>106.1</ele>
        <time>2016-02-07T08:10:37Z</time>
      </trkpt>
      <trkpt lat="49.01495" lon="1.141">
        <ele>106.3</ele>
        <time>2016-02-07T08:10:40Z</time>
      </trkpt>
      <trkpt lat="49.01495" lon="1.14085">
        <ele>106.6</ele>
        <time>2016-02-07T08:10:43Z</time>
      </trkpt>
      <trkpt lat="49.01494" lon="1.1407">
        <ele>106.9</ele>
        <time>2016-02-07T08:10:46Z</time>
      </trkpt>
      <trkpt lat="49.01493" lon="1.14056">
        <ele>107.2</ele>
        <time>2016-02-07T08:10:49Z</time>
      </trkpt>
      <trkpt lat="49.01492" lon="1.14039">
        <ele>107.7</ele>
        <time>2016-02-07T08:10:53Z</time>
      </trkpt>
      <trkpt lat="49.01503" lon="1.14045">
        <ele>108.3</ele>
        <time>2016-02-07T08:10:59Z</time>
      </trkpt>
      <trkpt lat="49.01512" lon="1.14054">
        <ele>108.5</ele>
        <time>2016-02-07T08:11:02Z</time>
      </trkpt>
      <trkpt lat="49.01519" lon="1.14065">
        <ele>108.5</ele>
        <time>2016-02-07T08:11:05Z</time>
      </trkpt>
      <trkpt lat="49.01529" lon="1.14068">
        <ele>108.4</ele>
        <time>2016-02-07T08:11:08Z</time>
      </trkpt>
      <trkpt lat="49.01534" lon="1.14053">
        <ele>108.3</ele>
        <time>2016-02-07T08:11:12Z</time>
      </trkpt>
      <trkpt lat="49.01539" lon="1.1404">
        <ele>108.2</ele>
        <time>2016-02-07T08:11:15Z</time>
      </trkpt>
      <trkpt lat="49.01545" lon="1.14025">
        <ele>108.2</ele>
        <time>2016-02-07T08:11:18Z</time>
      </trkpt>
      <trkpt lat="49.01552" lon="1.14009">
        <ele>108.1</ele>
        <time>2016-02-07T08:11:21Z</time>
      </trkpt>
      <trkpt lat="49.01554" lon="1.13991">
        <ele>107.9</ele>
        <time>2016-02-07T08:11:24Z</time>
      </trkpt>
      <trkpt lat="49.01557" lon="1.13974">
        <ele>107.8</ele>
        <time>2016-02-07T08:11:27Z</time>
      </trkpt>
      <trkpt lat="49.01557" lon="1.13956">
        <ele>107.6</ele>
        <time>2016-02-07T08:11:30Z</time>
      </trkpt>
      <trkpt lat="49.01552" lon="1.13939">
        <ele>107.4</ele>
        <time>2016-02-07T08:11:33Z</time>
      </trkpt>
      <trkpt lat="49.01547" lon="1.13925">
        <ele>107.2</ele>
        <time>2016-02-07T08:11:36Z</time>
      </trkpt>
      <trkpt lat="49.01544" lon="1.13911">
        <ele>107</ele>
        <time>2016-02-07T08:11:39Z</time>
      </trkpt>
      <trkpt lat="49.01541" lon="1.13897">
        <ele>106.9</ele>
        <time>2016-02-07T08:11:42Z</time>
      </trkpt>
      <trkpt lat="49.01537" lon="1.13882">
        <ele>106.8</ele>
        <time>2016-02-07T08:11:45Z</time>
      </trkpt>
      <trkpt lat="49.01532" lon="1.13867">
        <ele>106.8</ele>
        <time>2016-02-07T08:11:48Z</time>
      </trkpt>
      <trkpt lat="49.01527" lon="1.13851">
        <ele>106.9</ele>
        <time>2016-02-07T08:11:51Z</time>
      </trkpt>
      <trkpt lat="49.01524" lon="1.13834">
        <ele>106.9</ele>
        <time>2016-02-07T08:11:54Z</time>
      </trkpt>
      <trkpt lat="49.01519" lon="1.13816">
        <ele>106.9</ele>
        <time>2016-02-07T08:11:57Z</time>
      </trkpt>
      <trkpt lat="49.01515" lon="1.138">
        <ele>106.9</ele>
        <time>2016-02-07T08:12:00Z</time>
      </trkpt>
      <trkpt lat="49.0151" lon="1.13783">
        <ele>106.9</ele>
        <time>2016-02-07T08:12:03Z</time>
      </trkpt>
      <trkpt lat="49.01506" lon="1.13768">
        <ele>106.9</ele>
        <time>2016-02-07T08:12:06Z</time>
      </trkpt>
      <trkpt lat="49.01502" lon="1.13751">
        <ele>106.9</ele>
        <time>2016-02-07T08:12:09Z</time>
      </trkpt>
      <trkpt lat="49.01495" lon="1.13737">
        <ele>107</ele>
        <time>2016-02-07T08:12:12Z</time>
      </trkpt>
      <trkpt lat="49.01486" lon="1.13723">
        <ele>107.1</ele>
        <time>2016-02-07T08:12:15Z</time>
      </trkpt>
      <trkpt lat="49.01479" lon="1.13712">
        <ele>107.2</ele>
        <time>2016-02-07T08:12:17Z</time>
      </trkpt>
      <trkpt lat="49.01472" lon="1.13699">
        <ele>107.4</ele>
        <time>2016-02-07T08:12:20Z</time>
      </trkpt>
      <trkpt lat="49.01463" lon="1.13687">
        <ele>107.6</ele>
        <time>2016-02-07T08:12:23Z</time>
      </trkpt>
      <trkpt lat="49.01456" lon="1.13675">
        <ele>107.9</ele>
        <time>2016-02-07T08:12:26Z</time>
      </trkpt>
      <trkpt lat="49.01449" lon="1.13661">
        <ele>108.3</ele>
        <time>2016-02-07T08:12:30Z</time>
      </trkpt>
      <trkpt lat="49.0144" lon="1.13649">
        <ele>108.6</ele>
        <time>2016-02-07T08:12:33Z</time>
      </trkpt>
      <trkpt lat="49.01432" lon="1.13637">
        <ele>108.8</ele>
        <time>2016-02-07T08:12:36Z</time>
      </trkpt>
      <trkpt lat="49.01425" lon="1.1362">
        <ele>109</ele>
        <time>2016-02-07T08:12:39Z</time>
      </trkpt>
      <trkpt lat="49.0142" lon="1.13608">
        <ele>109</ele>
        <time>2016-02-07T08:12:41Z</time>
      </trkpt>
      <trkpt lat="49.01415" lon="1.13591">
        <ele>109.2</ele>
        <time>2016-02-07T08:12:44Z</time>
      </trkpt>
      <trkpt lat="49.01411" lon="1.13575">
        <ele>109.4</ele>
        <time>2016-02-07T08:12:47Z</time>
      </trkpt>
      <trkpt lat="49.01407" lon="1.13562">
        <ele>109.9</ele>
        <time>2016-02-07T08:12:52Z</time>
      </trkpt>
      <trkpt lat="49.01399" lon="1.13554">
        <ele>111.1</ele>
        <time>2016-02-07T08:13:13Z</time>
      </trkpt>
      <trkpt lat="49.01395" lon="1.13542">
        <ele>111.3</ele>
        <time>2016-02-07T08:13:17Z</time>
      </trkpt>
      <trkpt lat="49.0139" lon="1.13529">
        <ele>111.5</ele>
        <time>2016-02-07T08:13:20Z</time>
      </trkpt>
      <trkpt lat="49.01386" lon="1.13516">
        <ele>111.7</ele>
        <time>2016-02-07T08:13:23Z</time>
      </trkpt>
      <trkpt lat="49.01381" lon="1.13502">
        <ele>111.9</ele>
        <time>2016-02-07T08:13:26Z</time>
      </trkpt>
      <trkpt lat="49.01376" lon="1.13487">
        <ele>112.1</ele>
        <time>2016-02-07T08:13:29Z</time>
      </trkpt>
      <trkpt lat="49.01372" lon="1.13473">
        <ele>112.3</ele>
        <time>2016-02-07T08:13:32Z</time>
      </trkpt>
      <trkpt lat="49.01367" lon="1.13457">
        <ele>112.5</ele>
        <time>2016-02-07T08:13:35Z</time>
      </trkpt>
      <trkpt lat="49.01362" lon="1.13442">
        <ele>112.7</ele>
        <time>2016-02-07T08:13:38Z</time>
      </trkpt>
      <trkpt lat="49.01357" lon="1.13427">
        <ele>112.9</ele>
        <time>2016-02-07T08:13:41Z</time>
      </trkpt>
      <trkpt lat="49.01351" lon="1.13411">
        <ele>113</ele>
        <time>2016-02-07T08:13:44Z</time>
      </trkpt>
      <trkpt lat="49.01346" lon="1.13396">
        <ele>113.1</ele>
        <time>2016-02-07T08:13:47Z</time>
      </trkpt>
      <trkpt lat="49.0134" lon="1.13382">
        <ele>113.2</ele>
        <time>2016-02-07T08:13:50Z</time>
      </trkpt>
      <trkpt lat="49.01329" lon="1.13379">
        <ele>113.4</ele>
        <time>2016-02-07T08:13:54Z</time>
      </trkpt>
      <trkpt lat="49.0132" lon="1.13383">
        <ele>113.6</ele>
        <time>2016-02-07T08:13:57Z</time>
      </trkpt>
      <trkpt lat="49.01308" lon="1.1338">
        <ele>113.8</ele>
        <time>2016-02-07T08:14:01Z</time>
      </trkpt>
      <trkpt lat="49.01299" lon="1.13377">
        <ele>113.9</ele>
        <time>2016-02-07T08:14:04Z</time>
      </trkpt>
      <trkpt lat="49.01289" lon="1.13373">
        <ele>114</ele>
        <time>2016-02-07T08:14:07Z</time>
      </trkpt>
      <trkpt lat="49.01284" lon="1.13357">
        <ele>114</ele>
        <time>2016-02-07T08:14:11Z</time>
      </trkpt>
      <trkpt lat="49.01277" lon="1.13346">
        <ele>114.1</ele>
        <time>2016-02-07T08:14:15Z</time>
      </trkpt>
      <trkpt lat="49.01268" lon="1.13352">
        <ele>114.1</ele>
        <time>2016-02-07T08:14:18Z</time>
      </trkpt>
      <trkpt lat="49.01261" lon="1.13362">
        <ele>114.1</ele>
        <time>2016-02-07T08:14:22Z</time>
      </trkpt>
      <trkpt lat="49.01257" lon="1.13374">
        <ele>114.1</ele>
        <time>2016-02-07T08:14:26Z</time>
      </trkpt>
      <trkpt lat="49.01255" lon="1.1339">
        <ele>114.2</ele>
        <time>2016-02-07T08:14:30Z</time>
      </trkpt>
      <trkpt lat="49.01253" lon="1.13405">
        <ele>114.3</ele>
        <time>2016-02-07T08:14:34Z</time>
      </trkpt>
      <trkpt lat="49.01252" lon="1.1342">
        <ele>114.3</ele>
        <time>2016-02-07T08:14:38Z</time>
      </trkpt>
      <trkpt lat="49.01245" lon="1.13435">
        <ele>114.3</ele>
        <time>2016-02-07T08:14:42Z</time>
      </trkpt>
      <trkpt lat="49.01235" lon="1.13441">
        <ele>114.5</ele>
        <time>2016-02-07T08:14:46Z</time>
      </trkpt>
      <trkpt lat="49.01226" lon="1.13433">
        <ele>115</ele>
        <time>2016-02-07T08:14:51Z</time>
      </trkpt>
      <trkpt lat="49.01222" lon="1.13419">
        <ele>115.4</ele>
        <time>2016-02-07T08:14:55Z</time>
      </trkpt>
      <trkpt lat="49.01218" lon="1.13406">
        <ele>115.6</ele>
        <time>2016-02-07T08:14:58Z</time>
      </trkpt>
      <trkpt lat="49.01215" lon="1.13391">
        <ele>115.8</ele>
        <time>2016-02-07T08:15:01Z</time>
      </trkpt>
      <trkpt lat="49.01211" lon="1.13378">
        <ele>115.9</ele>
        <time>2016-02-07T08:15:04Z</time>
      </trkpt>
      <trkpt lat="49.01208" lon="1.13365">
        <ele>116</ele>
        <time>2016-02-07T08:15:07Z</time>
      </trkpt>
      <trkpt lat="49.01203" lon="1.1335">
        <ele>116.1</ele>
        <time>2016-02-07T08:15:10Z</time>
      </trkpt>
      <trkpt lat="49.012" lon="1.13334">
        <ele>116.2</ele>
        <time>2016-02-07T08:15:13Z</time>
      </trkpt>
      <trkpt lat="49.01196" lon="1.13318">
        <ele>116.3</ele>
        <time>2016-02-07T08:15:16Z</time>
      </trkpt>
      <trkpt lat="49.01192" lon="1.13301">
        <ele>116.3</ele>
        <time>2016-02-07T08:15:19Z</time>
      </trkpt>
      <trkpt lat="49.01188" lon="1.13284">
        <ele>116.4</ele>
        <time>2016-02-07T08:15:22Z</time>
      </trkpt>
      <trkpt lat="49.01185" lon="1.1327">
        <ele>116.4</ele>
        <time>2016-02-07T08:15:25Z</time>
      </trkpt>
      <trkpt lat="49.01185" lon="1.13254">
        <ele>116.4</ele>
        <time>2016-02-07T08:15:29Z</time>
      </trkpt>
      <trkpt lat="49.01183" lon="1.1324">
        <ele>116.5</ele>
        <time>2016-02-07T08:15:34Z</time>
      </trkpt>
      <trkpt lat="49.01172" lon="1.13234">
        <ele>116.4</ele>
        <time>2016-02-07T08:15:38Z</time>
      </trkpt>
      <trkpt lat="49.01168" lon="1.13219">
        <ele>116.4</ele>
        <time>2016-02-07T08:15:42Z</time>
      </trkpt>
      <trkpt lat="49.01172" lon="1.13205">
        <ele>116.4</ele>
        <time>2016-02-07T08:15:46Z</time>
      </trkpt>
      <trkpt lat="49.01171" lon="1.13189">
        <ele>116.4</ele>
        <time>2016-02-07T08:15:50Z</time>
      </trkpt>
      <trkpt lat="49.01168" lon="1.13172">
        <ele>116.3</ele>
        <time>2016-02-07T08:15:54Z</time>
      </trkpt>
      <trkpt lat="49.01163" lon="1.13156">
        <ele>116.3</ele>
        <time>2016-02-07T08:15:58Z</time>
      </trkpt>
      <trkpt lat="49.01158" lon="1.13142">
        <ele>116.2</ele>
        <time>2016-02-07T08:16:01Z</time>
      </trkpt>
      <trkpt lat="49.01151" lon="1.13131">
        <ele>116.2</ele>
        <time>2016-02-07T08:16:04Z</time>
      </trkpt>
      <trkpt lat="49.01144" lon="1.13121">
        <ele>116.1</ele>
        <time>2016-02-07T08:16:07Z</time>
      </trkpt>
      <trkpt lat="49.01141" lon="1.13108">
        <ele>115.8</ele>
        <time>2016-02-07T08:16:13Z</time>
      </trkpt>
      <trkpt lat="49.0115" lon="1.13098">
        <ele>115</ele>
        <time>2016-02-07T08:17:02Z</time>
      </trkpt>
      <trkpt lat="49.01156" lon="1.13088">
        <ele>115</ele>
        <time>2016-02-07T08:17:05Z</time>
      </trkpt>
      <trkpt lat="49.01164" lon="1.13076">
        <ele>115</ele>
        <time>2016-02-07T08:17:08Z</time>
      </trkpt>
      <trkpt lat="49.01172" lon="1.13065">
        <ele>115.1</ele>
        <time>2016-02-07T08:17:11Z</time>
      </trkpt>
      <trkpt lat="49.0118" lon="1.13055">
        <ele>115.2</ele>
        <time>2016-02-07T08:17:14Z</time>
      </trkpt>
      <trkpt lat="49.01189" lon="1.13044">
        <ele>115.3</ele>
        <time>2016-02-07T08:17:17Z</time>
      </trkpt>
      <trkpt lat="49.01201" lon="1.1305">
        <ele>115.3</ele>
        <time>2016-02-07T08:17:20Z</time>
      </trkpt>
      <trkpt lat="49.01208" lon="1.1306">
        <ele>115.3</ele>
        <time>2016-02-07T08:17:22Z</time>
      </trkpt>
      <trkpt lat="49.01216" lon="1.13069">
        <ele>115.2</ele>
        <time>2016-02-07T08:17:24Z</time>
      </trkpt>
      <trkpt lat="49.01223" lon="1.13082">
        <ele>115.2</ele>
        <time>2016-02-07T08:17:26Z</time>
      </trkpt>
      <trkpt lat="49.01229" lon="1.13094">
        <ele>115</ele>
        <time>2016-02-07T08:17:28Z</time>
      </trkpt>
      <trkpt lat="49.01236" lon="1.13105">
        <ele>114.9</ele>
        <time>2016-02-07T08:17:30Z</time>
      </trkpt>
      <trkpt lat="49.01244" lon="1.13115">
        <ele>114.8</ele>
        <time>2016-02-07T08:17:32Z</time>
      </trkpt>
      <trkpt lat="49.01251" lon="1.13126">
        <ele>114.7</ele>
        <time>2016-02-07T08:17:34Z</time>
      </trkpt>
      <trkpt lat="49.01258" lon="1.13137">
        <ele>114.6</ele>
        <time>2016-02-07T08:17:36Z</time>
      </trkpt>
      <trkpt lat="49.01264" lon="1.13148">
        <ele>114.6</ele>
        <time>2016-02-07T08:17:38Z</time>
      </trkpt>
      <trkpt lat="49.01271" lon="1.13163">
        <ele>114.5</ele>
        <time>2016-02-07T08:17:41Z</time>
      </trkpt>
      <trkpt lat="49.01277" lon="1.13178">
        <ele>114.4</ele>
        <time>2016-02-07T08:17:44Z</time>
      </trkpt>
      <trkpt lat="49.01283" lon="1.13192">
        <ele>114.3</ele>
        <time>2016-02-07T08:17:48Z</time>
      </trkpt>
      <trkpt lat="49.01292" lon="1.13198">
        <ele>114.2</ele>
        <time>2016-02-07T08:17:54Z</time>
      </trkpt>
      <trkpt lat="49.01301" lon="1.13193">
        <ele>114.3</ele>
        <time>2016-02-07T08:17:58Z</time>
      </trkpt>
      <trkpt lat="49.0131" lon="1.1319">
        <ele>114.4</ele>
        <time>2016-02-07T08:18:03Z</time>
      </trkpt>
      <trkpt lat="49.01318" lon="1.13198">
        <ele>114.6</ele>
        <time>2016-02-07T08:18:10Z</time>
      </trkpt>
      <trkpt lat="49.01322" lon="1.13214">
        <ele>114.8</ele>
        <time>2016-02-07T08:18:16Z</time>
      </trkpt>
      <trkpt lat="49.01328" lon="1.13227">
        <ele>114.9</ele>
        <time>2016-02-07T08:18:20Z</time>
      </trkpt>
      <trkpt lat="49.01336" lon="1.13242">
        <ele>115</ele>
        <time>2016-02-07T08:18:23Z</time>
      </trkpt>
      <trkpt lat="49.01341" lon="1.13255">
        <ele>115.1</ele>
        <time>2016-02-07T08:18:26Z</time>
      </trkpt>
      <trkpt lat="49.0135" lon="1.13268">
        <ele>115.4</ele>
        <time>2016-02-07T08:18:30Z</time>
      </trkpt>
      <trkpt lat="49.01357" lon="1.13278">
        <ele>115.6</ele>
        <time>2016-02-07T08:18:33Z</time>
      </trkpt>
      <trkpt lat="49.01364" lon="1.1329">
        <ele>115.7</ele>
        <time>2016-02-07T08:18:36Z</time>
      </trkpt>
      <trkpt lat="49.01369" lon="1.13302">
        <ele>115.8</ele>
        <time>2016-02-07T08:18:39Z</time>
      </trkpt>
      <trkpt lat="49.01377" lon="1.13314">
        <ele>115.8</ele>
        <time>2016-02-07T08:18:42Z</time>
      </trkpt>
      <trkpt lat="49.01384" lon="1.13326">
        <ele>115.8</ele>
        <time>2016-02-07T08:18:45Z</time>
      </trkpt>
      <trkpt lat="49.01391" lon="1.13342">
        <ele>115.7</ele>
        <time>2016-02-07T08:18:49Z</time>
      </trkpt>
      <trkpt lat="49.01398" lon="1.13351">
        <ele>115.5</ele>
        <time>2016-02-07T08:18:52Z</time>
      </trkpt>
      <trkpt lat="49.01405" lon="1.13361">
        <ele>115.4</ele>
        <time>2016-02-07T08:18:55Z</time>
      </trkpt>
      <trkpt lat="49.01413" lon="1.13371">
        <ele>115.2</ele>
        <time>2016-02-07T08:18:58Z</time>
      </trkpt>
      <trkpt lat="49.0142" lon="1.13382">
        <ele>115</ele>
        <time>2016-02-07T08:19:01Z</time>
      </trkpt>
      <trkpt lat="49.01426" lon="1.13391">
        <ele>114.6</ele>
        <time>2016-02-07T08:19:04Z</time>
      </trkpt>
      <trkpt lat="49.01432" lon="1.13404">
        <ele>114.3</ele>
        <time>2016-02-07T08:19:07Z</time>
      </trkpt>
      <trkpt lat="49.0144" lon="1.13417">
        <ele>113.9</ele>
        <time>2016-02-07T08:19:11Z</time>
      </trkpt>
      <trkpt lat="49.01447" lon="1.13428">
        <ele>113.6</ele>
        <time>2016-02-07T08:19:15Z</time>
      </trkpt>
      <trkpt lat="49.01454" lon="1.13441">
        <ele>113.3</ele>
        <time>2016-02-07T08:19:18Z</time>
      </trkpt>
      <trkpt lat="49.01461" lon="1.13453">
        <ele>112.7</ele>
        <time>2016-02-07T08:19:21Z</time>
      </trkpt>
      <trkpt lat="49.01467" lon="1.13463">
        <ele>112.1</ele>
        <time>2016-02-07T08:19:24Z</time>
      </trkpt>
      <trkpt lat="49.01474" lon="1.13473">
        <ele>111.3</ele>
        <time>2016-02-07T08:19:28Z</time>
      </trkpt>
      <trkpt lat="49.0148" lon="1.13461">
        <ele>110.1</ele>
        <time>2016-02-07T08:19:35Z</time>
      </trkpt>
      <trkpt lat="49.01479" lon="1.13442">
        <ele>109.5</ele>
        <time>2016-02-07T08:19:39Z</time>
      </trkpt>
      <trkpt lat="49.01477" lon="1.13423">
        <ele>109.1</ele>
        <time>2016-02-07T08:19:42Z</time>
      </trkpt>
      <trkpt lat="49.01477" lon="1.13409">
        <ele>108.5</ele>
        <time>2016-02-07T08:19:46Z</time>
      </trkpt>
      <trkpt lat="49.01488" lon="1.13408">
        <ele>107.8</ele>
        <time>2016-02-07T08:19:51Z</time>
      </trkpt>
      <trkpt lat="49.01501" lon="1.13413">
        <ele>107.1</ele>
        <time>2016-02-07T08:19:54Z</time>
      </trkpt>
      <trkpt lat="49.01509" lon="1.13419">
        <ele>106.4</ele>
        <time>2016-02-07T08:19:57Z</time>
      </trkpt>
      <trkpt lat="49.01513" lon="1.13405">
        <ele>105</ele>
        <time>2016-02-07T08:20:03Z</time>
      </trkpt>
      <trkpt lat="49.01512" lon="1.13387">
        <ele>104.5</ele>
        <time>2016-02-07T08:20:06Z</time>
      </trkpt>
      <trkpt lat="49.01512" lon="1.13368">
        <ele>104</ele>
        <time>2016-02-07T08:20:09Z</time>
      </trkpt>
      <trkpt lat="49.01508" lon="1.13351">
        <ele>103.6</ele>
        <time>2016-02-07T08:20:12Z</time>
      </trkpt>
      <trkpt lat="49.01505" lon="1.13336">
        <ele>103.4</ele>
        <time>2016-02-07T08:20:14Z</time>
      </trkpt>
      <trkpt lat="49.01503" lon="1.13321">
        <ele>103.2</ele>
        <time>2016-02-07T08:20:16Z</time>
      </trkpt>
      <trkpt lat="49.01503" lon="1.13305">
        <ele>103</ele>
        <time>2016-02-07T08:20:18Z</time>
      </trkpt>
      <trkpt lat="49.01502" lon="1.13287">
        <ele>102.8</ele>
        <time>2016-02-07T08:20:20Z</time>
      </trkpt>
      <trkpt lat="49.01499" lon="1.13269">
        <ele>102.7</ele>
        <time>2016-02-07T08:20:22Z</time>
      </trkpt>
      <trkpt lat="49.01496" lon="1.13252">
        <ele>102.4</ele>
        <time>2016-02-07T08:20:24Z</time>
      </trkpt>
      <trkpt lat="49.01492" lon="1.13233">
        <ele>101.9</ele>
        <time>2016-02-07T08:20:26Z</time>
      </trkpt>
      <trkpt lat="49.01491" lon="1.13213">
        <ele>101.5</ele>
        <time>2016-02-07T08:20:28Z</time>
      </trkpt>
      <trkpt lat="49.01492" lon="1.13194">
        <ele>101.1</ele>
        <time>2016-02-07T08:20:30Z</time>
      </trkpt>
      <trkpt lat="49.0149" lon="1.1318">
        <ele>100.7</ele>
        <time>2016-02-07T08:20:32Z</time>
      </trkpt>
      <trkpt lat="49.0149" lon="1.13163">
        <ele>100.2</ele>
        <time>2016-02-07T08:20:34Z</time>
      </trkpt>
      <trkpt lat="49.01491" lon="1.13146">
        <ele>99.5</ele>
        <time>2016-02-07T08:20:36Z</time>
      </trkpt>
      <trkpt lat="49.01491" lon="1.13131">
        <ele>98.9</ele>
        <time>2016-02-07T08:20:38Z</time>
      </trkpt>
      <trkpt lat="49.01488" lon="1.13114">
        <ele>98.3</ele>
        <time>2016-02-07T08:20:40Z</time>
      </trkpt>
      <trkpt lat="49.0149" lon="1.13096">
        <ele>97.4</ele>
        <time>2016-02-07T08:20:43Z</time>
      </trkpt>
      <trkpt lat="49.01487" lon="1.13082">
        <ele>96.2</ele>
        <time>2016-02-07T08:20:47Z</time>
      </trkpt>
      <trkpt lat="49.01484" lon="1.13068">
        <ele>95.3</ele>
        <time>2016-02-07T08:20:50Z</time>
      </trkpt>
      <trkpt lat="49.01479" lon="1.13056">
        <ele>93.7</ele>
        <time>2016-02-07T08:20:55Z</time>
      </trkpt>
      <trkpt lat="49.01473" lon="1.1304">
        <ele>92</ele>
        <time>2016-02-07T08:20:59Z</time>
      </trkpt>
      <trkpt lat="49.01468" lon="1.13028">
        <ele>90.2</ele>
        <time>2016-02-07T08:21:03Z</time>
      </trkpt>
      <trkpt lat="49.01464" lon="1.13012">
        <ele>88.1</ele>
        <time>2016-02-07T08:21:09Z</time>
      </trkpt>
      <trkpt lat="49.0146" lon="1.12999">
        <ele>86.8</ele>
        <time>2016-02-07T08:21:13Z</time>
      </trkpt>
      <trkpt lat="49.01458" lon="1.12985">
        <ele>84.6</ele>
        <time>2016-02-07T08:21:25Z</time>
      </trkpt>
      <trkpt lat="49.01449" lon="1.12979">
        <ele>84.3</ele>
        <time>2016-02-07T08:21:38Z</time>
      </trkpt>
      <trkpt lat="49.01439" lon="1.12978">
        <ele>84.5</ele>
        <time>2016-02-07T08:21:43Z</time>
      </trkpt>
      <trkpt lat="49.0143" lon="1.12975">
        <ele>85</ele>
        <time>2016-02-07T08:21:48Z</time>
      </trkpt>
      <trkpt lat="49.0142" lon="1.12973">
        <ele>85.7</ele>
        <time>2016-02-07T08:21:53Z</time>
      </trkpt>
      <trkpt lat="49.0141" lon="1.1297">
        <ele>86.7</ele>
        <time>2016-02-07T08:21:59Z</time>
      </trkpt>
      <trkpt lat="49.014" lon="1.12968">
        <ele>87.9</ele>
        <time>2016-02-07T08:22:05Z</time>
      </trkpt>
      <trkpt lat="49.01389" lon="1.12968">
        <ele>89.1</ele>
        <time>2016-02-07T08:22:11Z</time>
      </trkpt>
      <trkpt lat="49.01379" lon="1.12968">
        <ele>90.4</ele>
        <time>2016-02-07T08:22:18Z</time>
      </trkpt>
      <trkpt lat="49.01369" lon="1.12968">
        <ele>91.5</ele>
        <time>2016-02-07T08:22:24Z</time>
      </trkpt>
      <trkpt lat="49.0136" lon="1.12968">
        <ele>92.8</ele>
        <time>2016-02-07T08:22:31Z</time>
      </trkpt>
      <trkpt lat="49.0135" lon="1.12968">
        <ele>94.4</ele>
        <time>2016-02-07T08:22:39Z</time>
      </trkpt>
      <trkpt lat="49.0134" lon="1.12965">
        <ele>95.5</ele>
        <time>2016-02-07T08:22:45Z</time>
      </trkpt>
      <trkpt lat="49.01331" lon="1.12966">
        <ele>97.5</ele>
        <time>2016-02-07T08:22:55Z</time>
      </trkpt>
      <trkpt lat="49.01323" lon="1.12972">
        <ele>98.5</ele>
        <time>2016-02-07T08:23:02Z</time>
      </trkpt>
      <trkpt lat="49.01313" lon="1.12979">
        <ele>99.6</ele>
        <time>2016-02-07T08:23:08Z</time>
      </trkpt>
      <trkpt lat="49.01303" lon="1.12984">
        <ele>101</ele>
        <time>2016-02-07T08:23:15Z</time>
      </trkpt>
      <trkpt lat="49.01295" lon="1.12991">
        <ele>102</ele>
        <time>2016-02-07T08:23:20Z</time>
      </trkpt>
      <trkpt lat="49.01288" lon="1.13001">
        <ele>103.6</ele>
        <time>2016-02-07T08:23:27Z</time>
      </trkpt>
      <trkpt lat="49.0128" lon="1.13011">
        <ele>104.7</ele>
        <time>2016-02-07T08:23:32Z</time>
      </trkpt>
      <trkpt lat="49.01272" lon="1.13001">
        <ele>106.8</ele>
        <time>2016-02-07T08:23:41Z</time>
      </trkpt>
      <trkpt lat="49.01266" lon="1.1299">
        <ele>108.2</ele>
        <time>2016-02-07T08:23:46Z</time>
      </trkpt>
      <trkpt lat="49.01262" lon="1.12976">
        <ele>109.4</ele>
        <time>2016-02-07T08:23:51Z</time>
      </trkpt>
      <trkpt lat="49.01258" lon="1.12962">
        <ele>110.7</ele>
        <time>2016-02-07T08:23:57Z</time>
      </trkpt>
      <trkpt lat="49.01252" lon="1.12953">
        <ele>111.8</ele>
        <time>2016-02-07T08:24:04Z</time>
      </trkpt>
      <trkpt lat="49.01261" lon="1.12944">
        <ele>114.3</ele>
        <time>2016-02-07T08:25:49Z</time>
      </trkpt>
      <trkpt lat="49.01269" lon="1.12934">
        <ele>114.3</ele>
        <time>2016-02-07T08:25:54Z</time>
      </trkpt>
      <trkpt lat="49.01278" lon="1.12921">
        <ele>114.3</ele>
        <time>2016-02-07T08:25:58Z</time>
      </trkpt>
      <trkpt lat="49.01287" lon="1.1291">
        <ele>114.3</ele>
        <time>2016-02-07T08:26:01Z</time>
      </trkpt>
      <trkpt lat="49.01295" lon="1.12899">
        <ele>114.3</ele>
        <time>2016-02-07T08:26:04Z</time>
      </trkpt>
      <trkpt lat="49.01302" lon="1.12887">
        <ele>114.3</ele>
        <time>2016-02-07T08:26:07Z</time>
      </trkpt>
      <trkpt lat="49.0131" lon="1.12878">
        <ele>114.3</ele>
        <time>2016-02-07T08:26:10Z</time>
      </trkpt>
      <trkpt lat="49.01317" lon="1.12867">
        <ele>114.3</ele>
        <time>2016-02-07T08:26:13Z</time>
      </trkpt>
      <trkpt lat="49.01325" lon="1.12858">
        <ele>114.3</ele>
        <time>2016-02-07T08:26:16Z</time>
      </trkpt>
      <trkpt lat="49.01333" lon="1.12847">
        <ele>114.3</ele>
        <time>2016-02-07T08:26:19Z</time>
      </trkpt>
      <trkpt lat="49.0134" lon="1.12838">
        <ele>114.3</ele>
        <time>2016-02-07T08:26:22Z</time>
      </trkpt>
      <trkpt lat="49.01348" lon="1.12828">
        <ele>114.2</ele>
        <time>2016-02-07T08:26:25Z</time>
      </trkpt>
      <trkpt lat="49.01354" lon="1.12817">
        <ele>114.2</ele>
        <time>2016-02-07T08:26:27Z</time>
      </trkpt>
      <trkpt lat="49.01362" lon="1.12807">
        <ele>114.1</ele>
        <time>2016-02-07T08:26:29Z</time>
      </trkpt>
      <trkpt lat="49.01371" lon="1.12796">
        <ele>113.9</ele>
        <time>2016-02-07T08:26:31Z</time>
      </trkpt>
      <trkpt lat="49.0138" lon="1.12783">
        <ele>113.6</ele>
        <time>2016-02-07T08:26:33Z</time>
      </trkpt>
      <trkpt lat="49.01389" lon="1.1277">
        <ele>112.8</ele>
        <time>2016-02-07T08:26:36Z</time>
      </trkpt>
      <trkpt lat="49.01397" lon="1.12762">
        <ele>112.2</ele>
        <time>2016-02-07T08:26:38Z</time>
      </trkpt>
      <trkpt lat="49.01405" lon="1.1275">
        <ele>111.1</ele>
        <time>2016-02-07T08:26:41Z</time>
      </trkpt>
      <trkpt lat="49.01414" lon="1.12745">
        <ele>109.3</ele>
        <time>2016-02-07T08:26:46Z</time>
      </trkpt>
      <trkpt lat="49.01421" lon="1.12755">
        <ele>108.1</ele>
        <time>2016-02-07T08:26:50Z</time>
      </trkpt>
      <trkpt lat="49.01425" lon="1.12769">
        <ele>106.8</ele>
        <time>2016-02-07T08:26:54Z</time>
      </trkpt>
      <trkpt lat="49.0143" lon="1.12786">
        <ele>105.6</ele>
        <time>2016-02-07T08:26:58Z</time>
      </trkpt>
      <trkpt lat="49.01434" lon="1.12803">
        <ele>104.6</ele>
        <time>2016-02-07T08:27:02Z</time>
      </trkpt>
      <trkpt lat="49.01438" lon="1.12816">
        <ele>103.7</ele>
        <time>2016-02-07T08:27:05Z</time>
      </trkpt>
      <trkpt lat="49.0144" lon="1.12833">
        <ele>102.9</ele>
        <time>2016-02-07T08:27:08Z</time>
      </trkpt>
      <trkpt lat="49.01444" lon="1.12848">
        <ele>101.9</ele>
        <time>2016-02-07T08:27:11Z</time>
      </trkpt>
      <trkpt lat="49.01447" lon="1.12863">
        <ele>100.9</ele>
        <time>2016-02-07T08:27:14Z</time>
      </trkpt>
      <trkpt lat="49.0145" lon="1.12876">
        <ele>100.1</ele>
        <time>2016-02-07T08:27:17Z</time>
      </trkpt>
      <trkpt lat="49.01454" lon="1.12889">
        <ele>99.3</ele>
        <time>2016-02-07T08:27:20Z</time>
      </trkpt>
      <trkpt lat="49.01458" lon="1.12907">
        <ele>98.1</ele>
        <time>2016-02-07T08:27:24Z</time>
      </trkpt>
      <trkpt lat="49.01464" lon="1.12893">
        <ele>95</ele>
        <time>2016-02-07T08:27:34Z</time>
      </trkpt>
      <trkpt lat="49.01465" lon="1.12875">
        <ele>93.9</ele>
        <time>2016-02-07T08:27:37Z</time>
      </trkpt>
      <trkpt lat="49.01467" lon="1.1286">
        <ele>93.2</ele>
        <time>2016-02-07T08:27:39Z</time>
      </trkpt>
      <trkpt lat="49.01469" lon="1.12846">
        <ele>92.5</ele>
        <time>2016-02-07T08:27:41Z</time>
      </trkpt>
      <trkpt lat="49.01469" lon="1.12831">
        <ele>91.8</ele>
        <time>2016-02-07T08:27:43Z</time>
      </trkpt>
      <trkpt lat="49.0147" lon="1.12815">
        <ele>90.6</ele>
        <time>2016-02-07T08:27:46Z</time>
      </trkpt>
      <trkpt lat="49.01471" lon="1.12801">
        <ele>89.4</ele>
        <time>2016-02-07T08:27:49Z</time>
      </trkpt>
      <trkpt lat="49.01471" lon="1.12786">
        <ele>88.1</ele>
        <time>2016-02-07T08:27:52Z</time>
      </trkpt>
      <trkpt lat="49.01473" lon="1.12767">
        <ele>86.5</ele>
        <time>2016-02-07T08:27:56Z</time>
      </trkpt>
      <trkpt lat="49.01475" lon="1.12753">
        <ele>85.3</ele>
        <time>2016-02-07T08:27:59Z</time>
      </trkpt>
      <trkpt lat="49.01477" lon="1.12736">
        <ele>83.6</ele>
        <time>2016-02-07T08:28:03Z</time>
      </trkpt>
      <trkpt lat="49.01477" lon="1.12719">
        <ele>82.1</ele>
        <time>2016-02-07T08:28:07Z</time>
      </trkpt>
      <trkpt lat="49.01481" lon="1.12706">
        <ele>74.8</ele>
        <time>2016-02-07T08:32:21Z</time>
      </trkpt>
      <trkpt lat="49.01488" lon="1.12696">
        <ele>75</ele>
        <time>2016-02-07T08:36:29Z</time>
      </trkpt>
      <trkpt lat="49.01486" lon="1.12681">
        <ele>74.8</ele>
        <time>2016-02-07T08:36:35Z</time>
      </trkpt>
      <trkpt lat="49.01484" lon="1.12663">
        <ele>74.6</ele>
        <time>2016-02-07T08:36:39Z</time>
      </trkpt>
      <trkpt lat="49.01481" lon="1.1265">
        <ele>74.6</ele>
        <time>2016-02-07T08:36:43Z</time>
      </trkpt>
      <trkpt lat="49.01479" lon="1.12633">
        <ele>74.6</ele>
        <time>2016-02-07T08:36:46Z</time>
      </trkpt>
      <trkpt lat="49.01479" lon="1.12616">
        <ele>74.6</ele>
        <time>2016-02-07T08:36:49Z</time>
      </trkpt>
      <trkpt lat="49.01478" lon="1.12599">
        <ele>74.6</ele>
        <time>2016-02-07T08:36:52Z</time>
      </trkpt>
      <trkpt lat="49.01477" lon="1.12583">
        <ele>74.6</ele>
        <time>2016-02-07T08:36:55Z</time>
      </trkpt>
      <trkpt lat="49.01475" lon="1.12569">
        <ele>74.7</ele>
        <time>2016-02-07T08:36:58Z</time>
      </trkpt>
      <trkpt lat="49.01468" lon="1.12558">
        <ele>74.8</ele>
        <time>2016-02-07T08:37:02Z</time>
      </trkpt>
      <trkpt lat="49.0146" lon="1.12551">
        <ele>75.5</ele>
        <time>2016-02-07T08:37:07Z</time>
      </trkpt>
      <trkpt lat="49.01452" lon="1.12539">
        <ele>76.4</ele>
        <time>2016-02-07T08:37:12Z</time>
      </trkpt>
      <trkpt lat="49.01445" lon="1.12527">
        <ele>77.5</ele>
        <time>2016-02-07T08:37:17Z</time>
      </trkpt>
      <trkpt lat="49.0144" lon="1.12515">
        <ele>78.3</ele>
        <time>2016-02-07T08:37:21Z</time>
      </trkpt>
      <trkpt lat="49.01437" lon="1.125">
        <ele>79.9</ele>
        <time>2016-02-07T08:37:28Z</time>
      </trkpt>
      <trkpt lat="49.01435" lon="1.12486">
        <ele>81.3</ele>
        <time>2016-02-07T08:37:34Z</time>
      </trkpt>
      <trkpt lat="49.01432" lon="1.12473">
        <ele>83.1</ele>
        <time>2016-02-07T08:37:41Z</time>
      </trkpt>
      <trkpt lat="49.01425" lon="1.1246">
        <ele>85.2</ele>
        <time>2016-02-07T08:37:48Z</time>
      </trkpt>
      <trkpt lat="49.01421" lon="1.12446">
        <ele>87.4</ele>
        <time>2016-02-07T08:37:55Z</time>
      </trkpt>
      <trkpt lat="49.01412" lon="1.12437">
        <ele>89.3</ele>
        <time>2016-02-07T08:38:02Z</time>
      </trkpt>
      <trkpt lat="49.01403" lon="1.12428">
        <ele>91.1</ele>
        <time>2016-02-07T08:38:09Z</time>
      </trkpt>
      <trkpt lat="49.01397" lon="1.12418">
        <ele>92.8</ele>
        <time>2016-02-07T08:38:16Z</time>
      </trkpt>
      <trkpt lat="49.01392" lon="1.12404">
        <ele>94.4</ele>
        <time>2016-02-07T08:38:23Z</time>
      </trkpt>
      <trkpt lat="49.01385" lon="1.12395">
        <ele>95.9</ele>
        <time>2016-02-07T08:38:29Z</time>
      </trkpt>
      <trkpt lat="49.01376" lon="1.12388">
        <ele>97.7</ele>
        <time>2016-02-07T08:38:36Z</time>
      </trkpt>
      <trkpt lat="49.01368" lon="1.12383">
        <ele>99.6</ele>
        <time>2016-02-07T08:38:43Z</time>
      </trkpt>
      <trkpt lat="49.01361" lon="1.12373">
        <ele>101.2</ele>
        <time>2016-02-07T08:38:49Z</time>
      </trkpt>
      <trkpt lat="49.01352" lon="1.12366">
        <ele>102.9</ele>
        <time>2016-02-07T08:38:55Z</time>
      </trkpt>
      <trkpt lat="49.01344" lon="1.12357">
        <ele>104.6</ele>
        <time>2016-02-07T08:39:01Z</time>
      </trkpt>
      <trkpt lat="49.01336" lon="1.12351">
        <ele>106.7</ele>
        <time>2016-02-07T08:39:08Z</time>
      </trkpt>
      <trkpt lat="49.01332" lon="1.12339">
        <ele>109.3</ele>
        <time>2016-02-07T08:39:21Z</time>
      </trkpt>
      <trkpt lat="49.01333" lon="1.12355">
        <ele>111.5</ele>
        <time>2016-02-07T08:42:09Z</time>
      </trkpt>
      <trkpt lat="49.01326" lon="1.12368">
        <ele>111.4</ele>
        <time>2016-02-07T08:42:14Z</time>
      </trkpt>
      <trkpt lat="49.01316" lon="1.12375">
        <ele>111.4</ele>
        <time>2016-02-07T08:42:18Z</time>
      </trkpt>
      <trkpt lat="49.01307" lon="1.12381">
        <ele>111.4</ele>
        <time>2016-02-07T08:42:22Z</time>
      </trkpt>
      <trkpt lat="49.01296" lon="1.12387">
        <ele>111.6</ele>
        <time>2016-02-07T08:42:26Z</time>
      </trkpt>
      <trkpt lat="49.01286" lon="1.12393">
        <ele>111.8</ele>
        <time>2016-02-07T08:42:30Z</time>
      </trkpt>
      <trkpt lat="49.01275" lon="1.124">
        <ele>112.1</ele>
        <time>2016-02-07T08:42:33Z</time>
      </trkpt>
      <trkpt lat="49.01266" lon="1.12404">
        <ele>112.5</ele>
        <time>2016-02-07T08:42:36Z</time>
      </trkpt>
      <trkpt lat="49.01257" lon="1.12408">
        <ele>112.8</ele>
        <time>2016-02-07T08:42:39Z</time>
      </trkpt>
      <trkpt lat="49.01248" lon="1.12414">
        <ele>113.2</ele>
        <time>2016-02-07T08:42:42Z</time>
      </trkpt>
      <trkpt lat="49.01237" lon="1.12419">
        <ele>113.6</ele>
        <time>2016-02-07T08:42:46Z</time>
      </trkpt>
      <trkpt lat="49.01228" lon="1.12425">
        <ele>114.1</ele>
        <time>2016-02-07T08:42:50Z</time>
      </trkpt>
      <trkpt lat="49.01219" lon="1.12432">
        <ele>114.5</ele>
        <time>2016-02-07T08:42:53Z</time>
      </trkpt>
      <trkpt lat="49.01209" lon="1.12434">
        <ele>114.9</ele>
        <time>2016-02-07T08:42:57Z</time>
      </trkpt>
      <trkpt lat="49.012" lon="1.12441">
        <ele>115.2</ele>
        <time>2016-02-07T08:43:00Z</time>
      </trkpt>
      <trkpt lat="49.01192" lon="1.12447">
        <ele>115.6</ele>
        <time>2016-02-07T08:43:03Z</time>
      </trkpt>
      <trkpt lat="49.01184" lon="1.12453">
        <ele>116.1</ele>
        <time>2016-02-07T08:43:07Z</time>
      </trkpt>
      <trkpt lat="49.01174" lon="1.12458">
        <ele>116.5</ele>
        <time>2016-02-07T08:43:12Z</time>
      </trkpt>
      <trkpt lat="49.01164" lon="1.12462">
        <ele>116.7</ele>
        <time>2016-02-07T08:43:15Z</time>
      </trkpt>
      <trkpt lat="49.01155" lon="1.12468">
        <ele>116.9</ele>
        <time>2016-02-07T08:43:18Z</time>
      </trkpt>
      <trkpt lat="49.01149" lon="1.12481">
        <ele>117.1</ele>
        <time>2016-02-07T08:43:21Z</time>
      </trkpt>
      <trkpt lat="49.0115" lon="1.12497">
        <ele>117.2</ele>
        <time>2016-02-07T08:43:24Z</time>
      </trkpt>
      <trkpt lat="49.01154" lon="1.12514">
        <ele>117.4</ele>
        <time>2016-02-07T08:43:27Z</time>
      </trkpt>
      <trkpt lat="49.01156" lon="1.12531">
        <ele>117.5</ele>
        <time>2016-02-07T08:43:30Z</time>
      </trkpt>
      <trkpt lat="49.01161" lon="1.12545">
        <ele>117.7</ele>
        <time>2016-02-07T08:43:33Z</time>
      </trkpt>
      <trkpt lat="49.01163" lon="1.12558">
        <ele>117.7</ele>
        <time>2016-02-07T08:43:35Z</time>
      </trkpt>
      <trkpt lat="49.01166" lon="1.12571">
        <ele>117.8</ele>
        <time>2016-02-07T08:43:37Z</time>
      </trkpt>
      <trkpt lat="49.0117" lon="1.1259">
        <ele>117.9</ele>
        <time>2016-02-07T08:43:40Z</time>
      </trkpt>
      <trkpt lat="49.01173" lon="1.12605">
        <ele>117.9</ele>
        <time>2016-02-07T08:43:42Z</time>
      </trkpt>
      <trkpt lat="49.01177" lon="1.1262">
        <ele>118</ele>
        <time>2016-02-07T08:43:44Z</time>
      </trkpt>
      <trkpt lat="49.01179" lon="1.12638">
        <ele>118</ele>
        <time>2016-02-07T08:43:47Z</time>
      </trkpt>
      <trkpt lat="49.01184" lon="1.12655">
        <ele>118.1</ele>
        <time>2016-02-07T08:43:50Z</time>
      </trkpt>
      <trkpt lat="49.0119" lon="1.12674">
        <ele>118.1</ele>
        <time>2016-02-07T08:43:53Z</time>
      </trkpt>
      <trkpt lat="49.01191" lon="1.1269">
        <ele>118.1</ele>
        <time>2016-02-07T08:43:55Z</time>
      </trkpt>
      <trkpt lat="49.01195" lon="1.12703">
        <ele>118.2</ele>
        <time>2016-02-07T08:43:57Z</time>
      </trkpt>
      <trkpt lat="49.012" lon="1.12717">
        <ele>118.2</ele>
        <time>2016-02-07T08:43:59Z</time>
      </trkpt>
      <trkpt lat="49.01204" lon="1.12736">
        <ele>118.2</ele>
        <time>2016-02-07T08:44:02Z</time>
      </trkpt>
      <trkpt lat="49.01206" lon="1.12749">
        <ele>118.2</ele>
        <time>2016-02-07T08:44:04Z</time>
      </trkpt>
      <trkpt lat="49.01211" lon="1.12763">
        <ele>118</ele>
        <time>2016-02-07T08:44:06Z</time>
      </trkpt>
      <trkpt lat="49.01214" lon="1.1278">
        <ele>117.8</ele>
        <time>2016-02-07T08:44:09Z</time>
      </trkpt>
      <trkpt lat="49.01213" lon="1.12796">
        <ele>117.5</ele>
        <time>2016-02-07T08:44:12Z</time>
      </trkpt>
      <trkpt lat="49.01205" lon="1.12803">
        <ele>117.2</ele>
        <time>2016-02-07T08:44:15Z</time>
      </trkpt>
      <trkpt lat="49.01196" lon="1.12811">
        <ele>116.9</ele>
        <time>2016-02-07T08:44:20Z</time>
      </trkpt>
      <trkpt lat="49.01188" lon="1.12821">
        <ele>116.7</ele>
        <time>2016-02-07T08:44:24Z</time>
      </trkpt>
      <trkpt lat="49.01182" lon="1.12831">
        <ele>116.6</ele>
        <time>2016-02-07T08:44:27Z</time>
      </trkpt>
      <trkpt lat="49.01174" lon="1.12845">
        <ele>116.5</ele>
        <time>2016-02-07T08:44:30Z</time>
      </trkpt>
      <trkpt lat="49.01168" lon="1.12857">
        <ele>116.4</ele>
        <time>2016-02-07T08:44:33Z</time>
      </trkpt>
      <trkpt lat="49.01162" lon="1.12868">
        <ele>116.3</ele>
        <time>2016-02-07T08:44:36Z</time>
      </trkpt>
      <trkpt lat="49.01156" lon="1.12882">
        <ele>116.4</ele>
        <time>2016-02-07T08:44:39Z</time>
      </trkpt>
      <trkpt lat="49.01149" lon="1.12896">
        <ele>116.4</ele>
        <time>2016-02-07T08:44:42Z</time>
      </trkpt>
      <trkpt lat="49.01144" lon="1.12907">
        <ele>116.4</ele>
        <time>2016-02-07T08:44:46Z</time>
      </trkpt>
      <trkpt lat="49.01134" lon="1.12911">
        <ele>116.4</ele>
        <time>2016-02-07T08:44:50Z</time>
      </trkpt>
      <trkpt lat="49.01125" lon="1.12908">
        <ele>116.5</ele>
        <time>2016-02-07T08:44:56Z</time>
      </trkpt>
      <trkpt lat="49.01116" lon="1.12903">
        <ele>116.5</ele>
        <time>2016-02-07T08:45:00Z</time>
      </trkpt>
      <trkpt lat="49.01107" lon="1.12894">
        <ele>116.5</ele>
        <time>2016-02-07T08:45:05Z</time>
      </trkpt>
      <trkpt lat="49.011" lon="1.12883">
        <ele>116.6</ele>
        <time>2016-02-07T08:45:10Z</time>
      </trkpt>
      <trkpt lat="49.01092" lon="1.12873">
        <ele>116.8</ele>
        <time>2016-02-07T08:45:14Z</time>
      </trkpt>
      <trkpt lat="49.01084" lon="1.12862">
        <ele>117.1</ele>
        <time>2016-02-07T08:45:18Z</time>
      </trkpt>
      <trkpt lat="49.01077" lon="1.12853">
        <ele>117.3</ele>
        <time>2016-02-07T08:45:22Z</time>
      </trkpt>
      <trkpt lat="49.0107" lon="1.12843">
        <ele>117.5</ele>
        <time>2016-02-07T08:45:26Z</time>
      </trkpt>
      <trkpt lat="49.01063" lon="1.12832">
        <ele>117.7</ele>
        <time>2016-02-07T08:45:30Z</time>
      </trkpt>
      <trkpt lat="49.01055" lon="1.1282">
        <ele>117.8</ele>
        <time>2016-02-07T08:45:35Z</time>
      </trkpt>
      <trkpt lat="49.01052" lon="1.12806">
        <ele>118.1</ele>
        <time>2016-02-07T08:45:41Z</time>
      </trkpt>
      <trkpt lat="49.01056" lon="1.12793">
        <ele>118.2</ele>
        <time>2016-02-07T08:45:45Z</time>
      </trkpt>
      <trkpt lat="49.0106" lon="1.12778">
        <ele>118.4</ele>
        <time>2016-02-07T08:45:51Z</time>
      </trkpt>
      <trkpt lat="49.01066" lon="1.12768">
        <ele>118.5</ele>
        <time>2016-02-07T08:45:57Z</time>
      </trkpt>
      <trkpt lat="49.01073" lon="1.12759">
        <ele>118.6</ele>
        <time>2016-02-07T08:46:03Z</time>
      </trkpt>
      <trkpt lat="49.0108" lon="1.12745">
        <ele>118.6</ele>
        <time>2016-02-07T08:46:09Z</time>
      </trkpt>
      <trkpt lat="49.01083" lon="1.12733">
        <ele>118.6</ele>
        <time>2016-02-07T08:46:12Z</time>
      </trkpt>
      <trkpt lat="49.01084" lon="1.12718">
        <ele>118.6</ele>
        <time>2016-02-07T08:46:16Z</time>
      </trkpt>
      <trkpt lat="49.01084" lon="1.12703">
        <ele>118.6</ele>
        <time>2016-02-07T08:46:21Z</time>
      </trkpt>
      <trkpt lat="49.01084" lon="1.12686">
        <ele>118.6</ele>
        <time>2016-02-07T08:46:26Z</time>
      </trkpt>
      <trkpt lat="49.01086" lon="1.12672">
        <ele>118.6</ele>
        <time>2016-02-07T08:46:30Z</time>
      </trkpt>
      <trkpt lat="49.01086" lon="1.12656">
        <ele>118.6</ele>
        <time>2016-02-07T08:46:35Z</time>
      </trkpt>
      <trkpt lat="49.01089" lon="1.1264">
        <ele>118.6</ele>
        <time>2016-02-07T08:46:38Z</time>
      </trkpt>
      <trkpt lat="49.01088" lon="1.12624">
        <ele>118.6</ele>
        <time>2016-02-07T08:46:43Z</time>
      </trkpt>
      <trkpt lat="49.01086" lon="1.12609">
        <ele>118.6</ele>
        <time>2016-02-07T08:46:47Z</time>
      </trkpt>
      <trkpt lat="49.01088" lon="1.12594">
        <ele>118.6</ele>
        <time>2016-02-07T08:46:51Z</time>
      </trkpt>
      <trkpt lat="49.01089" lon="1.12576">
        <ele>118.7</ele>
        <time>2016-02-07T08:46:54Z</time>
      </trkpt>
      <trkpt lat="49.01094" lon="1.12563">
        <ele>118.6</ele>
        <time>2016-02-07T08:46:57Z</time>
      </trkpt>
      <trkpt lat="49.01091" lon="1.12546">
        <ele>118.4</ele>
        <time>2016-02-07T08:47:01Z</time>
      </trkpt>
      <trkpt lat="49.01088" lon="1.12532">
        <ele>118.2</ele>
        <time>2016-02-07T08:47:05Z</time>
      </trkpt>
      <trkpt lat="49.01081" lon="1.12521">
        <ele>118.1</ele>
        <time>2016-02-07T08:47:09Z</time>
      </trkpt>
      <trkpt lat="49.01073" lon="1.12529">
        <ele>118</ele>
        <time>2016-02-07T08:47:14Z</time>
      </trkpt>
      <trkpt lat="49.01064" lon="1.12534">
        <ele>118</ele>
        <time>2016-02-07T08:47:19Z</time>
      </trkpt>
      <trkpt lat="49.01059" lon="1.12546">
        <ele>118</ele>
        <time>2016-02-07T08:47:23Z</time>
      </trkpt>
      <trkpt lat="49.01056" lon="1.12561">
        <ele>118.1</ele>
        <time>2016-02-07T08:47:28Z</time>
      </trkpt>
      <trkpt lat="49.0105" lon="1.12576">
        <ele>118.2</ele>
        <time>2016-02-07T08:47:32Z</time>
      </trkpt>
      <trkpt lat="49.01046" lon="1.1259">
        <ele>118.3</ele>
        <time>2016-02-07T08:47:36Z</time>
      </trkpt>
      <trkpt lat="49.01042" lon="1.12604">
        <ele>118.5</ele>
        <time>2016-02-07T08:47:40Z</time>
      </trkpt>
      <trkpt lat="49.01037" lon="1.12618">
        <ele>118.8</ele>
        <time>2016-02-07T08:47:44Z</time>
      </trkpt>
      <trkpt lat="49.01031" lon="1.12634">
        <ele>118.9</ele>
        <time>2016-02-07T08:47:48Z</time>
      </trkpt>
      <trkpt lat="49.01027" lon="1.12648">
        <ele>119.1</ele>
        <time>2016-02-07T08:47:52Z</time>
      </trkpt>
      <trkpt lat="49.01022" lon="1.12664">
        <ele>119.2</ele>
        <time>2016-02-07T08:47:56Z</time>
      </trkpt>
      <trkpt lat="49.01017" lon="1.1268">
        <ele>119.4</ele>
        <time>2016-02-07T08:47:59Z</time>
      </trkpt>
      <trkpt lat="49.01012" lon="1.12692">
        <ele>119.5</ele>
        <time>2016-02-07T08:48:01Z</time>
      </trkpt>
      <trkpt lat="49.01008" lon="1.12708">
        <ele>119.6</ele>
        <time>2016-02-07T08:48:04Z</time>
      </trkpt>
      <trkpt lat="49.01004" lon="1.12722">
        <ele>119.7</ele>
        <time>2016-02-07T08:48:07Z</time>
      </trkpt>
      <trkpt lat="49.01002" lon="1.12736">
        <ele>119.8</ele>
        <time>2016-02-07T08:48:11Z</time>
      </trkpt>
      <trkpt lat="49.00993" lon="1.12747">
        <ele>120</ele>
        <time>2016-02-07T08:48:22Z</time>
      </trkpt>
      <trkpt lat="49.00983" lon="1.12744">
        <ele>120</ele>
        <time>2016-02-07T08:48:28Z</time>
      </trkpt>
      <trkpt lat="49.00974" lon="1.12742">
        <ele>120.1</ele>
        <time>2016-02-07T08:48:32Z</time>
      </trkpt>
      <trkpt lat="49.00963" lon="1.12743">
        <ele>120.1</ele>
        <time>2016-02-07T08:48:36Z</time>
      </trkpt>
      <trkpt lat="49.00953" lon="1.12746">
        <ele>120.1</ele>
        <time>2016-02-07T08:48:41Z</time>
      </trkpt>
      <trkpt lat="49.00944" lon="1.12746">
        <ele>120.1</ele>
        <time>2016-02-07T08:48:50Z</time>
      </trkpt>
      <trkpt lat="49.00934" lon="1.12748">
        <ele>120.3</ele>
        <time>2016-02-07T08:48:56Z</time>
      </trkpt>
      <trkpt lat="49.00924" lon="1.12747">
        <ele>120.5</ele>
        <time>2016-02-07T08:49:02Z</time>
      </trkpt>
      <trkpt lat="49.00915" lon="1.12745">
        <ele>120.6</ele>
        <time>2016-02-07T08:49:07Z</time>
      </trkpt>
      <trkpt lat="49.00904" lon="1.12744">
        <ele>120.7</ele>
        <time>2016-02-07T08:49:13Z</time>
      </trkpt>
      <trkpt lat="49.00894" lon="1.12745">
        <ele>120.8</ele>
        <time>2016-02-07T08:49:18Z</time>
      </trkpt>
      <trkpt lat="49.00884" lon="1.12746">
        <ele>121</ele>
        <time>2016-02-07T08:49:27Z</time>
      </trkpt>
      <trkpt lat="49.00882" lon="1.12761">
        <ele>121.1</ele>
        <time>2016-02-07T08:49:33Z</time>
      </trkpt>
      <trkpt lat="49.00883" lon="1.12775">
        <ele>121.1</ele>
        <time>2016-02-07T08:49:38Z</time>
      </trkpt>
      <trkpt lat="49.00887" lon="1.12788">
        <ele>121.2</ele>
        <time>2016-02-07T08:49:42Z</time>
      </trkpt>
      <trkpt lat="49.00881" lon="1.12799">
        <ele>121.2</ele>
        <time>2016-02-07T08:49:52Z</time>
      </trkpt>
      <trkpt lat="49.00871" lon="1.12796">
        <ele>121.2</ele>
        <time>2016-02-07T08:49:56Z</time>
      </trkpt>
      <trkpt lat="49.0086" lon="1.12794">
        <ele>121.2</ele>
        <time>2016-02-07T08:50:00Z</time>
      </trkpt>
      <trkpt lat="49.00851" lon="1.12791">
        <ele>121.3</ele>
        <time>2016-02-07T08:50:04Z</time>
      </trkpt>
      <trkpt lat="49.00841" lon="1.12788">
        <ele>121.3</ele>
        <time>2016-02-07T08:50:08Z</time>
      </trkpt>
      <trkpt lat="49.00831" lon="1.12785">
        <ele>121.3</ele>
        <time>2016-02-07T08:50:14Z</time>
      </trkpt>
      <trkpt lat="49.00821" lon="1.1278">
        <ele>121.4</ele>
        <time>2016-02-07T08:50:19Z</time>
      </trkpt>
      <trkpt lat="49.00811" lon="1.12776">
        <ele>121.4</ele>
        <time>2016-02-07T08:50:24Z</time>
      </trkpt>
      <trkpt lat="49.00802" lon="1.12774">
        <ele>121.4</ele>
        <time>2016-02-07T08:50:33Z</time>
      </trkpt>
      <trkpt lat="49.00801" lon="1.12758">
        <ele>121.4</ele>
        <time>2016-02-07T08:50:45Z</time>
      </trkpt>
      <trkpt lat="49.00805" lon="1.12743">
        <ele>121.4</ele>
        <time>2016-02-07T08:50:49Z</time>
      </trkpt>
      <trkpt lat="49.0081" lon="1.12728">
        <ele>121.5</ele>
        <time>2016-02-07T08:50:53Z</time>
      </trkpt>
      <trkpt lat="49.00816" lon="1.12714">
        <ele>121.6</ele>
        <time>2016-02-07T08:50:57Z</time>
      </trkpt>
      <trkpt lat="49.0082" lon="1.12699">
        <ele>121.8</ele>
        <time>2016-02-07T08:51:02Z</time>
      </trkpt>
      <trkpt lat="49.00825" lon="1.12683">
        <ele>122.1</ele>
        <time>2016-02-07T08:51:07Z</time>
      </trkpt>
      <trkpt lat="49.0083" lon="1.12669">
        <ele>122.3</ele>
        <time>2016-02-07T08:51:12Z</time>
      </trkpt>
      <trkpt lat="49.00834" lon="1.12656">
        <ele>122.4</ele>
        <time>2016-02-07T08:51:16Z</time>
      </trkpt>
      <trkpt lat="49.00842" lon="1.12648">
        <ele>122.5</ele>
        <time>2016-02-07T08:51:19Z</time>
      </trkpt>
      <trkpt lat="49.00853" lon="1.12641">
        <ele>122.6</ele>
        <time>2016-02-07T08:51:22Z</time>
      </trkpt>
      <trkpt lat="49.00864" lon="1.12632">
        <ele>122.7</ele>
        <time>2016-02-07T08:51:25Z</time>
      </trkpt>
      <trkpt lat="49.00875" lon="1.12623">
        <ele>122.7</ele>
        <time>2016-02-07T08:51:28Z</time>
      </trkpt>
      <trkpt lat="49.00884" lon="1.12619">
        <ele>122.8</ele>
        <time>2016-02-07T08:51:31Z</time>
      </trkpt>
      <trkpt lat="49.00894" lon="1.12608">
        <ele>122.8</ele>
        <time>2016-02-07T08:51:35Z</time>
      </trkpt>
      <trkpt lat="49.00889" lon="1.12596">
        <ele>122.9</ele>
        <time>2016-02-07T08:51:39Z</time>
      </trkpt>
      <trkpt lat="49.0088" lon="1.12585">
        <ele>122.9</ele>
        <time>2016-02-07T08:51:43Z</time>
      </trkpt>
      <trkpt lat="49.00873" lon="1.12576">
        <ele>122.9</ele>
        <time>2016-02-07T08:51:46Z</time>
      </trkpt>
      <trkpt lat="49.00868" lon="1.12564">
        <ele>122.9</ele>
        <time>2016-02-07T08:51:51Z</time>
      </trkpt>
      <trkpt lat="49.00871" lon="1.1255">
        <ele>123</ele>
        <time>2016-02-07T08:52:58Z</time>
      </trkpt>
      <trkpt lat="49.00875" lon="1.12536">
        <ele>123</ele>
        <time>2016-02-07T08:53:02Z</time>
      </trkpt>
      <trkpt lat="49.00881" lon="1.12523">
        <ele>123</ele>
        <time>2016-02-07T08:53:06Z</time>
      </trkpt>
      <trkpt lat="49.00886" lon="1.12511">
        <ele>123</ele>
        <time>2016-02-07T08:53:09Z</time>
      </trkpt>
      <trkpt lat="49.00891" lon="1.12498">
        <ele>123</ele>
        <time>2016-02-07T08:53:12Z</time>
      </trkpt>
      <trkpt lat="49.00895" lon="1.12486">
        <ele>123</ele>
        <time>2016-02-07T08:53:15Z</time>
      </trkpt>
      <trkpt lat="49.009" lon="1.12473">
        <ele>123</ele>
        <time>2016-02-07T08:53:18Z</time>
      </trkpt>
      <trkpt lat="49.00905" lon="1.12459">
        <ele>123</ele>
        <time>2016-02-07T08:53:22Z</time>
      </trkpt>
      <trkpt lat="49.0091" lon="1.12446">
        <ele>122.9</ele>
        <time>2016-02-07T08:53:25Z</time>
      </trkpt>
      <trkpt lat="49.00915" lon="1.12435">
        <ele>122.9</ele>
        <time>2016-02-07T08:53:28Z</time>
      </trkpt>
      <trkpt lat="49.0092" lon="1.12422">
        <ele>122.6</ele>
        <time>2016-02-07T08:53:31Z</time>
      </trkpt>
      <trkpt lat="49.00924" lon="1.12406">
        <ele>122.5</ele>
        <time>2016-02-07T08:53:34Z</time>
      </trkpt>
      <trkpt lat="49.00929" lon="1.12394">
        <ele>122.2</ele>
        <time>2016-02-07T08:53:37Z</time>
      </trkpt>
      <trkpt lat="49.00934" lon="1.12379">
        <ele>122</ele>
        <time>2016-02-07T08:53:40Z</time>
      </trkpt>
      <trkpt lat="49.00939" lon="1.12365">
        <ele>121.8</ele>
        <time>2016-02-07T08:53:43Z</time>
      </trkpt>
      <trkpt lat="49.00944" lon="1.12351">
        <ele>121.5</ele>
        <time>2016-02-07T08:53:46Z</time>
      </trkpt>
      <trkpt lat="49.00949" lon="1.12337">
        <ele>121</ele>
        <time>2016-02-07T08:53:49Z</time>
      </trkpt>
      <trkpt lat="49.00953" lon="1.12325">
        <ele>120.5</ele>
        <time>2016-02-07T08:53:53Z</time>
      </trkpt>
      <trkpt lat="49.00955" lon="1.12311">
        <ele>119.5</ele>
        <time>2016-02-07T08:54:03Z</time>
      </trkpt>
      <trkpt lat="49.0096" lon="1.12298">
        <ele>118.7</ele>
        <time>2016-02-07T08:54:16Z</time>
      </trkpt>
      <trkpt lat="49.00963" lon="1.12286">
        <ele>118.4</ele>
        <time>2016-02-07T08:54:23Z</time>
      </trkpt>
      <trkpt lat="49.00968" lon="1.12271">
        <ele>118.2</ele>
        <time>2016-02-07T08:54:28Z</time>
      </trkpt>
      <trkpt lat="49.00973" lon="1.12259">
        <ele>117.9</ele>
        <time>2016-02-07T08:54:32Z</time>
      </trkpt>
      <trkpt lat="49.00978" lon="1.12246">
        <ele>117.8</ele>
        <time>2016-02-07T08:54:36Z</time>
      </trkpt>
      <trkpt lat="49.00982" lon="1.12232">
        <ele>117.7</ele>
        <time>2016-02-07T08:54:40Z</time>
      </trkpt>
      <trkpt lat="49.00987" lon="1.1222">
        <ele>117.6</ele>
        <time>2016-02-07T08:54:44Z</time>
      </trkpt>
      <trkpt lat="49.00992" lon="1.12204">
        <ele>117.5</ele>
        <time>2016-02-07T08:54:49Z</time>
      </trkpt>
      <trkpt lat="49.00997" lon="1.1219">
        <ele>117.6</ele>
        <time>2016-02-07T08:54:55Z</time>
      </trkpt>
      <trkpt lat="49.01002" lon="1.12175">
        <ele>117.3</ele>
        <time>2016-02-07T08:55:15Z</time>
      </trkpt>
      <trkpt lat="49.01012" lon="1.12164">
        <ele>117.3</ele>
        <time>2016-02-07T08:55:19Z</time>
      </trkpt>
      <trkpt lat="49.01021" lon="1.12149">
        <ele>117.2</ele>
        <time>2016-02-07T08:55:22Z</time>
      </trkpt>
      <trkpt lat="49.01027" lon="1.12135">
        <ele>117.2</ele>
        <time>2016-02-07T08:55:24Z</time>
      </trkpt>
      <trkpt lat="49.01034" lon="1.12125">
        <ele>117.2</ele>
        <time>2016-02-07T08:55:26Z</time>
      </trkpt>
      <trkpt lat="49.01047" lon="1.12125">
        <ele>117</ele>
        <time>2016-02-07T08:55:29Z</time>
      </trkpt>
      <trkpt lat="49.01058" lon="1.12128">
        <ele>116.8</ele>
        <time>2016-02-07T08:55:33Z</time>
      </trkpt>
      <trkpt lat="49.0107" lon="1.12134">
        <ele>116.5</ele>
        <time>2016-02-07T08:55:37Z</time>
      </trkpt>
      <trkpt lat="49.0108" lon="1.12139">
        <ele>116.3</ele>
        <time>2016-02-07T08:55:41Z</time>
      </trkpt>
      <trkpt lat="49.0109" lon="1.12145">
        <ele>116.2</ele>
        <time>2016-02-07T08:55:45Z</time>
      </trkpt>
      <trkpt lat="49.01098" lon="1.12139">
        <ele>116</ele>
        <time>2016-02-07T08:55:53Z</time>
      </trkpt>
      <trkpt lat="49.01108" lon="1.12129">
        <ele>115.9</ele>
        <time>2016-02-07T08:55:58Z</time>
      </trkpt>
      <trkpt lat="49.01119" lon="1.12123">
        <ele>115.8</ele>
        <time>2016-02-07T08:56:02Z</time>
      </trkpt>
      <trkpt lat="49.01131" lon="1.1212">
        <ele>115.8</ele>
        <time>2016-02-07T08:56:06Z</time>
      </trkpt>
      <trkpt lat="49.01141" lon="1.12115">
        <ele>115.8</ele>
        <time>2016-02-07T08:56:10Z</time>
      </trkpt>
      <trkpt lat="49.0115" lon="1.12108">
        <ele>115.9</ele>
        <time>2016-02-07T08:56:13Z</time>
      </trkpt>
      <trkpt lat="49.01162" lon="1.12101">
        <ele>116</ele>
        <time>2016-02-07T08:56:17Z</time>
      </trkpt>
      <trkpt lat="49.01173" lon="1.12094">
        <ele>116.1</ele>
        <time>2016-02-07T08:56:20Z</time>
      </trkpt>
      <trkpt lat="49.01185" lon="1.12089">
        <ele>116.2</ele>
        <time>2016-02-07T08:56:23Z</time>
      </trkpt>
      <trkpt lat="49.01195" lon="1.12079">
        <ele>116.3</ele>
        <time>2016-02-07T08:56:26Z</time>
      </trkpt>
      <trkpt lat="49.01202" lon="1.12069">
        <ele>116.3</ele>
        <time>2016-02-07T08:56:29Z</time>
      </trkpt>
      <trkpt lat="49.01212" lon="1.1206">
        <ele>116.1</ele>
        <time>2016-02-07T08:56:33Z</time>
      </trkpt>
      <trkpt lat="49.01222" lon="1.12054">
        <ele>115.8</ele>
        <time>2016-02-07T08:56:36Z</time>
      </trkpt>
      <trkpt lat="49.01231" lon="1.12044">
        <ele>115.3</ele>
        <time>2016-02-07T08:56:40Z</time>
      </trkpt>
      <trkpt lat="49.01241" lon="1.12053">
        <ele>114.6</ele>
        <time>2016-02-07T08:56:46Z</time>
      </trkpt>
      <trkpt lat="49.01246" lon="1.12067">
        <ele>114.3</ele>
        <time>2016-02-07T08:56:50Z</time>
      </trkpt>
      <trkpt lat="49.01247" lon="1.12083">
        <ele>114</ele>
        <time>2016-02-07T08:56:55Z</time>
      </trkpt>
      <trkpt lat="49.01246" lon="1.121">
        <ele>114.2</ele>
        <time>2016-02-07T08:57:00Z</time>
      </trkpt>
      <trkpt lat="49.01242" lon="1.12116">
        <ele>114.6</ele>
        <time>2016-02-07T08:57:05Z</time>
      </trkpt>
      <trkpt lat="49.01238" lon="1.12132">
        <ele>115.1</ele>
        <time>2016-02-07T08:57:10Z</time>
      </trkpt>
      <trkpt lat="49.01235" lon="1.12146">
        <ele>115.6</ele>
        <time>2016-02-07T08:57:15Z</time>
      </trkpt>
      <trkpt lat="49.01232" lon="1.12159">
        <ele>116.2</ele>
        <time>2016-02-07T08:57:19Z</time>
      </trkpt>
      <trkpt lat="49.01228" lon="1.12171">
        <ele>116.7</ele>
        <time>2016-02-07T08:57:23Z</time>
      </trkpt>
      <trkpt lat="49.01226" lon="1.12187">
        <ele>117.1</ele>
        <time>2016-02-07T08:57:28Z</time>
      </trkpt>
      <trkpt lat="49.01223" lon="1.12202">
        <ele>117.4</ele>
        <time>2016-02-07T08:57:32Z</time>
      </trkpt>
      <trkpt lat="49.01224" lon="1.12217">
        <ele>117.6</ele>
        <time>2016-02-07T08:57:35Z</time>
      </trkpt>
      <trkpt lat="49.01231" lon="1.12228">
        <ele>117.8</ele>
        <time>2016-02-07T08:57:39Z</time>
      </trkpt>
      <trkpt lat="49.0124" lon="1.12238">
        <ele>118</ele>
        <time>2016-02-07T08:57:43Z</time>
      </trkpt>
      <trkpt lat="49.01248" lon="1.12244">
        <ele>118.1</ele>
        <time>2016-02-07T08:57:46Z</time>
      </trkpt>
      <trkpt lat="49.01256" lon="1.1225">
        <ele>118.2</ele>
        <time>2016-02-07T08:57:48Z</time>
      </trkpt>
      <trkpt lat="49.01266" lon="1.12257">
        <ele>118.2</ele>
        <time>2016-02-07T08:57:51Z</time>
      </trkpt>
      <trkpt lat="49.01277" lon="1.12266">
        <ele>118.2</ele>
        <time>2016-02-07T08:57:54Z</time>
      </trkpt>
      <trkpt lat="49.01286" lon="1.12272">
        <ele>118</ele>
        <time>2016-02-07T08:57:57Z</time>
      </trkpt>
      <trkpt lat="49.01295" lon="1.12263">
        <ele>117.8</ele>
        <time>2016-02-07T08:58:01Z</time>
      </trkpt>
      <trkpt lat="49.01302" lon="1.12251">
        <ele>117.5</ele>
        <time>2016-02-07T08:58:05Z</time>
      </trkpt>
      <trkpt lat="49.01309" lon="1.12239">
        <ele>117</ele>
        <time>2016-02-07T08:58:09Z</time>
      </trkpt>
      <trkpt lat="49.01318" lon="1.12229">
        <ele>116.5</ele>
        <time>2016-02-07T08:58:15Z</time>
      </trkpt>
      <trkpt lat="49.01326" lon="1.12219">
        <ele>115.9</ele>
        <time>2016-02-07T08:58:21Z</time>
      </trkpt>
      <trkpt lat="49.01332" lon="1.12207">
        <ele>115.2</ele>
        <time>2016-02-07T08:58:26Z</time>
      </trkpt>
      <trkpt lat="49.01335" lon="1.12193">
        <ele>114.6</ele>
        <time>2016-02-07T08:58:30Z</time>
      </trkpt>
      <trkpt lat="49.01331" lon="1.12177">
        <ele>114.1</ele>
        <time>2016-02-07T08:58:34Z</time>
      </trkpt>
      <trkpt lat="49.01326" lon="1.12162">
        <ele>113.9</ele>
        <time>2016-02-07T08:58:37Z</time>
      </trkpt>
      <trkpt lat="49.01322" lon="1.12149">
        <ele>113.6</ele>
        <time>2016-02-07T08:58:41Z</time>
      </trkpt>
      <trkpt lat="49.0132" lon="1.12133">
        <ele>113.3</ele>
        <time>2016-02-07T08:58:45Z</time>
      </trkpt>
      <trkpt lat="49.01318" lon="1.1212">
        <ele>113.2</ele>
        <time>2016-02-07T08:58:48Z</time>
      </trkpt>
      <trkpt lat="49.01317" lon="1.12104">
        <ele>113.1</ele>
        <time>2016-02-07T08:58:51Z</time>
      </trkpt>
      <trkpt lat="49.01313" lon="1.1209">
        <ele>112.9</ele>
        <time>2016-02-07T08:58:54Z</time>
      </trkpt>
      <trkpt lat="49.01304" lon="1.12078">
        <ele>112.7</ele>
        <time>2016-02-07T08:58:57Z</time>
      </trkpt>
      <trkpt lat="49.01296" lon="1.12071">
        <ele>112.6</ele>
        <time>2016-02-07T08:58:59Z</time>
      </trkpt>
      <trkpt lat="49.01288" lon="1.1206">
        <ele>112.3</ele>
        <time>2016-02-07T08:59:02Z</time>
      </trkpt>
      <trkpt lat="49.0128" lon="1.12051">
        <ele>112.1</ele>
        <time>2016-02-07T08:59:05Z</time>
      </trkpt>
      <trkpt lat="49.01271" lon="1.1204">
        <ele>111.9</ele>
        <time>2016-02-07T08:59:08Z</time>
      </trkpt>
      <trkpt lat="49.01262" lon="1.1203">
        <ele>111.8</ele>
        <time>2016-02-07T08:59:11Z</time>
      </trkpt>
      <trkpt lat="49.01255" lon="1.1202">
        <ele>111.7</ele>
        <time>2016-02-07T08:59:14Z</time>
      </trkpt>
      <trkpt lat="49.01248" lon="1.12012">
        <ele>111.6</ele>
        <time>2016-02-07T08:59:17Z</time>
      </trkpt>
      <trkpt lat="49.01237" lon="1.12013">
        <ele>111.5</ele>
        <time>2016-02-07T08:59:21Z</time>
      </trkpt>
      <trkpt lat="49.01228" lon="1.12004">
        <ele>111.1</ele>
        <time>2016-02-07T09:00:21Z</time>
      </trkpt>
      <trkpt lat="49.01219" lon="1.11995">
        <ele>111.1</ele>
        <time>2016-02-07T09:00:24Z</time>
      </trkpt>
      <trkpt lat="49.01208" lon="1.1199">
        <ele>111.1</ele>
        <time>2016-02-07T09:00:27Z</time>
      </trkpt>
      <trkpt lat="49.01197" lon="1.11989">
        <ele>111.1</ele>
        <time>2016-02-07T09:00:30Z</time>
      </trkpt>
      <trkpt lat="49.01186" lon="1.1199">
        <ele>111.1</ele>
        <time>2016-02-07T09:00:33Z</time>
      </trkpt>
      <trkpt lat="49.01175" lon="1.1199">
        <ele>111.1</ele>
        <time>2016-02-07T09:00:36Z</time>
      </trkpt>
      <trkpt lat="49.01163" lon="1.1199">
        <ele>111.1</ele>
        <time>2016-02-07T09:00:39Z</time>
      </trkpt>
      <trkpt lat="49.01152" lon="1.11993">
        <ele>111.1</ele>
        <time>2016-02-07T09:00:42Z</time>
      </trkpt>
      <trkpt lat="49.01142" lon="1.11994">
        <ele>110.9</ele>
        <time>2016-02-07T09:00:45Z</time>
      </trkpt>
      <trkpt lat="49.0113" lon="1.11988">
        <ele>110.6</ele>
        <time>2016-02-07T09:00:48Z</time>
      </trkpt>
      <trkpt lat="49.01125" lon="1.11975">
        <ele>110.3</ele>
        <time>2016-02-07T09:00:52Z</time>
      </trkpt>
      <trkpt lat="49.01121" lon="1.11963">
        <ele>110.3</ele>
        <time>2016-02-07T09:00:55Z</time>
      </trkpt>
      <trkpt lat="49.01116" lon="1.11947">
        <ele>110.4</ele>
        <time>2016-02-07T09:00:58Z</time>
      </trkpt>
      <trkpt lat="49.01108" lon="1.11935">
        <ele>110.4</ele>
        <time>2016-02-07T09:01:01Z</time>
      </trkpt>
      <trkpt lat="49.01097" lon="1.11929">
        <ele>110.8</ele>
        <time>2016-02-07T09:01:05Z</time>
      </trkpt>
      <trkpt lat="49.01088" lon="1.11926">
        <ele>111.1</ele>
        <time>2016-02-07T09:01:08Z</time>
      </trkpt>
      <trkpt lat="49.01079" lon="1.1192">
        <ele>111.3</ele>
        <time>2016-02-07T09:01:11Z</time>
      </trkpt>
      <trkpt lat="49.01067" lon="1.11916">
        <ele>111.6</ele>
        <time>2016-02-07T09:01:15Z</time>
      </trkpt>
      <trkpt lat="49.01058" lon="1.11912">
        <ele>111.9</ele>
        <time>2016-02-07T09:01:19Z</time>
      </trkpt>
      <trkpt lat="49.01049" lon="1.11907">
        <ele>112.2</ele>
        <time>2016-02-07T09:01:23Z</time>
      </trkpt>
      <trkpt lat="49.01038" lon="1.11904">
        <ele>112.4</ele>
        <time>2016-02-07T09:01:28Z</time>
      </trkpt>
      <trkpt lat="49.01028" lon="1.11904">
        <ele>112.8</ele>
        <time>2016-02-07T09:01:37Z</time>
      </trkpt>
      <trkpt lat="49.0102" lon="1.11899">
        <ele>113.2</ele>
        <time>2016-02-07T09:01:48Z</time>
      </trkpt>
      <trkpt lat="49.01011" lon="1.11893">
        <ele>113.3</ele>
        <time>2016-02-07T09:01:53Z</time>
      </trkpt>
      <trkpt lat="49.01002" lon="1.11892">
        <ele>113.3</ele>
        <time>2016-02-07T09:01:57Z</time>
      </trkpt>
      <trkpt lat="49.00991" lon="1.11891">
        <ele>113.6</ele>
        <time>2016-02-07T09:02:02Z</time>
      </trkpt>
      <trkpt lat="49.00982" lon="1.11891">
        <ele>114.3</ele>
        <time>2016-02-07T09:02:07Z</time>
      </trkpt>
      <trkpt lat="49.00971" lon="1.11885">
        <ele>115.1</ele>
        <time>2016-02-07T09:02:12Z</time>
      </trkpt>
      <trkpt lat="49.00964" lon="1.11877">
        <ele>115.6</ele>
        <time>2016-02-07T09:02:15Z</time>
      </trkpt>
      <trkpt lat="49.00953" lon="1.11871">
        <ele>116.2</ele>
        <time>2016-02-07T09:02:20Z</time>
      </trkpt>
      <trkpt lat="49.00943" lon="1.11869">
        <ele>116.5</ele>
        <time>2016-02-07T09:02:23Z</time>
      </trkpt>
      <trkpt lat="49.00933" lon="1.11864">
        <ele>116.8</ele>
        <time>2016-02-07T09:02:27Z</time>
      </trkpt>
      <trkpt lat="49.00924" lon="1.11857">
        <ele>117.1</ele>
        <time>2016-02-07T09:02:31Z</time>
      </trkpt>
      <trkpt lat="49.00915" lon="1.11857">
        <ele>117.3</ele>
        <time>2016-02-07T09:02:34Z</time>
      </trkpt>
      <trkpt lat="49.00905" lon="1.11853">
        <ele>117.4</ele>
        <time>2016-02-07T09:02:38Z</time>
      </trkpt>
      <trkpt lat="49.00895" lon="1.11846">
        <ele>117.6</ele>
        <time>2016-02-07T09:02:42Z</time>
      </trkpt>
      <trkpt lat="49.00884" lon="1.11843">
        <ele>117.7</ele>
        <time>2016-02-07T09:02:45Z</time>
      </trkpt>
      <trkpt lat="49.00874" lon="1.11839">
        <ele>117.8</ele>
        <time>2016-02-07T09:02:49Z</time>
      </trkpt>
      <trkpt lat="49.00864" lon="1.11834">
        <ele>117.8</ele>
        <time>2016-02-07T09:02:53Z</time>
      </trkpt>
      <trkpt lat="49.00853" lon="1.11826">
        <ele>117.9</ele>
        <time>2016-02-07T09:02:57Z</time>
      </trkpt>
      <trkpt lat="49.00844" lon="1.11818">
        <ele>117.9</ele>
        <time>2016-02-07T09:03:01Z</time>
      </trkpt>
      <trkpt lat="49.00833" lon="1.1181">
        <ele>117.9</ele>
        <time>2016-02-07T09:03:05Z</time>
      </trkpt>
      <trkpt lat="49.00824" lon="1.11805">
        <ele>117.9</ele>
        <time>2016-02-07T09:03:09Z</time>
      </trkpt>
      <trkpt lat="49.00813" lon="1.11799">
        <ele>117.8</ele>
        <time>2016-02-07T09:03:13Z</time>
      </trkpt>
      <trkpt lat="49.00803" lon="1.11792">
        <ele>117.8</ele>
        <time>2016-02-07T09:03:17Z</time>
      </trkpt>
      <trkpt lat="49.00794" lon="1.11795">
        <ele>117.9</ele>
        <time>2016-02-07T09:03:21Z</time>
      </trkpt>
      <trkpt lat="49.00782" lon="1.11795">
        <ele>117.9</ele>
        <time>2016-02-07T09:03:25Z</time>
      </trkpt>
      <trkpt lat="49.00773" lon="1.11792">
        <ele>117.6</ele>
        <time>2016-02-07T09:03:27Z</time>
      </trkpt>
      <trkpt lat="49.00766" lon="1.11781">
        <ele>117.2</ele>
        <time>2016-02-07T09:03:29Z</time>
      </trkpt>
      <trkpt lat="49.00755" lon="1.11773">
        <ele>116.6</ele>
        <time>2016-02-07T09:03:32Z</time>
      </trkpt>
      <trkpt lat="49.00743" lon="1.11767">
        <ele>116.2</ele>
        <time>2016-02-07T09:03:35Z</time>
      </trkpt>
      <trkpt lat="49.00734" lon="1.11761">
        <ele>115.9</ele>
        <time>2016-02-07T09:03:37Z</time>
      </trkpt>
      <trkpt lat="49.00726" lon="1.11754">
        <ele>115.8</ele>
        <time>2016-02-07T09:03:39Z</time>
      </trkpt>
      <trkpt lat="49.00716" lon="1.11751">
        <ele>115.7</ele>
        <time>2016-02-07T09:03:42Z</time>
      </trkpt>
      <trkpt lat="49.00703" lon="1.1175">
        <ele>115.6</ele>
        <time>2016-02-07T09:03:45Z</time>
      </trkpt>
      <trkpt lat="49.0069" lon="1.11746">
        <ele>115.5</ele>
        <time>2016-02-07T09:03:48Z</time>
      </trkpt>
      <trkpt lat="49.00679" lon="1.11741">
        <ele>115.4</ele>
        <time>2016-02-07T09:03:51Z</time>
      </trkpt>
      <trkpt lat="49.00667" lon="1.11741">
        <ele>115.4</ele>
        <time>2016-02-07T09:03:55Z</time>
      </trkpt>
      <trkpt lat="49.00657" lon="1.11739">
        <ele>115.6</ele>
        <time>2016-02-07T09:03:59Z</time>
      </trkpt>
      <trkpt lat="49.00652" lon="1.11728">
        <ele>116</ele>
        <time>2016-02-07T09:04:03Z</time>
      </trkpt>
      <trkpt lat="49.00647" lon="1.11715">
        <ele>116.3</ele>
        <time>2016-02-07T09:04:07Z</time>
      </trkpt>
      <trkpt lat="49.0064" lon="1.11702">
        <ele>116.6</ele>
        <time>2016-02-07T09:04:12Z</time>
      </trkpt>
      <trkpt lat="49.00636" lon="1.11689">
        <ele>116.7</ele>
        <time>2016-02-07T09:04:16Z</time>
      </trkpt>
      <trkpt lat="49.00631" lon="1.11676">
        <ele>116.5</ele>
        <time>2016-02-07T09:04:20Z</time>
      </trkpt>
      <trkpt lat="49.00626" lon="1.11661">
        <ele>115.8</ele>
        <time>2016-02-07T09:04:24Z</time>
      </trkpt>
      <trkpt lat="49.00621" lon="1.11648">
        <ele>114.6</ele>
        <time>2016-02-07T09:04:29Z</time>
      </trkpt>
      <trkpt lat="49.00617" lon="1.11635">
        <ele>113.2</ele>
        <time>2016-02-07T09:04:34Z</time>
      </trkpt>
      <trkpt lat="49.00609" lon="1.11625">
        <ele>111.5</ele>
        <time>2016-02-07T09:04:38Z</time>
      </trkpt>
      <trkpt lat="49.00599" lon="1.11622">
        <ele>110.1</ele>
        <time>2016-02-07T09:04:42Z</time>
      </trkpt>
      <trkpt lat="49.00589" lon="1.11617">
        <ele>109</ele>
        <time>2016-02-07T09:04:46Z</time>
      </trkpt>
      <trkpt lat="49.0058" lon="1.11612">
        <ele>108.5</ele>
        <time>2016-02-07T09:04:50Z</time>
      </trkpt>
      <trkpt lat="49.00571" lon="1.11609">
        <ele>108.4</ele>
        <time>2016-02-07T09:04:54Z</time>
      </trkpt>
      <trkpt lat="49.00561" lon="1.11605">
        <ele>108.7</ele>
        <time>2016-02-07T09:04:59Z</time>
      </trkpt>
      <trkpt lat="49.00552" lon="1.11599">
        <ele>109.2</ele>
        <time>2016-02-07T09:05:04Z</time>
      </trkpt>
      <trkpt lat="49.00542" lon="1.11598">
        <ele>109.8</ele>
        <time>2016-02-07T09:05:09Z</time>
      </trkpt>
      <trkpt lat="49.00535" lon="1.11608">
        <ele>110.4</ele>
        <time>2016-02-07T09:05:14Z</time>
      </trkpt>
      <trkpt lat="49.00533" lon="1.11624">
        <ele>111.5</ele>
        <time>2016-02-07T09:05:20Z</time>
      </trkpt>
      <trkpt lat="49.00533" lon="1.11641">
        <ele>112.4</ele>
        <time>2016-02-07T09:05:25Z</time>
      </trkpt>
      <trkpt lat="49.00532" lon="1.11656">
        <ele>112.9</ele>
        <time>2016-02-07T09:05:29Z</time>
      </trkpt>
      <trkpt lat="49.0053" lon="1.11671">
        <ele>113.4</ele>
        <time>2016-02-07T09:05:33Z</time>
      </trkpt>
      <trkpt lat="49.00527" lon="1.11684">
        <ele>113.7</ele>
        <time>2016-02-07T09:05:36Z</time>
      </trkpt>
      <trkpt lat="49.00526" lon="1.11699">
        <ele>114</ele>
        <time>2016-02-07T09:05:40Z</time>
      </trkpt>
      <trkpt lat="49.00523" lon="1.11716">
        <ele>114.2</ele>
        <time>2016-02-07T09:05:44Z</time>
      </trkpt>
      <trkpt lat="49.00523" lon="1.11732">
        <ele>114.4</ele>
        <time>2016-02-07T09:05:48Z</time>
      </trkpt>
      <trkpt lat="49.0052" lon="1.11745">
        <ele>114.6</ele>
        <time>2016-02-07T09:05:54Z</time>
      </trkpt>
      <trkpt lat="49.00512" lon="1.1175">
        <ele>115.9</ele>
        <time>2016-02-07T09:07:14Z</time>
      </trkpt>
      <trkpt lat="49.00521" lon="1.11752">
        <ele>116</ele>
        <time>2016-02-07T09:07:39Z</time>
      </trkpt>
      <trkpt lat="49.00529" lon="1.11759">
        <ele>116.1</ele>
        <time>2016-02-07T09:07:46Z</time>
      </trkpt>
      <trkpt lat="49.00537" lon="1.11765">
        <ele>116.4</ele>
        <time>2016-02-07T09:07:50Z</time>
      </trkpt>
      <trkpt lat="49.00546" lon="1.11771">
        <ele>116.7</ele>
        <time>2016-02-07T09:07:54Z</time>
      </trkpt>
      <trkpt lat="49.00555" lon="1.11777">
        <ele>117</ele>
        <time>2016-02-07T09:07:57Z</time>
      </trkpt>
      <trkpt lat="49.00566" lon="1.11783">
        <ele>117.4</ele>
        <time>2016-02-07T09:08:01Z</time>
      </trkpt>
      <trkpt lat="49.00575" lon="1.11789">
        <ele>117.8</ele>
        <time>2016-02-07T09:08:04Z</time>
      </trkpt>
      <trkpt lat="49.00585" lon="1.11797">
        <ele>118</ele>
        <time>2016-02-07T09:08:07Z</time>
      </trkpt>
      <trkpt lat="49.00597" lon="1.11806">
        <ele>118.3</ele>
        <time>2016-02-07T09:08:10Z</time>
      </trkpt>
      <trkpt lat="49.00606" lon="1.11812">
        <ele>118.4</ele>
        <time>2016-02-07T09:08:12Z</time>
      </trkpt>
      <trkpt lat="49.00615" lon="1.11818">
        <ele>118.5</ele>
        <time>2016-02-07T09:08:14Z</time>
      </trkpt>
      <trkpt lat="49.00624" lon="1.11824">
        <ele>118.6</ele>
        <time>2016-02-07T09:08:16Z</time>
      </trkpt>
      <trkpt lat="49.00636" lon="1.11833">
        <ele>118.6</ele>
        <time>2016-02-07T09:08:19Z</time>
      </trkpt>
      <trkpt lat="49.00644" lon="1.1184">
        <ele>118.7</ele>
        <time>2016-02-07T09:08:21Z</time>
      </trkpt>
      <trkpt lat="49.00653" lon="1.11847">
        <ele>118.7</ele>
        <time>2016-02-07T09:08:23Z</time>
      </trkpt>
      <trkpt lat="49.00659" lon="1.11858">
        <ele>118.7</ele>
        <time>2016-02-07T09:08:25Z</time>
      </trkpt>
      <trkpt lat="49.00663" lon="1.11877">
        <ele>118.7</ele>
        <time>2016-02-07T09:08:28Z</time>
      </trkpt>
      <trkpt lat="49.00666" lon="1.11896">
        <ele>118.7</ele>
        <time>2016-02-07T09:08:31Z</time>
      </trkpt>
      <trkpt lat="49.00667" lon="1.11915">
        <ele>118.8</ele>
        <time>2016-02-07T09:08:34Z</time>
      </trkpt>
      <trkpt lat="49.0067" lon="1.11934">
        <ele>118.8</ele>
        <time>2016-02-07T09:08:37Z</time>
      </trkpt>
      <trkpt lat="49.00671" lon="1.11949">
        <ele>118.9</ele>
        <time>2016-02-07T09:08:40Z</time>
      </trkpt>
      <trkpt lat="49.00674" lon="1.11966">
        <ele>118.9</ele>
        <time>2016-02-07T09:08:43Z</time>
      </trkpt>
      <trkpt lat="49.00669" lon="1.11984">
        <ele>119</ele>
        <time>2016-02-07T09:08:46Z</time>
      </trkpt>
      <trkpt lat="49.00661" lon="1.11996">
        <ele>119</ele>
        <time>2016-02-07T09:08:49Z</time>
      </trkpt>
      <trkpt lat="49.00654" lon="1.12012">
        <ele>119</ele>
        <time>2016-02-07T09:08:53Z</time>
      </trkpt>
      <trkpt lat="49.00652" lon="1.1203">
        <ele>119.1</ele>
        <time>2016-02-07T09:08:56Z</time>
      </trkpt>
      <trkpt lat="49.00652" lon="1.12047">
        <ele>119.1</ele>
        <time>2016-02-07T09:08:59Z</time>
      </trkpt>
      <trkpt lat="49.00647" lon="1.12061">
        <ele>119</ele>
        <time>2016-02-07T09:09:03Z</time>
      </trkpt>
      <trkpt lat="49.00639" lon="1.12073">
        <ele>118.9</ele>
        <time>2016-02-07T09:09:07Z</time>
      </trkpt>
      <trkpt lat="49.00632" lon="1.1209">
        <ele>118.6</ele>
        <time>2016-02-07T09:09:11Z</time>
      </trkpt>
      <trkpt lat="49.00628" lon="1.12106">
        <ele>118.5</ele>
        <time>2016-02-07T09:09:14Z</time>
      </trkpt>
      <trkpt lat="49.00622" lon="1.12121">
        <ele>118.3</ele>
        <time>2016-02-07T09:09:18Z</time>
      </trkpt>
      <trkpt lat="49.00616" lon="1.12132">
        <ele>118.2</ele>
        <time>2016-02-07T09:09:21Z</time>
      </trkpt>
      <trkpt lat="49.00609" lon="1.12146">
        <ele>118.1</ele>
        <time>2016-02-07T09:09:24Z</time>
      </trkpt>
      <trkpt lat="49.00603" lon="1.1216">
        <ele>118.1</ele>
        <time>2016-02-07T09:09:27Z</time>
      </trkpt>
      <trkpt lat="49.00592" lon="1.12164">
        <ele>118</ele>
        <time>2016-02-07T09:09:30Z</time>
      </trkpt>
      <trkpt lat="49.00582" lon="1.12163">
        <ele>117.9</ele>
        <time>2016-02-07T09:09:33Z</time>
      </trkpt>
      <trkpt lat="49.00571" lon="1.12169">
        <ele>117.6</ele>
        <time>2016-02-07T09:09:37Z</time>
      </trkpt>
      <trkpt lat="49.00566" lon="1.12182">
        <ele>117.4</ele>
        <time>2016-02-07T09:09:41Z</time>
      </trkpt>
      <trkpt lat="49.00564" lon="1.12196">
        <ele>117.1</ele>
        <time>2016-02-07T09:09:48Z</time>
      </trkpt>
      <trkpt lat="49.00559" lon="1.12208">
        <ele>117</ele>
        <time>2016-02-07T09:09:52Z</time>
      </trkpt>
      <trkpt lat="49.00551" lon="1.12221">
        <ele>116.8</ele>
        <time>2016-02-07T09:09:57Z</time>
      </trkpt>
      <trkpt lat="49.00543" lon="1.1223">
        <ele>116.6</ele>
        <time>2016-02-07T09:10:02Z</time>
      </trkpt>
      <trkpt lat="49.00534" lon="1.12236">
        <ele>116.4</ele>
        <time>2016-02-07T09:10:06Z</time>
      </trkpt>
      <trkpt lat="49.00523" lon="1.12237">
        <ele>116.3</ele>
        <time>2016-02-07T09:10:10Z</time>
      </trkpt>
      <trkpt lat="49.00513" lon="1.12238">
        <ele>116.1</ele>
        <time>2016-02-07T09:10:14Z</time>
      </trkpt>
      <trkpt lat="49.00503" lon="1.12239">
        <ele>116</ele>
        <time>2016-02-07T09:10:18Z</time>
      </trkpt>
      <trkpt lat="49.00494" lon="1.12241">
        <ele>115.7</ele>
        <time>2016-02-07T09:10:23Z</time>
      </trkpt>
      <trkpt lat="49.00485" lon="1.12246">
        <ele>115.2</ele>
        <time>2016-02-07T09:10:31Z</time>
      </trkpt>
      <trkpt lat="49.00477" lon="1.12253">
        <ele>113.5</ele>
        <time>2016-02-07T09:10:53Z</time>
      </trkpt>
      <trkpt lat="49.00468" lon="1.12257">
        <ele>113.2</ele>
        <time>2016-02-07T09:11:00Z</time>
      </trkpt>
      <trkpt lat="49.00458" lon="1.12255">
        <ele>113.1</ele>
        <time>2016-02-07T09:11:14Z</time>
      </trkpt>
      <trkpt lat="49.00459" lon="1.12241">
        <ele>113.1</ele>
        <time>2016-02-07T09:11:18Z</time>
      </trkpt>
      <trkpt lat="49.00462" lon="1.12225">
        <ele>113.3</ele>
        <time>2016-02-07T09:11:22Z</time>
      </trkpt>
      <trkpt lat="49.00466" lon="1.12208">
        <ele>113.7</ele>
        <time>2016-02-07T09:11:26Z</time>
      </trkpt>
      <trkpt lat="49.00466" lon="1.12193">
        <ele>114</ele>
        <time>2016-02-07T09:11:29Z</time>
      </trkpt>
      <trkpt lat="49.00468" lon="1.12175">
        <ele>114.4</ele>
        <time>2016-02-07T09:11:32Z</time>
      </trkpt>
      <trkpt lat="49.0047" lon="1.12156">
        <ele>114.7</ele>
        <time>2016-02-07T09:11:35Z</time>
      </trkpt>
      <trkpt lat="49.00472" lon="1.12136">
        <ele>115.1</ele>
        <time>2016-02-07T09:11:38Z</time>
      </trkpt>
      <trkpt lat="49.00474" lon="1.12118">
        <ele>115.5</ele>
        <time>2016-02-07T09:11:41Z</time>
      </trkpt>
      <trkpt lat="49.00476" lon="1.12102">
        <ele>115.6</ele>
        <time>2016-02-07T09:11:44Z</time>
      </trkpt>
      <trkpt lat="49.00477" lon="1.12085">
        <ele>115.8</ele>
        <time>2016-02-07T09:11:47Z</time>
      </trkpt>
      <trkpt lat="49.00478" lon="1.12067">
        <ele>116</ele>
        <time>2016-02-07T09:11:51Z</time>
      </trkpt>
      <trkpt lat="49.00481" lon="1.12052">
        <ele>116.1</ele>
        <time>2016-02-07T09:11:54Z</time>
      </trkpt>
      <trkpt lat="49.00474" lon="1.1204">
        <ele>116.3</ele>
        <time>2016-02-07T09:11:59Z</time>
      </trkpt>
      <trkpt lat="49.00465" lon="1.12041">
        <ele>116.4</ele>
        <time>2016-02-07T09:12:02Z</time>
      </trkpt>
      <trkpt lat="49.00455" lon="1.12043">
        <ele>116.5</ele>
        <time>2016-02-07T09:12:05Z</time>
      </trkpt>
      <trkpt lat="49.00446" lon="1.12051">
        <ele>116.5</ele>
        <time>2016-02-07T09:12:08Z</time>
      </trkpt>
      <trkpt lat="49.00436" lon="1.12055">
        <ele>116.6</ele>
        <time>2016-02-07T09:12:11Z</time>
      </trkpt>
      <trkpt lat="49.00426" lon="1.12059">
        <ele>116.6</ele>
        <time>2016-02-07T09:12:14Z</time>
      </trkpt>
      <trkpt lat="49.00417" lon="1.12064">
        <ele>116.5</ele>
        <time>2016-02-07T09:12:17Z</time>
      </trkpt>
      <trkpt lat="49.00405" lon="1.12062">
        <ele>116.3</ele>
        <time>2016-02-07T09:12:20Z</time>
      </trkpt>
      <trkpt lat="49.00397" lon="1.12068">
        <ele>115.9</ele>
        <time>2016-02-07T09:12:23Z</time>
      </trkpt>
      <trkpt lat="49.00385" lon="1.12072">
        <ele>115.4</ele>
        <time>2016-02-07T09:12:26Z</time>
      </trkpt>
      <trkpt lat="49.00376" lon="1.12078">
        <ele>114.7</ele>
        <time>2016-02-07T09:12:29Z</time>
      </trkpt>
      <trkpt lat="49.00367" lon="1.12082">
        <ele>113.9</ele>
        <time>2016-02-07T09:12:32Z</time>
      </trkpt>
      <trkpt lat="49.00359" lon="1.12086">
        <ele>112.9</ele>
        <time>2016-02-07T09:12:36Z</time>
      </trkpt>
      <trkpt lat="49.00349" lon="1.12087">
        <ele>112.2</ele>
        <time>2016-02-07T09:12:39Z</time>
      </trkpt>
      <trkpt lat="49.00339" lon="1.12083">
        <ele>111.3</ele>
        <time>2016-02-07T09:12:43Z</time>
      </trkpt>
      <trkpt lat="49.00329" lon="1.12085">
        <ele>109.8</ele>
        <time>2016-02-07T09:12:50Z</time>
      </trkpt>
      <trkpt lat="49.0032" lon="1.12087">
        <ele>109.1</ele>
        <time>2016-02-07T09:12:54Z</time>
      </trkpt>
      <trkpt lat="49.00311" lon="1.12095">
        <ele>108.3</ele>
        <time>2016-02-07T09:12:59Z</time>
      </trkpt>
      <trkpt lat="49.00308" lon="1.12108">
        <ele>107.8</ele>
        <time>2016-02-07T09:13:02Z</time>
      </trkpt>
      <trkpt lat="49.00306" lon="1.12123">
        <ele>107.2</ele>
        <time>2016-02-07T09:13:06Z</time>
      </trkpt>
      <trkpt lat="49.00297" lon="1.1213">
        <ele>106.1</ele>
        <time>2016-02-07T09:13:10Z</time>
      </trkpt>
      <trkpt lat="49.00287" lon="1.12133">
        <ele>105</ele>
        <time>2016-02-07T09:13:14Z</time>
      </trkpt>
      <trkpt lat="49.00278" lon="1.12135">
        <ele>103.4</ele>
        <time>2016-02-07T09:13:19Z</time>
      </trkpt>
      <trkpt lat="49.00267" lon="1.12139">
        <ele>102</ele>
        <time>2016-02-07T09:13:22Z</time>
      </trkpt>
      <trkpt lat="49.00262" lon="1.12152">
        <ele>100.1</ele>
        <time>2016-02-07T09:13:26Z</time>
      </trkpt>
      <trkpt lat="49.0027" lon="1.1216">
        <ele>97.4</ele>
        <time>2016-02-07T09:13:33Z</time>
      </trkpt>
      <trkpt lat="49.00277" lon="1.12168">
        <ele>96.6</ele>
        <time>2016-02-07T09:13:38Z</time>
      </trkpt>
      <trkpt lat="49.00285" lon="1.12174">
        <ele>96.5</ele>
        <time>2016-02-07T09:13:42Z</time>
      </trkpt>
      <trkpt lat="49.00295" lon="1.12183">
        <ele>96.6</ele>
        <time>2016-02-07T09:13:46Z</time>
      </trkpt>
      <trkpt lat="49.00304" lon="1.12191">
        <ele>97</ele>
        <time>2016-02-07T09:13:50Z</time>
      </trkpt>
      <trkpt lat="49.00312" lon="1.122">
        <ele>97.5</ele>
        <time>2016-02-07T09:13:54Z</time>
      </trkpt>
      <trkpt lat="49.0032" lon="1.12207">
        <ele>98.2</ele>
        <time>2016-02-07T09:13:57Z</time>
      </trkpt>
      <trkpt lat="49.00329" lon="1.1221">
        <ele>98.8</ele>
        <time>2016-02-07T09:14:00Z</time>
      </trkpt>
      <trkpt lat="49.00337" lon="1.12218">
        <ele>100.1</ele>
        <time>2016-02-07T09:14:06Z</time>
      </trkpt>
      <trkpt lat="49.00335" lon="1.12231">
        <ele>102</ele>
        <time>2016-02-07T09:14:16Z</time>
      </trkpt>
      <trkpt lat="49.00327" lon="1.12242">
        <ele>103.8</ele>
        <time>2016-02-07T09:14:25Z</time>
      </trkpt>
      <trkpt lat="49.00319" lon="1.12248">
        <ele>105.1</ele>
        <time>2016-02-07T09:14:31Z</time>
      </trkpt>
      <trkpt lat="49.00309" lon="1.12249">
        <ele>106</ele>
        <time>2016-02-07T09:14:37Z</time>
      </trkpt>
      <trkpt lat="49.00299" lon="1.1225">
        <ele>106.6</ele>
        <time>2016-02-07T09:14:42Z</time>
      </trkpt>
      <trkpt lat="49.00288" lon="1.12248">
        <ele>107.2</ele>
        <time>2016-02-07T09:14:47Z</time>
      </trkpt>
      <trkpt lat="49.00277" lon="1.12249">
        <ele>107.6</ele>
        <time>2016-02-07T09:14:52Z</time>
      </trkpt>
      <trkpt lat="49.00268" lon="1.12244">
        <ele>107.9</ele>
        <time>2016-02-07T09:14:56Z</time>
      </trkpt>
      <trkpt lat="49.00258" lon="1.12239">
        <ele>108.1</ele>
        <time>2016-02-07T09:15:00Z</time>
      </trkpt>
      <trkpt lat="49.00249" lon="1.12229">
        <ele>108.2</ele>
        <time>2016-02-07T09:15:04Z</time>
      </trkpt>
      <trkpt lat="49.00239" lon="1.12222">
        <ele>108.3</ele>
        <time>2016-02-07T09:15:08Z</time>
      </trkpt>
      <trkpt lat="49.00229" lon="1.12225">
        <ele>108.3</ele>
        <time>2016-02-07T09:15:12Z</time>
      </trkpt>
      <trkpt lat="49.0022" lon="1.12233">
        <ele>108.3</ele>
        <time>2016-02-07T09:15:16Z</time>
      </trkpt>
      <trkpt lat="49.00214" lon="1.12248">
        <ele>108.4</ele>
        <time>2016-02-07T09:15:21Z</time>
      </trkpt>
      <trkpt lat="49.00208" lon="1.12261">
        <ele>108.7</ele>
        <time>2016-02-07T09:15:26Z</time>
      </trkpt>
      <trkpt lat="49.00202" lon="1.12274">
        <ele>109</ele>
        <time>2016-02-07T09:15:30Z</time>
      </trkpt>
      <trkpt lat="49.00196" lon="1.12284">
        <ele>109.4</ele>
        <time>2016-02-07T09:15:34Z</time>
      </trkpt>
      <trkpt lat="49.0019" lon="1.12298">
        <ele>109.8</ele>
        <time>2016-02-07T09:15:39Z</time>
      </trkpt>
      <trkpt lat="49.00184" lon="1.12309">
        <ele>110.1</ele>
        <time>2016-02-07T09:15:45Z</time>
      </trkpt>
      <trkpt lat="49.00179" lon="1.12324">
        <ele>110.4</ele>
        <time>2016-02-07T09:15:50Z</time>
      </trkpt>
      <trkpt lat="49.0018" lon="1.12341">
        <ele>110.7</ele>
        <time>2016-02-07T09:15:55Z</time>
      </trkpt>
      <trkpt lat="49.00179" lon="1.12357">
        <ele>111</ele>
        <time>2016-02-07T09:15:59Z</time>
      </trkpt>
      <trkpt lat="49.00178" lon="1.12373">
        <ele>111.5</ele>
        <time>2016-02-07T09:16:03Z</time>
      </trkpt>
      <trkpt lat="49.00177" lon="1.12388">
        <ele>112.1</ele>
        <time>2016-02-07T09:16:07Z</time>
      </trkpt>
      <trkpt lat="49.00176" lon="1.12402">
        <ele>112.7</ele>
        <time>2016-02-07T09:16:11Z</time>
      </trkpt>
      <trkpt lat="49.00175" lon="1.12419">
        <ele>113.4</ele>
        <time>2016-02-07T09:16:16Z</time>
      </trkpt>
      <trkpt lat="49.00174" lon="1.12434">
        <ele>114.1</ele>
        <time>2016-02-07T09:16:21Z</time>
      </trkpt>
      <trkpt lat="49.00174" lon="1.12451">
        <ele>114.6</ele>
        <time>2016-02-07T09:16:25Z</time>
      </trkpt>
      <trkpt lat="49.00175" lon="1.12468">
        <ele>115.1</ele>
        <time>2016-02-07T09:16:29Z</time>
      </trkpt>
      <trkpt lat="49.00178" lon="1.12484">
        <ele>115.5</ele>
        <time>2016-02-07T09:16:33Z</time>
      </trkpt>
      <trkpt lat="49.00181" lon="1.12498">
        <ele>115.8</ele>
        <time>2016-02-07T09:16:36Z</time>
      </trkpt>
      <trkpt lat="49.00183" lon="1.12512">
        <ele>116.1</ele>
        <time>2016-02-07T09:16:40Z</time>
      </trkpt>
      <trkpt lat="49.00188" lon="1.12525">
        <ele>116.5</ele>
        <time>2016-02-07T09:16:44Z</time>
      </trkpt>
      <trkpt lat="49.00192" lon="1.12537">
        <ele>116.8</ele>
        <time>2016-02-07T09:16:48Z</time>
      </trkpt>
      <trkpt lat="49.00201" lon="1.12549">
        <ele>117.2</ele>
        <time>2016-02-07T09:16:53Z</time>
      </trkpt>
      <trkpt lat="49.00207" lon="1.12561">
        <ele>117.5</ele>
        <time>2016-02-07T09:16:57Z</time>
      </trkpt>
      <trkpt lat="49.00214" lon="1.12573">
        <ele>117.8</ele>
        <time>2016-02-07T09:17:01Z</time>
      </trkpt>
      <trkpt lat="49.00224" lon="1.1258">
        <ele>118</ele>
        <time>2016-02-07T09:17:04Z</time>
      </trkpt>
      <trkpt lat="49.00232" lon="1.12591">
        <ele>118.2</ele>
        <time>2016-02-07T09:17:07Z</time>
      </trkpt>
      <trkpt lat="49.00236" lon="1.12605">
        <ele>118.3</ele>
        <time>2016-02-07T09:17:10Z</time>
      </trkpt>
      <trkpt lat="49.0024" lon="1.12622">
        <ele>118.4</ele>
        <time>2016-02-07T09:17:13Z</time>
      </trkpt>
      <trkpt lat="49.00241" lon="1.12638">
        <ele>118.6</ele>
        <time>2016-02-07T09:17:16Z</time>
      </trkpt>
      <trkpt lat="49.00244" lon="1.12655">
        <ele>118.7</ele>
        <time>2016-02-07T09:17:19Z</time>
      </trkpt>
      <trkpt lat="49.00246" lon="1.12669">
        <ele>118.8</ele>
        <time>2016-02-07T09:17:21Z</time>
      </trkpt>
      <trkpt lat="49.00247" lon="1.12689">
        <ele>118.8</ele>
        <time>2016-02-07T09:17:24Z</time>
      </trkpt>
      <trkpt lat="49.00244" lon="1.12704">
        <ele>118.9</ele>
        <time>2016-02-07T09:17:26Z</time>
      </trkpt>
      <trkpt lat="49.00243" lon="1.12719">
        <ele>119</ele>
        <time>2016-02-07T09:17:28Z</time>
      </trkpt>
      <trkpt lat="49.00245" lon="1.12733">
        <ele>119.1</ele>
        <time>2016-02-07T09:17:30Z</time>
      </trkpt>
      <trkpt lat="49.00245" lon="1.12751">
        <ele>119.3</ele>
        <time>2016-02-07T09:17:33Z</time>
      </trkpt>
      <trkpt lat="49.00248" lon="1.12765">
        <ele>119.6</ele>
        <time>2016-02-07T09:17:37Z</time>
      </trkpt>
      <trkpt lat="49.00247" lon="1.12783">
        <ele>120</ele>
        <time>2016-02-07T09:17:42Z</time>
      </trkpt>
      <trkpt lat="49.00247" lon="1.12798">
        <ele>120.4</ele>
        <time>2016-02-07T09:17:46Z</time>
      </trkpt>
      <trkpt lat="49.00247" lon="1.12815">
        <ele>120.7</ele>
        <time>2016-02-07T09:17:50Z</time>
      </trkpt>
      <trkpt lat="49.00248" lon="1.12829">
        <ele>121.1</ele>
        <time>2016-02-07T09:17:55Z</time>
      </trkpt>
      <trkpt lat="49.00251" lon="1.12843">
        <ele>121.3</ele>
        <time>2016-02-07T09:18:00Z</time>
      </trkpt>
      <trkpt lat="49.00241" lon="1.12844">
        <ele>121.8</ele>
        <time>2016-02-07T09:18:07Z</time>
      </trkpt>
      <trkpt lat="49.00231" lon="1.12844">
        <ele>123</ele>
        <time>2016-02-07T09:19:33Z</time>
      </trkpt>
      <trkpt lat="49.00221" lon="1.12843">
        <ele>123</ele>
        <time>2016-02-07T09:19:37Z</time>
      </trkpt>
      <trkpt lat="49.00211" lon="1.12842">
        <ele>123.1</ele>
        <time>2016-02-07T09:19:40Z</time>
      </trkpt>
      <trkpt lat="49.002" lon="1.12841">
        <ele>123.1</ele>
        <time>2016-02-07T09:19:43Z</time>
      </trkpt>
      <trkpt lat="49.00189" lon="1.1284">
        <ele>123.2</ele>
        <time>2016-02-07T09:19:46Z</time>
      </trkpt>
      <trkpt lat="49.00178" lon="1.12838">
        <ele>123.4</ele>
        <time>2016-02-07T09:19:49Z</time>
      </trkpt>
      <trkpt lat="49.00167" lon="1.12837">
        <ele>123.6</ele>
        <time>2016-02-07T09:19:52Z</time>
      </trkpt>
      <trkpt lat="49.00156" lon="1.12836">
        <ele>123.8</ele>
        <time>2016-02-07T09:19:55Z</time>
      </trkpt>
      <trkpt lat="49.00145" lon="1.12834">
        <ele>124</ele>
        <time>2016-02-07T09:19:58Z</time>
      </trkpt>
      <trkpt lat="49.00133" lon="1.12833">
        <ele>124.2</ele>
        <time>2016-02-07T09:20:01Z</time>
      </trkpt>
      <trkpt lat="49.00121" lon="1.12831">
        <ele>124.3</ele>
        <time>2016-02-07T09:20:04Z</time>
      </trkpt>
      <trkpt lat="49.0011" lon="1.12829">
        <ele>124.4</ele>
        <time>2016-02-07T09:20:07Z</time>
      </trkpt>
      <trkpt lat="49.001" lon="1.12829">
        <ele>124.5</ele>
        <time>2016-02-07T09:20:10Z</time>
      </trkpt>
      <trkpt lat="49.00088" lon="1.12827">
        <ele>124.7</ele>
        <time>2016-02-07T09:20:14Z</time>
      </trkpt>
      <trkpt lat="49.00078" lon="1.12824">
        <ele>125</ele>
        <time>2016-02-07T09:20:17Z</time>
      </trkpt>
      <trkpt lat="49.00069" lon="1.12821">
        <ele>125.2</ele>
        <time>2016-02-07T09:20:20Z</time>
      </trkpt>
      <trkpt lat="49.00056" lon="1.12821">
        <ele>125.4</ele>
        <time>2016-02-07T09:20:23Z</time>
      </trkpt>
      <trkpt lat="49.00044" lon="1.12819">
        <ele>125.5</ele>
        <time>2016-02-07T09:20:26Z</time>
      </trkpt>
      <trkpt lat="49.00032" lon="1.12817">
        <ele>125.8</ele>
        <time>2016-02-07T09:20:29Z</time>
      </trkpt>
      <trkpt lat="49.00023" lon="1.12818">
        <ele>126</ele>
        <time>2016-02-07T09:20:31Z</time>
      </trkpt>
      <trkpt lat="49.00011" lon="1.12816">
        <ele>126.3</ele>
        <time>2016-02-07T09:20:34Z</time>
      </trkpt>
      <trkpt lat="48.99998" lon="1.12816">
        <ele>126.6</ele>
        <time>2016-02-07T09:20:37Z</time>
      </trkpt>
      <trkpt lat="48.99988" lon="1.12814">
        <ele>126.9</ele>
        <time>2016-02-07T09:20:40Z</time>
      </trkpt>
      <trkpt lat="48.99975" lon="1.12814">
        <ele>127.2</ele>
        <time>2016-02-07T09:20:43Z</time>
      </trkpt>
      <trkpt lat="48.99963" lon="1.12813">
        <ele>127.4</ele>
        <time>2016-02-07T09:20:46Z</time>
      </trkpt>
      <trkpt lat="48.99951" lon="1.12813">
        <ele>127.7</ele>
        <time>2016-02-07T09:20:49Z</time>
      </trkpt>
      <trkpt lat="48.99939" lon="1.12812">
        <ele>128</ele>
        <time>2016-02-07T09:20:52Z</time>
      </trkpt>
      <trkpt lat="48.99928" lon="1.12808">
        <ele>128.2</ele>
        <time>2016-02-07T09:20:55Z</time>
      </trkpt>
      <trkpt lat="48.9992" lon="1.12798">
        <ele>128.4</ele>
        <time>2016-02-07T09:20:58Z</time>
      </trkpt>
      <trkpt lat="48.99913" lon="1.12783">
        <ele>128.6</ele>
        <time>2016-02-07T09:21:01Z</time>
      </trkpt>
      <trkpt lat="48.9991" lon="1.12769">
        <ele>128.7</ele>
        <time>2016-02-07T09:21:03Z</time>
      </trkpt>
      <trkpt lat="48.99907" lon="1.12754">
        <ele>128.8</ele>
        <time>2016-02-07T09:21:05Z</time>
      </trkpt>
      <trkpt lat="48.99904" lon="1.12739">
        <ele>128.9</ele>
        <time>2016-02-07T09:21:07Z</time>
      </trkpt>
      <trkpt lat="48.99901" lon="1.12722">
        <ele>128.8</ele>
        <time>2016-02-07T09:21:09Z</time>
      </trkpt>
      <trkpt lat="48.99899" lon="1.12706">
        <ele>128.8</ele>
        <time>2016-02-07T09:21:11Z</time>
      </trkpt>
      <trkpt lat="48.99897" lon="1.1269">
        <ele>128.7</ele>
        <time>2016-02-07T09:21:13Z</time>
      </trkpt>
      <trkpt lat="48.99894" lon="1.12674">
        <ele>128.5</ele>
        <time>2016-02-07T09:21:15Z</time>
      </trkpt>
      <trkpt lat="48.99891" lon="1.12658">
        <ele>128.4</ele>
        <time>2016-02-07T09:21:17Z</time>
      </trkpt>
      <trkpt lat="48.99888" lon="1.12643">
        <ele>128.2</ele>
        <time>2016-02-07T09:21:19Z</time>
      </trkpt>
      <trkpt lat="48.99886" lon="1.12627">
        <ele>128</ele>
        <time>2016-02-07T09:21:21Z</time>
      </trkpt>
      <trkpt lat="48.99883" lon="1.12611">
        <ele>127.7</ele>
        <time>2016-02-07T09:21:23Z</time>
      </trkpt>
      <trkpt lat="48.9988" lon="1.12594">
        <ele>127.5</ele>
        <time>2016-02-07T09:21:25Z</time>
      </trkpt>
      <trkpt lat="48.99877" lon="1.12576">
        <ele>127.2</ele>
        <time>2016-02-07T09:21:27Z</time>
      </trkpt>
      <trkpt lat="48.99874" lon="1.12558">
        <ele>126.9</ele>
        <time>2016-02-07T09:21:29Z</time>
      </trkpt>
      <trkpt lat="48.99871" lon="1.12539">
        <ele>126.5</ele>
        <time>2016-02-07T09:21:31Z</time>
      </trkpt>
      <trkpt lat="48.99869" lon="1.12521">
        <ele>126.1</ele>
        <time>2016-02-07T09:21:33Z</time>
      </trkpt>
      <trkpt lat="48.99868" lon="1.12503">
        <ele>125.7</ele>
        <time>2016-02-07T09:21:35Z</time>
      </trkpt>
      <trkpt lat="48.99866" lon="1.12486">
        <ele>125.3</ele>
        <time>2016-02-07T09:21:37Z</time>
      </trkpt>
      <trkpt lat="48.99863" lon="1.1247">
        <ele>124.8</ele>
        <time>2016-02-07T09:21:39Z</time>
      </trkpt>
      <trkpt lat="48.99859" lon="1.12454">
        <ele>124.1</ele>
        <time>2016-02-07T09:21:42Z</time>
      </trkpt>
      <trkpt lat="48.99857" lon="1.1244">
        <ele>123.6</ele>
        <time>2016-02-07T09:21:44Z</time>
      </trkpt>
      <trkpt lat="48.99856" lon="1.12423">
        <ele>123</ele>
        <time>2016-02-07T09:21:47Z</time>
      </trkpt>
      <trkpt lat="48.99864" lon="1.12412">
        <ele>122.1</ele>
        <time>2016-02-07T09:21:52Z</time>
      </trkpt>
      <trkpt lat="48.99873" lon="1.12403">
        <ele>121.5</ele>
        <time>2016-02-07T09:21:57Z</time>
      </trkpt>
      <trkpt lat="48.99881" lon="1.12395">
        <ele>121.1</ele>
        <time>2016-02-07T09:22:00Z</time>
      </trkpt>
      <trkpt lat="48.99888" lon="1.12382">
        <ele>120.7</ele>
        <time>2016-02-07T09:22:04Z</time>
      </trkpt>
      <trkpt lat="48.99896" lon="1.12373">
        <ele>120.2</ele>
        <time>2016-02-07T09:22:08Z</time>
      </trkpt>
      <trkpt lat="48.99901" lon="1.12385">
        <ele>119.6</ele>
        <time>2016-02-07T09:22:15Z</time>
      </trkpt>
      <trkpt lat="48.99906" lon="1.12396">
        <ele>119.2</ele>
        <time>2016-02-07T09:22:19Z</time>
      </trkpt>
      <trkpt lat="48.99913" lon="1.12406">
        <ele>118.9</ele>
        <time>2016-02-07T09:22:22Z</time>
      </trkpt>
      <trkpt lat="48.99921" lon="1.12417">
        <ele>118.4</ele>
        <time>2016-02-07T09:22:26Z</time>
      </trkpt>
      <trkpt lat="48.99931" lon="1.12421">
        <ele>117.9</ele>
        <time>2016-02-07T09:22:31Z</time>
      </trkpt>
      <trkpt lat="48.9994" lon="1.12425">
        <ele>117.4</ele>
        <time>2016-02-07T09:22:35Z</time>
      </trkpt>
      <trkpt lat="48.99946" lon="1.12412">
        <ele>116.8</ele>
        <time>2016-02-07T09:22:40Z</time>
      </trkpt>
      <trkpt lat="48.99957" lon="1.1241">
        <ele>116.4</ele>
        <time>2016-02-07T09:22:46Z</time>
      </trkpt>
      <trkpt lat="48.99966" lon="1.12405">
        <ele>116.1</ele>
        <time>2016-02-07T09:22:51Z</time>
      </trkpt>
      <trkpt lat="48.99975" lon="1.12396">
        <ele>115.9</ele>
        <time>2016-02-07T09:22:56Z</time>
      </trkpt>
      <trkpt lat="48.99983" lon="1.12389">
        <ele>115.8</ele>
        <time>2016-02-07T09:23:00Z</time>
      </trkpt>
      <trkpt lat="48.99992" lon="1.12378">
        <ele>115.7</ele>
        <time>2016-02-07T09:23:05Z</time>
      </trkpt>
      <trkpt lat="49.00002" lon="1.12372">
        <ele>115.6</ele>
        <time>2016-02-07T09:23:10Z</time>
      </trkpt>
      <trkpt lat="49.00012" lon="1.12367">
        <ele>115.5</ele>
        <time>2016-02-07T09:23:16Z</time>
      </trkpt>
      <trkpt lat="49.00021" lon="1.12363">
        <ele>115.4</ele>
        <time>2016-02-07T09:23:20Z</time>
      </trkpt>
      <trkpt lat="49.00027" lon="1.12349">
        <ele>115</ele>
        <time>2016-02-07T09:23:25Z</time>
      </trkpt>
      <trkpt lat="49.00032" lon="1.12337">
        <ele>114.7</ele>
        <time>2016-02-07T09:23:29Z</time>
      </trkpt>
      <trkpt lat="49.00036" lon="1.12324">
        <ele>114.4</ele>
        <time>2016-02-07T09:23:32Z</time>
      </trkpt>
      <trkpt lat="49.00042" lon="1.12313">
        <ele>114</ele>
        <time>2016-02-07T09:23:35Z</time>
      </trkpt>
      <trkpt lat="49.0005" lon="1.12301">
        <ele>113.5</ele>
        <time>2016-02-07T09:23:38Z</time>
      </trkpt>
      <trkpt lat="49.00059" lon="1.1229">
        <ele>113</ele>
        <time>2016-02-07T09:23:41Z</time>
      </trkpt>
      <trkpt lat="49.0006" lon="1.12275">
        <ele>112.2</ele>
        <time>2016-02-07T09:23:46Z</time>
      </trkpt>
      <trkpt lat="49.00059" lon="1.1226">
        <ele>111.6</ele>
        <time>2016-02-07T09:23:50Z</time>
      </trkpt>
      <trkpt lat="49.00062" lon="1.12244">
        <ele>111.3</ele>
        <time>2016-02-07T09:23:53Z</time>
      </trkpt>
      <trkpt lat="49.00064" lon="1.12226">
        <ele>110.6</ele>
        <time>2016-02-07T09:23:57Z</time>
      </trkpt>
      <trkpt lat="49.00072" lon="1.12213">
        <ele>110.1</ele>
        <time>2016-02-07T09:24:00Z</time>
      </trkpt>
      <trkpt lat="49.0008" lon="1.122">
        <ele>109.6</ele>
        <time>2016-02-07T09:24:03Z</time>
      </trkpt>
      <trkpt lat="49.00084" lon="1.12181">
        <ele>109</ele>
        <time>2016-02-07T09:24:06Z</time>
      </trkpt>
      <trkpt lat="49.00085" lon="1.1216">
        <ele>108.3</ele>
        <time>2016-02-07T09:24:09Z</time>
      </trkpt>
      <trkpt lat="49.00088" lon="1.12143">
        <ele>107.8</ele>
        <time>2016-02-07T09:24:12Z</time>
      </trkpt>
      <trkpt lat="49.00091" lon="1.12125">
        <ele>107.5</ele>
        <time>2016-02-07T09:24:14Z</time>
      </trkpt>
      <trkpt lat="49.00093" lon="1.12111">
        <ele>107.2</ele>
        <time>2016-02-07T09:24:16Z</time>
      </trkpt>
      <trkpt lat="49.00095" lon="1.12092">
        <ele>106.5</ele>
        <time>2016-02-07T09:24:19Z</time>
      </trkpt>
      <trkpt lat="49.00099" lon="1.12076">
        <ele>105.4</ele>
        <time>2016-02-07T09:24:22Z</time>
      </trkpt>
      <trkpt lat="49.00101" lon="1.12057">
        <ele>103.4</ele>
        <time>2016-02-07T09:24:26Z</time>
      </trkpt>
      <trkpt lat="49.00106" lon="1.12044">
        <ele>101.5</ele>
        <time>2016-02-07T09:24:29Z</time>
      </trkpt>
      <trkpt lat="49.00112" lon="1.12028">
        <ele>99.6</ele>
        <time>2016-02-07T09:24:32Z</time>
      </trkpt>
      <trkpt lat="49.00113" lon="1.12014">
        <ele>98.3</ele>
        <time>2016-02-07T09:24:34Z</time>
      </trkpt>
      <trkpt lat="49.00121" lon="1.12007">
        <ele>94.9</ele>
        <time>2016-02-07T09:24:40Z</time>
      </trkpt>
      <trkpt lat="49.0013" lon="1.12009">
        <ele>91.6</ele>
        <time>2016-02-07T09:24:49Z</time>
      </trkpt>
      <trkpt lat="49.00136" lon="1.1202">
        <ele>89.6</ele>
        <time>2016-02-07T09:24:59Z</time>
      </trkpt>
      <trkpt lat="49.00144" lon="1.12026">
        <ele>89.2</ele>
        <time>2016-02-07T09:25:02Z</time>
      </trkpt>
      <trkpt lat="49.00156" lon="1.12032">
        <ele>88.8</ele>
        <time>2016-02-07T09:25:05Z</time>
      </trkpt>
      <trkpt lat="49.00166" lon="1.1204">
        <ele>88.5</ele>
        <time>2016-02-07T09:25:08Z</time>
      </trkpt>
      <trkpt lat="49.00176" lon="1.12046">
        <ele>88.2</ele>
        <time>2016-02-07T09:25:11Z</time>
      </trkpt>
      <trkpt lat="49.00185" lon="1.12052">
        <ele>87.9</ele>
        <time>2016-02-07T09:25:14Z</time>
      </trkpt>
      <trkpt lat="49.00194" lon="1.1206">
        <ele>87.6</ele>
        <time>2016-02-07T09:25:18Z</time>
      </trkpt>
      <trkpt lat="49.00199" lon="1.12046">
        <ele>86.2</ele>
        <time>2016-02-07T09:25:56Z</time>
      </trkpt>
      <trkpt lat="49.00204" lon="1.1203">
        <ele>86</ele>
        <time>2016-02-07T09:26:00Z</time>
      </trkpt>
      <trkpt lat="49.00206" lon="1.12013">
        <ele>85.9</ele>
        <time>2016-02-07T09:26:04Z</time>
      </trkpt>
      <trkpt lat="49.00206" lon="1.12">
        <ele>85.8</ele>
        <time>2016-02-07T09:26:08Z</time>
      </trkpt>
      <trkpt lat="49.00205" lon="1.12014">
        <ele>86.8</ele>
        <time>2016-02-07T09:26:38Z</time>
      </trkpt>
      <trkpt lat="49.00205" lon="1.11999">
        <ele>85.2</ele>
        <time>2016-02-07T09:27:48Z</time>
      </trkpt>
      <trkpt lat="49.00206" lon="1.11984">
        <ele>85.7</ele>
        <time>2016-02-07T09:27:54Z</time>
      </trkpt>
      <trkpt lat="49.00204" lon="1.11968">
        <ele>86.9</ele>
        <time>2016-02-07T09:28:01Z</time>
      </trkpt>
      <trkpt lat="49.002" lon="1.11955">
        <ele>89.1</ele>
        <time>2016-02-07T09:28:09Z</time>
      </trkpt>
      <trkpt lat="49.00195" lon="1.11943">
        <ele>91.4</ele>
        <time>2016-02-07T09:28:17Z</time>
      </trkpt>
      <trkpt lat="49.00192" lon="1.11928">
        <ele>93.2</ele>
        <time>2016-02-07T09:28:24Z</time>
      </trkpt>
      <trkpt lat="49.00192" lon="1.11914">
        <ele>94.5</ele>
        <time>2016-02-07T09:28:30Z</time>
      </trkpt>
      <trkpt lat="49.00187" lon="1.119">
        <ele>95.7</ele>
        <time>2016-02-07T09:28:36Z</time>
      </trkpt>
      <trkpt lat="49.00184" lon="1.11886">
        <ele>96.8</ele>
        <time>2016-02-07T09:28:42Z</time>
      </trkpt>
      <trkpt lat="49.00181" lon="1.11871">
        <ele>97.7</ele>
        <time>2016-02-07T09:28:46Z</time>
      </trkpt>
      <trkpt lat="49.00184" lon="1.11857">
        <ele>98.3</ele>
        <time>2016-02-07T09:28:49Z</time>
      </trkpt>
      <trkpt lat="49.00183" lon="1.1184">
        <ele>99</ele>
        <time>2016-02-07T09:28:53Z</time>
      </trkpt>
      <trkpt lat="49.00184" lon="1.11824">
        <ele>99.6</ele>
        <time>2016-02-07T09:28:57Z</time>
      </trkpt>
      <trkpt lat="49.00186" lon="1.1181">
        <ele>100.1</ele>
        <time>2016-02-07T09:29:01Z</time>
      </trkpt>
      <trkpt lat="49.00184" lon="1.11793">
        <ele>100.6</ele>
        <time>2016-02-07T09:29:05Z</time>
      </trkpt>
      <trkpt lat="49.00182" lon="1.11779">
        <ele>101</ele>
        <time>2016-02-07T09:29:09Z</time>
      </trkpt>
      <trkpt lat="49.00181" lon="1.11765">
        <ele>101.5</ele>
        <time>2016-02-07T09:29:13Z</time>
      </trkpt>
      <trkpt lat="49.00178" lon="1.11751">
        <ele>102</ele>
        <time>2016-02-07T09:29:17Z</time>
      </trkpt>
      <trkpt lat="49.00175" lon="1.11737">
        <ele>102.6</ele>
        <time>2016-02-07T09:29:21Z</time>
      </trkpt>
      <trkpt lat="49.00172" lon="1.11724">
        <ele>103.1</ele>
        <time>2016-02-07T09:29:25Z</time>
      </trkpt>
      <trkpt lat="49.00168" lon="1.11708">
        <ele>103.8</ele>
        <time>2016-02-07T09:29:30Z</time>
      </trkpt>
      <trkpt lat="49.00164" lon="1.11692">
        <ele>104.6</ele>
        <time>2016-02-07T09:29:35Z</time>
      </trkpt>
      <trkpt lat="49.00161" lon="1.11674">
        <ele>105.2</ele>
        <time>2016-02-07T09:29:39Z</time>
      </trkpt>
      <trkpt lat="49.00157" lon="1.11659">
        <ele>105.9</ele>
        <time>2016-02-07T09:29:43Z</time>
      </trkpt>
      <trkpt lat="49.00153" lon="1.11644">
        <ele>106.5</ele>
        <time>2016-02-07T09:29:47Z</time>
      </trkpt>
      <trkpt lat="49.00149" lon="1.1163">
        <ele>106.9</ele>
        <time>2016-02-07T09:29:51Z</time>
      </trkpt>
      <trkpt lat="49.00144" lon="1.11614">
        <ele>107.3</ele>
        <time>2016-02-07T09:29:55Z</time>
      </trkpt>
      <trkpt lat="49.0014" lon="1.11597">
        <ele>107.8</ele>
        <time>2016-02-07T09:29:59Z</time>
      </trkpt>
      <trkpt lat="49.00137" lon="1.11579">
        <ele>108.1</ele>
        <time>2016-02-07T09:30:02Z</time>
      </trkpt>
      <trkpt lat="49.00135" lon="1.11563">
        <ele>108.5</ele>
        <time>2016-02-07T09:30:05Z</time>
      </trkpt>
      <trkpt lat="49.00133" lon="1.11549">
        <ele>108.7</ele>
        <time>2016-02-07T09:30:08Z</time>
      </trkpt>
      <trkpt lat="49.00131" lon="1.1153">
        <ele>109</ele>
        <time>2016-02-07T09:30:11Z</time>
      </trkpt>
      <trkpt lat="49.00127" lon="1.11513">
        <ele>109.2</ele>
        <time>2016-02-07T09:30:14Z</time>
      </trkpt>
      <trkpt lat="49.00123" lon="1.11498">
        <ele>109.4</ele>
        <time>2016-02-07T09:30:17Z</time>
      </trkpt>
      <trkpt lat="49.0012" lon="1.11484">
        <ele>109.5</ele>
        <time>2016-02-07T09:30:20Z</time>
      </trkpt>
      <trkpt lat="49.00116" lon="1.1147">
        <ele>109.7</ele>
        <time>2016-02-07T09:30:25Z</time>
      </trkpt>
      <trkpt lat="49.00114" lon="1.11457">
        <ele>110.5</ele>
        <time>2016-02-07T09:32:10Z</time>
      </trkpt>
      <trkpt lat="49.00121" lon="1.11449">
        <ele>109.6</ele>
        <time>2016-02-07T09:34:19Z</time>
      </trkpt>
      <trkpt lat="49.00118" lon="1.11463">
        <ele>109.3</ele>
        <time>2016-02-07T09:35:11Z</time>
      </trkpt>
      <trkpt lat="49.00125" lon="1.11455">
        <ele>108.6</ele>
        <time>2016-02-07T09:38:37Z</time>
      </trkpt>
      <trkpt lat="49.00137" lon="1.1145">
        <ele>108.4</ele>
        <time>2016-02-07T09:39:16Z</time>
      </trkpt>
      <trkpt lat="49.00148" lon="1.11445">
        <ele>108.3</ele>
        <time>2016-02-07T09:39:19Z</time>
      </trkpt>
      <trkpt lat="49.00157" lon="1.11441">
        <ele>108.2</ele>
        <time>2016-02-07T09:39:21Z</time>
      </trkpt>
      <trkpt lat="49.00166" lon="1.11437">
        <ele>107.8</ele>
        <time>2016-02-07T09:39:23Z</time>
      </trkpt>
      <trkpt lat="49.00177" lon="1.11432">
        <ele>107.4</ele>
        <time>2016-02-07T09:39:25Z</time>
      </trkpt>
      <trkpt lat="49.00191" lon="1.11426">
        <ele>107</ele>
        <time>2016-02-07T09:39:27Z</time>
      </trkpt>
      <trkpt lat="49.00206" lon="1.1142">
        <ele>106.4</ele>
        <time>2016-02-07T09:39:29Z</time>
      </trkpt>
      <trkpt lat="49.0022" lon="1.11416">
        <ele>105.9</ele>
        <time>2016-02-07T09:39:31Z</time>
      </trkpt>
      <trkpt lat="49.00233" lon="1.11412">
        <ele>105.2</ele>
        <time>2016-02-07T09:39:33Z</time>
      </trkpt>
      <trkpt lat="49.00246" lon="1.11407">
        <ele>104.4</ele>
        <time>2016-02-07T09:39:35Z</time>
      </trkpt>
      <trkpt lat="49.00258" lon="1.11401">
        <ele>103.6</ele>
        <time>2016-02-07T09:39:37Z</time>
      </trkpt>
      <trkpt lat="49.00269" lon="1.11393">
        <ele>102.6</ele>
        <time>2016-02-07T09:39:39Z</time>
      </trkpt>
      <trkpt lat="49.00279" lon="1.11388">
        <ele>101.5</ele>
        <time>2016-02-07T09:39:41Z</time>
      </trkpt>
      <trkpt lat="49.00292" lon="1.11384">
        <ele>100.2</ele>
        <time>2016-02-07T09:39:43Z</time>
      </trkpt>
      <trkpt lat="49.00301" lon="1.1138">
        <ele>98.9</ele>
        <time>2016-02-07T09:39:45Z</time>
      </trkpt>
      <trkpt lat="49.00311" lon="1.11373">
        <ele>97.6</ele>
        <time>2016-02-07T09:39:47Z</time>
      </trkpt>
      <trkpt lat="49.00317" lon="1.11359">
        <ele>95.7</ele>
        <time>2016-02-07T09:39:50Z</time>
      </trkpt>
      <trkpt lat="49.00317" lon="1.1134">
        <ele>93.8</ele>
        <time>2016-02-07T09:39:53Z</time>
      </trkpt>
      <trkpt lat="49.00314" lon="1.11321">
        <ele>91.8</ele>
        <time>2016-02-07T09:39:56Z</time>
      </trkpt>
      <trkpt lat="49.00302" lon="1.1131">
        <ele>90</ele>
        <time>2016-02-07T09:39:59Z</time>
      </trkpt>
      <trkpt lat="49.00294" lon="1.11302">
        <ele>88.9</ele>
        <time>2016-02-07T09:40:01Z</time>
      </trkpt>
      <trkpt lat="49.00285" lon="1.11293">
        <ele>88</ele>
        <time>2016-02-07T09:40:03Z</time>
      </trkpt>
      <trkpt lat="49.00274" lon="1.11287">
        <ele>87</ele>
        <time>2016-02-07T09:40:05Z</time>
      </trkpt>
      <trkpt lat="49.00265" lon="1.11283">
        <ele>86.1</ele>
        <time>2016-02-07T09:40:07Z</time>
      </trkpt>
      <trkpt lat="49.00255" lon="1.11281">
        <ele>85.3</ele>
        <time>2016-02-07T09:40:09Z</time>
      </trkpt>
      <trkpt lat="49.00246" lon="1.11278">
        <ele>84.6</ele>
        <time>2016-02-07T09:40:11Z</time>
      </trkpt>
      <trkpt lat="49.00235" lon="1.11274">
        <ele>83.9</ele>
        <time>2016-02-07T09:40:13Z</time>
      </trkpt>
      <trkpt lat="49.00224" lon="1.11269">
        <ele>83.3</ele>
        <time>2016-02-07T09:40:15Z</time>
      </trkpt>
      <trkpt lat="49.00214" lon="1.11265">
        <ele>82.8</ele>
        <time>2016-02-07T09:40:17Z</time>
      </trkpt>
      <trkpt lat="49.00203" lon="1.11259">
        <ele>82.3</ele>
        <time>2016-02-07T09:40:19Z</time>
      </trkpt>
      <trkpt lat="49.00194" lon="1.11253">
        <ele>81.9</ele>
        <time>2016-02-07T09:40:21Z</time>
      </trkpt>
      <trkpt lat="49.00184" lon="1.11249">
        <ele>81.5</ele>
        <time>2016-02-07T09:40:23Z</time>
      </trkpt>
      <trkpt lat="49.00173" lon="1.11246">
        <ele>81.1</ele>
        <time>2016-02-07T09:40:26Z</time>
      </trkpt>
      <trkpt lat="49.00164" lon="1.11238">
        <ele>81</ele>
        <time>2016-02-07T09:40:29Z</time>
      </trkpt>
      <trkpt lat="49.00153" lon="1.11231">
        <ele>81</ele>
        <time>2016-02-07T09:40:32Z</time>
      </trkpt>
      <trkpt lat="49.00142" lon="1.11224">
        <ele>81.2</ele>
        <time>2016-02-07T09:40:35Z</time>
      </trkpt>
      <trkpt lat="49.00134" lon="1.11217">
        <ele>81.4</ele>
        <time>2016-02-07T09:40:38Z</time>
      </trkpt>
      <trkpt lat="49.00124" lon="1.11211">
        <ele>81.8</ele>
        <time>2016-02-07T09:40:42Z</time>
      </trkpt>
      <trkpt lat="49.00115" lon="1.11206">
        <ele>82.4</ele>
        <time>2016-02-07T09:40:46Z</time>
      </trkpt>
      <trkpt lat="49.00106" lon="1.11203">
        <ele>83.1</ele>
        <time>2016-02-07T09:40:50Z</time>
      </trkpt>
      <trkpt lat="49.00097" lon="1.112">
        <ele>84</ele>
        <time>2016-02-07T09:40:55Z</time>
      </trkpt>
      <trkpt lat="49.00086" lon="1.11199">
        <ele>84.6</ele>
        <time>2016-02-07T09:40:59Z</time>
      </trkpt>
      <trkpt lat="49.00074" lon="1.11193">
        <ele>85.3</ele>
        <time>2016-02-07T09:41:04Z</time>
      </trkpt>
      <trkpt lat="49.00065" lon="1.11189">
        <ele>85.7</ele>
        <time>2016-02-07T09:41:07Z</time>
      </trkpt>
      <trkpt lat="49.00055" lon="1.11185">
        <ele>86</ele>
        <time>2016-02-07T09:41:11Z</time>
      </trkpt>
      <trkpt lat="49.00046" lon="1.11182">
        <ele>86.3</ele>
        <time>2016-02-07T09:41:15Z</time>
      </trkpt>
      <trkpt lat="49.00037" lon="1.11175">
        <ele>86.6</ele>
        <time>2016-02-07T09:41:20Z</time>
      </trkpt>
      <trkpt lat="49.0003" lon="1.11166">
        <ele>86.8</ele>
        <time>2016-02-07T09:41:24Z</time>
      </trkpt>
      <trkpt lat="49.00021" lon="1.11162">
        <ele>87</ele>
        <time>2016-02-07T09:41:28Z</time>
      </trkpt>
      <trkpt lat="49.00011" lon="1.1116">
        <ele>87.4</ele>
        <time>2016-02-07T09:41:32Z</time>
      </trkpt>
      <trkpt lat="49.00001" lon="1.11156">
        <ele>88.1</ele>
        <time>2016-02-07T09:41:37Z</time>
      </trkpt>
      <trkpt lat="48.99994" lon="1.11165">
        <ele>89.3</ele>
        <time>2016-02-07T09:41:44Z</time>
      </trkpt>
      <trkpt lat="48.99988" lon="1.11176">
        <ele>90</ele>
        <time>2016-02-07T09:41:48Z</time>
      </trkpt>
      <trkpt lat="48.9998" lon="1.11187">
        <ele>91.1</ele>
        <time>2016-02-07T09:41:53Z</time>
      </trkpt>
      <trkpt lat="48.99974" lon="1.112">
        <ele>92.7</ele>
        <time>2016-02-07T09:41:59Z</time>
      </trkpt>
      <trkpt lat="48.9997" lon="1.11213">
        <ele>93.7</ele>
        <time>2016-02-07T09:42:03Z</time>
      </trkpt>
      <trkpt lat="48.99964" lon="1.11225">
        <ele>95</ele>
        <time>2016-02-07T09:42:07Z</time>
      </trkpt>
      <trkpt lat="48.9996" lon="1.11237">
        <ele>96.3</ele>
        <time>2016-02-07T09:42:12Z</time>
      </trkpt>
      <trkpt lat="48.99959" lon="1.11251">
        <ele>97.1</ele>
        <time>2016-02-07T09:42:16Z</time>
      </trkpt>
      <trkpt lat="48.99962" lon="1.11266">
        <ele>98</ele>
        <time>2016-02-07T09:42:21Z</time>
      </trkpt>
      <trkpt lat="48.99963" lon="1.11281">
        <ele>99</ele>
        <time>2016-02-07T09:42:26Z</time>
      </trkpt>
      <trkpt lat="48.99967" lon="1.113">
        <ele>100.3</ele>
        <time>2016-02-07T09:42:32Z</time>
      </trkpt>
      <trkpt lat="48.99969" lon="1.11316">
        <ele>101.5</ele>
        <time>2016-02-07T09:42:37Z</time>
      </trkpt>
      <trkpt lat="48.99972" lon="1.11332">
        <ele>102.7</ele>
        <time>2016-02-07T09:42:42Z</time>
      </trkpt>
      <trkpt lat="48.99975" lon="1.11345">
        <ele>103</ele>
        <time>2016-02-07T09:42:46Z</time>
      </trkpt>
      <trkpt lat="48.99978" lon="1.11361">
        <ele>105</ele>
        <time>2016-02-07T09:42:51Z</time>
      </trkpt>
      <trkpt lat="48.99985" lon="1.11381">
        <ele>106</ele>
        <time>2016-02-07T09:42:57Z</time>
      </trkpt>
      <trkpt lat="48.99989" lon="1.11398">
        <ele>107.4</ele>
        <time>2016-02-07T09:43:01Z</time>
      </trkpt>
      <trkpt lat="48.99994" lon="1.11414">
        <ele>108.2</ele>
        <time>2016-02-07T09:43:05Z</time>
      </trkpt>
      <trkpt lat="48.99999" lon="1.1143">
        <ele>108.9</ele>
        <time>2016-02-07T09:43:09Z</time>
      </trkpt>
      <trkpt lat="49.00003" lon="1.11447">
        <ele>109.4</ele>
        <time>2016-02-07T09:43:13Z</time>
      </trkpt>
      <trkpt lat="49.00006" lon="1.11459">
        <ele>109.7</ele>
        <time>2016-02-07T09:43:16Z</time>
      </trkpt>
      <trkpt lat="49.00007" lon="1.11474">
        <ele>110</ele>
        <time>2016-02-07T09:43:19Z</time>
      </trkpt>
      <trkpt lat="49.00011" lon="1.11487">
        <ele>110.4</ele>
        <time>2016-02-07T09:43:23Z</time>
      </trkpt>
      <trkpt lat="49.00007" lon="1.11499">
        <ele>110.7</ele>
        <time>2016-02-07T09:43:29Z</time>
      </trkpt>
      <trkpt lat="49.00007" lon="1.11513">
        <ele>111.5</ele>
        <time>2016-02-07T09:44:49Z</time>
      </trkpt>
      <trkpt lat="48.99998" lon="1.11517">
        <ele>111.4</ele>
        <time>2016-02-07T09:44:53Z</time>
      </trkpt>
      <trkpt lat="48.99989" lon="1.11521">
        <ele>111.4</ele>
        <time>2016-02-07T09:44:55Z</time>
      </trkpt>
      <trkpt lat="48.99976" lon="1.11528">
        <ele>111.4</ele>
        <time>2016-02-07T09:44:58Z</time>
      </trkpt>
      <trkpt lat="48.99967" lon="1.11532">
        <ele>111.4</ele>
        <time>2016-02-07T09:45:00Z</time>
      </trkpt>
      <trkpt lat="48.99956" lon="1.11536">
        <ele>111.4</ele>
        <time>2016-02-07T09:45:03Z</time>
      </trkpt>
      <trkpt lat="48.99944" lon="1.11542">
        <ele>111.4</ele>
        <time>2016-02-07T09:45:06Z</time>
      </trkpt>
      <trkpt lat="48.99934" lon="1.11547">
        <ele>111.4</ele>
        <time>2016-02-07T09:45:09Z</time>
      </trkpt>
      <trkpt lat="48.99924" lon="1.11552">
        <ele>111.4</ele>
        <time>2016-02-07T09:45:11Z</time>
      </trkpt>
      <trkpt lat="48.99915" lon="1.11543">
        <ele>111.5</ele>
        <time>2016-02-07T09:45:15Z</time>
      </trkpt>
      <trkpt lat="48.99913" lon="1.11526">
        <ele>111.5</ele>
        <time>2016-02-07T09:45:18Z</time>
      </trkpt>
      <trkpt lat="48.99908" lon="1.1151">
        <ele>111.5</ele>
        <time>2016-02-07T09:45:20Z</time>
      </trkpt>
      <trkpt lat="48.99903" lon="1.11494">
        <ele>111.6</ele>
        <time>2016-02-07T09:45:22Z</time>
      </trkpt>
      <trkpt lat="48.99898" lon="1.11476">
        <ele>111.6</ele>
        <time>2016-02-07T09:45:24Z</time>
      </trkpt>
      <trkpt lat="48.99896" lon="1.11459">
        <ele>111.6</ele>
        <time>2016-02-07T09:45:26Z</time>
      </trkpt>
      <trkpt lat="48.99891" lon="1.11444">
        <ele>111.6</ele>
        <time>2016-02-07T09:45:28Z</time>
      </trkpt>
      <trkpt lat="48.99888" lon="1.1143">
        <ele>111.6</ele>
        <time>2016-02-07T09:45:30Z</time>
      </trkpt>
      <trkpt lat="48.99885" lon="1.11414">
        <ele>111.6</ele>
        <time>2016-02-07T09:45:32Z</time>
      </trkpt>
      <trkpt lat="48.99882" lon="1.11399">
        <ele>111.5</ele>
        <time>2016-02-07T09:45:34Z</time>
      </trkpt>
      <trkpt lat="48.99878" lon="1.11384">
        <ele>111.4</ele>
        <time>2016-02-07T09:45:36Z</time>
      </trkpt>
      <trkpt lat="48.99872" lon="1.11371">
        <ele>111.3</ele>
        <time>2016-02-07T09:45:38Z</time>
      </trkpt>
      <trkpt lat="48.9986" lon="1.11366">
        <ele>111</ele>
        <time>2016-02-07T09:45:41Z</time>
      </trkpt>
      <trkpt lat="48.99844" lon="1.1137">
        <ele>110</ele>
        <time>2016-02-07T09:45:45Z</time>
      </trkpt>
      <trkpt lat="48.99835" lon="1.11377">
        <ele>110.5</ele>
        <time>2016-02-07T09:45:48Z</time>
      </trkpt>
      <trkpt lat="48.99825" lon="1.11399">
        <ele>110</ele>
        <time>2016-02-07T09:45:52Z</time>
      </trkpt>
      <trkpt lat="48.9982" lon="1.11414">
        <ele>110.2</ele>
        <time>2016-02-07T09:45:55Z</time>
      </trkpt>
      <trkpt lat="48.99814" lon="1.11428">
        <ele>109</ele>
        <time>2016-02-07T09:45:58Z</time>
      </trkpt>
      <trkpt lat="48.99807" lon="1.11444">
        <ele>110</ele>
        <time>2016-02-07T09:46:01Z</time>
      </trkpt>
      <trkpt lat="48.99801" lon="1.11456">
        <ele>109</ele>
        <time>2016-02-07T09:46:03Z</time>
      </trkpt>
      <trkpt lat="48.99793" lon="1.11475">
        <ele>110</ele>
        <time>2016-02-07T09:46:06Z</time>
      </trkpt>
      <trkpt lat="48.99792" lon="1.11492">
        <ele>110</ele>
        <time>2016-02-07T09:46:09Z</time>
      </trkpt>
      <trkpt lat="48.99794" lon="1.11507">
        <ele>110</ele>
        <time>2016-02-07T09:46:13Z</time>
      </trkpt>
      <trkpt lat="48.998" lon="1.11518">
        <ele>110</ele>
        <time>2016-02-07T09:46:16Z</time>
      </trkpt>
      <trkpt lat="48.99799" lon="1.11539">
        <ele>110.3</ele>
        <time>2016-02-07T09:46:19Z</time>
      </trkpt>
      <trkpt lat="48.99797" lon="1.11559">
        <ele>110.3</ele>
        <time>2016-02-07T09:46:22Z</time>
      </trkpt>
      <trkpt lat="48.99793" lon="1.11572">
        <ele>110.4</ele>
        <time>2016-02-07T09:46:24Z</time>
      </trkpt>
      <trkpt lat="48.99792" lon="1.11588">
        <ele>110.5</ele>
        <time>2016-02-07T09:46:27Z</time>
      </trkpt>
      <trkpt lat="48.99794" lon="1.11602">
        <ele>110.5</ele>
        <time>2016-02-07T09:46:30Z</time>
      </trkpt>
      <trkpt lat="48.99782" lon="1.11612">
        <ele>110.6</ele>
        <time>2016-02-07T09:46:34Z</time>
      </trkpt>
      <trkpt lat="48.99773" lon="1.11618">
        <ele>110.5</ele>
        <time>2016-02-07T09:46:37Z</time>
      </trkpt>
      <trkpt lat="48.99759" lon="1.11626">
        <ele>110</ele>
        <time>2016-02-07T09:46:41Z</time>
      </trkpt>
      <trkpt lat="48.99748" lon="1.11633">
        <ele>110.3</ele>
        <time>2016-02-07T09:46:44Z</time>
      </trkpt>
      <trkpt lat="48.99738" lon="1.11632">
        <ele>110.1</ele>
        <time>2016-02-07T09:46:47Z</time>
      </trkpt>
      <trkpt lat="48.99735" lon="1.11617">
        <ele>109.8</ele>
        <time>2016-02-07T09:46:50Z</time>
      </trkpt>
      <trkpt lat="48.99727" lon="1.11605">
        <ele>109.5</ele>
        <time>2016-02-07T09:46:54Z</time>
      </trkpt>
      <trkpt lat="48.99719" lon="1.11598">
        <ele>109.3</ele>
        <time>2016-02-07T09:46:57Z</time>
      </trkpt>
      <trkpt lat="48.9971" lon="1.11592">
        <ele>109.2</ele>
        <time>2016-02-07T09:46:59Z</time>
      </trkpt>
      <trkpt lat="48.997" lon="1.11584">
        <ele>109.2</ele>
        <time>2016-02-07T09:47:01Z</time>
      </trkpt>
      <trkpt lat="48.99689" lon="1.11574">
        <ele>109</ele>
        <time>2016-02-07T09:47:04Z</time>
      </trkpt>
      <trkpt lat="48.99681" lon="1.11566">
        <ele>109</ele>
        <time>2016-02-07T09:47:06Z</time>
      </trkpt>
      <trkpt lat="48.99671" lon="1.11558">
        <ele>108.9</ele>
        <time>2016-02-07T09:47:08Z</time>
      </trkpt>
      <trkpt lat="48.99659" lon="1.11558">
        <ele>108.9</ele>
        <time>2016-02-07T09:47:11Z</time>
      </trkpt>
      <trkpt lat="48.99647" lon="1.11564">
        <ele>108</ele>
        <time>2016-02-07T09:47:14Z</time>
      </trkpt>
      <trkpt lat="48.99635" lon="1.11572">
        <ele>108.9</ele>
        <time>2016-02-07T09:47:17Z</time>
      </trkpt>
      <trkpt lat="48.99625" lon="1.11579">
        <ele>108.9</ele>
        <time>2016-02-07T09:47:20Z</time>
      </trkpt>
      <trkpt lat="48.99616" lon="1.11581">
        <ele>109.8</ele>
        <time>2016-02-07T09:47:41Z</time>
      </trkpt>
      <trkpt lat="48.99608" lon="1.11589">
        <ele>110.4</ele>
        <time>2016-02-07T09:47:58Z</time>
      </trkpt>
      <trkpt lat="48.99598" lon="1.11595">
        <ele>110.5</ele>
        <time>2016-02-07T09:48:03Z</time>
      </trkpt>
      <trkpt lat="48.99589" lon="1.11601">
        <ele>110</ele>
        <time>2016-02-07T09:48:06Z</time>
      </trkpt>
      <trkpt lat="48.9958" lon="1.11608">
        <ele>110.6</ele>
        <time>2016-02-07T09:48:09Z</time>
      </trkpt>
      <trkpt lat="48.99568" lon="1.11617">
        <ele>110.7</ele>
        <time>2016-02-07T09:48:12Z</time>
      </trkpt>
      <trkpt lat="48.99552" lon="1.11627">
        <ele>110.9</ele>
        <time>2016-02-07T09:48:17Z</time>
      </trkpt>
      <trkpt lat="48.99539" lon="1.11638">
        <ele>111</ele>
        <time>2016-02-07T09:48:20Z</time>
      </trkpt>
      <trkpt lat="48.99522" lon="1.11651">
        <ele>111.2</ele>
        <time>2016-02-07T09:48:23Z</time>
      </trkpt>
      <trkpt lat="48.99512" lon="1.11657">
        <ele>111.3</ele>
        <time>2016-02-07T09:48:25Z</time>
      </trkpt>
      <trkpt lat="48.99502" lon="1.11667">
        <ele>111.4</ele>
        <time>2016-02-07T09:48:28Z</time>
      </trkpt>
      <trkpt lat="48.99491" lon="1.11674">
        <ele>111.4</ele>
        <time>2016-02-07T09:48:30Z</time>
      </trkpt>
      <trkpt lat="48.99482" lon="1.1168">
        <ele>111.5</ele>
        <time>2016-02-07T09:48:32Z</time>
      </trkpt>
      <trkpt lat="48.9948" lon="1.11664">
        <ele>111.6</ele>
        <time>2016-02-07T09:48:40Z</time>
      </trkpt>
      <trkpt lat="48.99486" lon="1.11646">
        <ele>111.6</ele>
        <time>2016-02-07T09:48:43Z</time>
      </trkpt>
      <trkpt lat="48.99491" lon="1.1163">
        <ele>111.7</ele>
        <time>2016-02-07T09:48:46Z</time>
      </trkpt>
      <trkpt lat="48.99496" lon="1.11617">
        <ele>111.8</ele>
        <time>2016-02-07T09:48:48Z</time>
      </trkpt>
      <trkpt lat="48.99503" lon="1.11607">
        <ele>111.9</ele>
        <time>2016-02-07T09:48:50Z</time>
      </trkpt>
      <trkpt lat="48.9951" lon="1.11598">
        <ele>111.9</ele>
        <time>2016-02-07T09:48:52Z</time>
      </trkpt>
      <trkpt lat="48.99518" lon="1.11589">
        <ele>112</ele>
        <time>2016-02-07T09:48:54Z</time>
      </trkpt>
      <trkpt lat="48.99525" lon="1.11578">
        <ele>112.1</ele>
        <time>2016-02-07T09:48:56Z</time>
      </trkpt>
      <trkpt lat="48.99533" lon="1.11569">
        <ele>112.1</ele>
        <time>2016-02-07T09:48:58Z</time>
      </trkpt>
      <trkpt lat="48.9954" lon="1.11558">
        <ele>112.2</ele>
        <time>2016-02-07T09:49:00Z</time>
      </trkpt>
      <trkpt lat="48.99548" lon="1.11545">
        <ele>112.2</ele>
        <time>2016-02-07T09:49:03Z</time>
      </trkpt>
      <trkpt lat="48.99553" lon="1.11533">
        <ele>112.3</ele>
        <time>2016-02-07T09:49:05Z</time>
      </trkpt>
      <trkpt lat="48.99559" lon="1.11523">
        <ele>112.4</ele>
        <time>2016-02-07T09:49:07Z</time>
      </trkpt>
      <trkpt lat="48.99566" lon="1.11513">
        <ele>112.5</ele>
        <time>2016-02-07T09:49:09Z</time>
      </trkpt>
      <trkpt lat="48.99573" lon="1.11504">
        <ele>112.6</ele>
        <time>2016-02-07T09:49:12Z</time>
      </trkpt>
      <trkpt lat="48.9957" lon="1.11489">
        <ele>112.8</ele>
        <time>2016-02-07T09:49:18Z</time>
      </trkpt>
      <trkpt lat="48.99564" lon="1.11478">
        <ele>112.8</ele>
        <time>2016-02-07T09:49:22Z</time>
      </trkpt>
      <trkpt lat="48.99558" lon="1.11467">
        <ele>112.5</ele>
        <time>2016-02-07T09:49:44Z</time>
      </trkpt>
      <trkpt lat="48.99547" lon="1.11461">
        <ele>112.4</ele>
        <time>2016-02-07T09:49:48Z</time>
      </trkpt>
      <trkpt lat="48.99539" lon="1.11452">
        <ele>112.3</ele>
        <time>2016-02-07T09:49:50Z</time>
      </trkpt>
      <trkpt lat="48.99532" lon="1.1144">
        <ele>112.1</ele>
        <time>2016-02-07T09:49:52Z</time>
      </trkpt>
      <trkpt lat="48.99522" lon="1.11432">
        <ele>111.2</ele>
        <time>2016-02-07T09:49:55Z</time>
      </trkpt>
      <trkpt lat="48.99512" lon="1.11429">
        <ele>110.4</ele>
        <time>2016-02-07T09:49:57Z</time>
      </trkpt>
      <trkpt lat="48.99504" lon="1.11424">
        <ele>109.5</ele>
        <time>2016-02-07T09:49:59Z</time>
      </trkpt>
      <trkpt lat="48.99494" lon="1.11422">
        <ele>108.1</ele>
        <time>2016-02-07T09:50:01Z</time>
      </trkpt>
      <trkpt lat="48.99484" lon="1.11421">
        <ele>106.7</ele>
        <time>2016-02-07T09:50:03Z</time>
      </trkpt>
      <trkpt lat="48.99474" lon="1.1142">
        <ele>105.3</ele>
        <time>2016-02-07T09:50:05Z</time>
      </trkpt>
      <trkpt lat="48.99464" lon="1.11417">
        <ele>103.6</ele>
        <time>2016-02-07T09:50:07Z</time>
      </trkpt>
      <trkpt lat="48.99455" lon="1.11415">
        <ele>101.8</ele>
        <time>2016-02-07T09:50:09Z</time>
      </trkpt>
      <trkpt lat="48.99445" lon="1.11412">
        <ele>99.9</ele>
        <time>2016-02-07T09:50:11Z</time>
      </trkpt>
      <trkpt lat="48.99433" lon="1.11408">
        <ele>97.1</ele>
        <time>2016-02-07T09:50:14Z</time>
      </trkpt>
      <trkpt lat="48.99423" lon="1.11405">
        <ele>95.1</ele>
        <time>2016-02-07T09:50:16Z</time>
      </trkpt>
      <trkpt lat="48.99413" lon="1.11401">
        <ele>92.3</ele>
        <time>2016-02-07T09:50:19Z</time>
      </trkpt>
      <trkpt lat="48.99403" lon="1.11394">
        <ele>88.8</ele>
        <time>2016-02-07T09:50:23Z</time>
      </trkpt>
      <trkpt lat="48.99394" lon="1.11391">
        <ele>86.1</ele>
        <time>2016-02-07T09:50:26Z</time>
      </trkpt>
      <trkpt lat="48.9938" lon="1.11384">
        <ele>83.4</ele>
        <time>2016-02-07T09:50:29Z</time>
      </trkpt>
      <trkpt lat="48.99366" lon="1.11384">
        <ele>81.7</ele>
        <time>2016-02-07T09:50:31Z</time>
      </trkpt>
      <trkpt lat="48.99357" lon="1.11389">
        <ele>69.1</ele>
        <time>2016-02-07T09:51:07Z</time>
      </trkpt>
      <trkpt lat="48.99354" lon="1.11405">
        <ele>66</ele>
        <time>2016-02-07T09:52:48Z</time>
      </trkpt>
      <trkpt lat="48.99357" lon="1.1142">
        <ele>66</ele>
        <time>2016-02-07T09:52:51Z</time>
      </trkpt>
      <trkpt lat="48.99364" lon="1.11435">
        <ele>66</ele>
        <time>2016-02-07T09:52:54Z</time>
      </trkpt>
      <trkpt lat="48.9937" lon="1.11447">
        <ele>66</ele>
        <time>2016-02-07T09:52:56Z</time>
      </trkpt>
      <trkpt lat="48.99376" lon="1.1146">
        <ele>66</ele>
        <time>2016-02-07T09:52:58Z</time>
      </trkpt>
      <trkpt lat="48.99382" lon="1.11474">
        <ele>66</ele>
        <time>2016-02-07T09:53:00Z</time>
      </trkpt>
      <trkpt lat="48.99387" lon="1.11489">
        <ele>65.9</ele>
        <time>2016-02-07T09:53:02Z</time>
      </trkpt>
      <trkpt lat="48.99392" lon="1.11503">
        <ele>65.9</ele>
        <time>2016-02-07T09:53:04Z</time>
      </trkpt>
      <trkpt lat="48.99397" lon="1.11518">
        <ele>65.9</ele>
        <time>2016-02-07T09:53:06Z</time>
      </trkpt>
      <trkpt lat="48.994" lon="1.11535">
        <ele>65.9</ele>
        <time>2016-02-07T09:53:08Z</time>
      </trkpt>
      <trkpt lat="48.99403" lon="1.11553">
        <ele>65.9</ele>
        <time>2016-02-07T09:53:10Z</time>
      </trkpt>
      <trkpt lat="48.99403" lon="1.11572">
        <ele>65.9</ele>
        <time>2016-02-07T09:53:12Z</time>
      </trkpt>
      <trkpt lat="48.994" lon="1.11591">
        <ele>65.8</ele>
        <time>2016-02-07T09:53:14Z</time>
      </trkpt>
      <trkpt lat="48.99396" lon="1.11609">
        <ele>65.8</ele>
        <time>2016-02-07T09:53:16Z</time>
      </trkpt>
      <trkpt lat="48.99391" lon="1.11624">
        <ele>65.8</ele>
        <time>2016-02-07T09:53:18Z</time>
      </trkpt>
      <trkpt lat="48.99385" lon="1.11637">
        <ele>65.8</ele>
        <time>2016-02-07T09:53:20Z</time>
      </trkpt>
      <trkpt lat="48.99381" lon="1.1165">
        <ele>65.7</ele>
        <time>2016-02-07T09:53:22Z</time>
      </trkpt>
      <trkpt lat="48.99375" lon="1.11661">
        <ele>65.7</ele>
        <time>2016-02-07T09:53:24Z</time>
      </trkpt>
      <trkpt lat="48.99368" lon="1.11678">
        <ele>65.7</ele>
        <time>2016-02-07T09:53:27Z</time>
      </trkpt>
      <trkpt lat="48.99362" lon="1.11689">
        <ele>65.7</ele>
        <time>2016-02-07T09:53:29Z</time>
      </trkpt>
      <trkpt lat="48.99354" lon="1.11704">
        <ele>65.6</ele>
        <time>2016-02-07T09:53:32Z</time>
      </trkpt>
      <trkpt lat="48.99345" lon="1.1172">
        <ele>65.6</ele>
        <time>2016-02-07T09:53:35Z</time>
      </trkpt>
      <trkpt lat="48.99336" lon="1.11733">
        <ele>65.6</ele>
        <time>2016-02-07T09:53:38Z</time>
      </trkpt>
      <trkpt lat="48.99328" lon="1.11747">
        <ele>65.6</ele>
        <time>2016-02-07T09:53:41Z</time>
      </trkpt>
      <trkpt lat="48.99319" lon="1.1176">
        <ele>65.7</ele>
        <time>2016-02-07T09:53:44Z</time>
      </trkpt>
      <trkpt lat="48.9931" lon="1.11773">
        <ele>65.7</ele>
        <time>2016-02-07T09:53:47Z</time>
      </trkpt>
      <trkpt lat="48.993" lon="1.11786">
        <ele>65.7</ele>
        <time>2016-02-07T09:53:50Z</time>
      </trkpt>
      <trkpt lat="48.99291" lon="1.11796">
        <ele>65.8</ele>
        <time>2016-02-07T09:53:53Z</time>
      </trkpt>
      <trkpt lat="48.99282" lon="1.11811">
        <ele>65.8</ele>
        <time>2016-02-07T09:53:56Z</time>
      </trkpt>
      <trkpt lat="48.99278" lon="1.11826">
        <ele>65.8</ele>
        <time>2016-02-07T09:53:59Z</time>
      </trkpt>
      <trkpt lat="48.99271" lon="1.11841">
        <ele>65.8</ele>
        <time>2016-02-07T09:54:02Z</time>
      </trkpt>
      <trkpt lat="48.99262" lon="1.11851">
        <ele>65.8</ele>
        <time>2016-02-07T09:54:04Z</time>
      </trkpt>
      <trkpt lat="48.99255" lon="1.11859">
        <ele>65.8</ele>
        <time>2016-02-07T09:54:06Z</time>
      </trkpt>
      <trkpt lat="48.99246" lon="1.11866">
        <ele>65.8</ele>
        <time>2016-02-07T09:54:08Z</time>
      </trkpt>
      <trkpt lat="48.99235" lon="1.11875">
        <ele>65.8</ele>
        <time>2016-02-07T09:54:11Z</time>
      </trkpt>
      <trkpt lat="48.99223" lon="1.11883">
        <ele>65.9</ele>
        <time>2016-02-07T09:54:14Z</time>
      </trkpt>
      <trkpt lat="48.99211" lon="1.11888">
        <ele>65.9</ele>
        <time>2016-02-07T09:54:17Z</time>
      </trkpt>
      <trkpt lat="48.99199" lon="1.1189">
        <ele>66</ele>
        <time>2016-02-07T09:54:20Z</time>
      </trkpt>
      <trkpt lat="48.99189" lon="1.11891">
        <ele>66</ele>
        <time>2016-02-07T09:54:23Z</time>
      </trkpt>
      <trkpt lat="48.99178" lon="1.11891">
        <ele>66.1</ele>
        <time>2016-02-07T09:54:26Z</time>
      </trkpt>
      <trkpt lat="48.99167" lon="1.11889">
        <ele>66.1</ele>
        <time>2016-02-07T09:54:29Z</time>
      </trkpt>
      <trkpt lat="48.99157" lon="1.11886">
        <ele>66.2</ele>
        <time>2016-02-07T09:54:32Z</time>
      </trkpt>
      <trkpt lat="48.99146" lon="1.1188">
        <ele>66.5</ele>
        <time>2016-02-07T09:54:35Z</time>
      </trkpt>
      <trkpt lat="48.99137" lon="1.11873">
        <ele>66.6</ele>
        <time>2016-02-07T09:54:38Z</time>
      </trkpt>
      <trkpt lat="48.99129" lon="1.11863">
        <ele>66.8</ele>
        <time>2016-02-07T09:54:41Z</time>
      </trkpt>
      <trkpt lat="48.99121" lon="1.11855">
        <ele>67</ele>
        <time>2016-02-07T09:54:44Z</time>
      </trkpt>
      <trkpt lat="48.99113" lon="1.11842">
        <ele>67.2</ele>
        <time>2016-02-07T09:54:48Z</time>
      </trkpt>
      <trkpt lat="48.99105" lon="1.11833">
        <ele>67.4</ele>
        <time>2016-02-07T09:54:51Z</time>
      </trkpt>
      <trkpt lat="48.99097" lon="1.11824">
        <ele>67.6</ele>
        <time>2016-02-07T09:54:54Z</time>
      </trkpt>
      <trkpt lat="48.99086" lon="1.11812">
        <ele>67.8</ele>
        <time>2016-02-07T09:54:57Z</time>
      </trkpt>
      <trkpt lat="48.99077" lon="1.11803">
        <ele>67.9</ele>
        <time>2016-02-07T09:55:00Z</time>
      </trkpt>
      <trkpt lat="48.99068" lon="1.11795">
        <ele>68.1</ele>
        <time>2016-02-07T09:55:03Z</time>
      </trkpt>
      <trkpt lat="48.99061" lon="1.11788">
        <ele>68.2</ele>
        <time>2016-02-07T09:55:06Z</time>
      </trkpt>
      <trkpt lat="48.99051" lon="1.11779">
        <ele>68.3</ele>
        <time>2016-02-07T09:55:09Z</time>
      </trkpt>
      <trkpt lat="48.99044" lon="1.11771">
        <ele>68.4</ele>
        <time>2016-02-07T09:55:12Z</time>
      </trkpt>
      <trkpt lat="48.99034" lon="1.11765">
        <ele>68.6</ele>
        <time>2016-02-07T09:55:15Z</time>
      </trkpt>
      <trkpt lat="48.99024" lon="1.11759">
        <ele>68.6</ele>
        <time>2016-02-07T09:55:18Z</time>
      </trkpt>
      <trkpt lat="48.99014" lon="1.11757">
        <ele>68.8</ele>
        <time>2016-02-07T09:55:21Z</time>
      </trkpt>
      <trkpt lat="48.99003" lon="1.11754">
        <ele>69</ele>
        <time>2016-02-07T09:55:25Z</time>
      </trkpt>
      <trkpt lat="48.98993" lon="1.11753">
        <ele>69.1</ele>
        <time>2016-02-07T09:55:28Z</time>
      </trkpt>
      <trkpt lat="48.98983" lon="1.11752">
        <ele>69.2</ele>
        <time>2016-02-07T09:55:31Z</time>
      </trkpt>
      <trkpt lat="48.98973" lon="1.11752">
        <ele>69.3</ele>
        <time>2016-02-07T09:55:35Z</time>
      </trkpt>
      <trkpt lat="48.98962" lon="1.11754">
        <ele>69.4</ele>
        <time>2016-02-07T09:55:39Z</time>
      </trkpt>
      <trkpt lat="48.98964" lon="1.11768">
        <ele>70.2</ele>
        <time>2016-02-07T09:55:47Z</time>
      </trkpt>
      <trkpt lat="48.98972" lon="1.11776">
        <ele>71.5</ele>
        <time>2016-02-07T09:55:54Z</time>
      </trkpt>
      <trkpt lat="48.9898" lon="1.1178">
        <ele>72.6</ele>
        <time>2016-02-07T09:55:59Z</time>
      </trkpt>
      <trkpt lat="48.9899" lon="1.11785">
        <ele>74.2</ele>
        <time>2016-02-07T09:56:05Z</time>
      </trkpt>
      <trkpt lat="48.98999" lon="1.11791">
        <ele>75.7</ele>
        <time>2016-02-07T09:56:11Z</time>
      </trkpt>
      <trkpt lat="48.99008" lon="1.11797">
        <ele>77.2</ele>
        <time>2016-02-07T09:56:17Z</time>
      </trkpt>
      <trkpt lat="48.99016" lon="1.11808">
        <ele>78.5</ele>
        <time>2016-02-07T09:56:23Z</time>
      </trkpt>
      <trkpt lat="48.99021" lon="1.1182">
        <ele>79.9</ele>
        <time>2016-02-07T09:56:29Z</time>
      </trkpt>
      <trkpt lat="48.99025" lon="1.11834">
        <ele>81.1</ele>
        <time>2016-02-07T09:56:35Z</time>
      </trkpt>
      <trkpt lat="48.99028" lon="1.11849">
        <ele>82.5</ele>
        <time>2016-02-07T09:56:41Z</time>
      </trkpt>
      <trkpt lat="48.99017" lon="1.11853">
        <ele>84.5</ele>
        <time>2016-02-07T09:56:48Z</time>
      </trkpt>
      <trkpt lat="48.99008" lon="1.11857">
        <ele>85.8</ele>
        <time>2016-02-07T09:56:53Z</time>
      </trkpt>
      <trkpt lat="48.98999" lon="1.11861">
        <ele>86.7</ele>
        <time>2016-02-07T09:56:57Z</time>
      </trkpt>
      <trkpt lat="48.98989" lon="1.11865">
        <ele>88.2</ele>
        <time>2016-02-07T09:57:03Z</time>
      </trkpt>
      <trkpt lat="48.98982" lon="1.11874">
        <ele>89.8</ele>
        <time>2016-02-07T09:57:10Z</time>
      </trkpt>
      <trkpt lat="48.98974" lon="1.11883">
        <ele>91.3</ele>
        <time>2016-02-07T09:57:16Z</time>
      </trkpt>
      <trkpt lat="48.98973" lon="1.11897">
        <ele>93.3</ele>
        <time>2016-02-07T09:57:22Z</time>
      </trkpt>
      <trkpt lat="48.98977" lon="1.1191">
        <ele>96.1</ele>
        <time>2016-02-07T09:57:30Z</time>
      </trkpt>
      <trkpt lat="48.98985" lon="1.11917">
        <ele>98.6</ele>
        <time>2016-02-07T09:57:37Z</time>
      </trkpt>
      <trkpt lat="48.98992" lon="1.11928">
        <ele>100.6</ele>
        <time>2016-02-07T09:57:43Z</time>
      </trkpt>
      <trkpt lat="48.98999" lon="1.1194">
        <ele>102.9</ele>
        <time>2016-02-07T09:57:50Z</time>
      </trkpt>
      <trkpt lat="48.99003" lon="1.11955">
        <ele>104.8</ele>
        <time>2016-02-07T09:57:56Z</time>
      </trkpt>
      <trkpt lat="48.99008" lon="1.11969">
        <ele>106.3</ele>
        <time>2016-02-07T09:58:01Z</time>
      </trkpt>
      <trkpt lat="48.99012" lon="1.11982">
        <ele>107.7</ele>
        <time>2016-02-07T09:58:06Z</time>
      </trkpt>
      <trkpt lat="48.99012" lon="1.11998">
        <ele>108.8</ele>
        <time>2016-02-07T09:58:11Z</time>
      </trkpt>
      <trkpt lat="48.99005" lon="1.12009">
        <ele>109.6</ele>
        <time>2016-02-07T09:58:15Z</time>
      </trkpt>
      <trkpt lat="48.99" lon="1.12024">
        <ele>110.5</ele>
        <time>2016-02-07T09:58:20Z</time>
      </trkpt>
      <trkpt lat="48.98996" lon="1.12038">
        <ele>111.3</ele>
        <time>2016-02-07T09:58:25Z</time>
      </trkpt>
      <trkpt lat="48.98999" lon="1.12023">
        <ele>113.1</ele>
        <time>2016-02-07T09:58:42Z</time>
      </trkpt>
      <trkpt lat="48.99006" lon="1.12011">
        <ele>113.3</ele>
        <time>2016-02-07T09:58:47Z</time>
      </trkpt>
      <trkpt lat="48.99013" lon="1.12001">
        <ele>113.5</ele>
        <time>2016-02-07T09:58:52Z</time>
      </trkpt>
      <trkpt lat="48.99023" lon="1.12001">
        <ele>113.5</ele>
        <time>2016-02-07T09:58:57Z</time>
      </trkpt>
      <trkpt lat="48.99033" lon="1.12011">
        <ele>113.3</ele>
        <time>2016-02-07T09:59:01Z</time>
      </trkpt>
      <trkpt lat="48.99043" lon="1.12013">
        <ele>113.2</ele>
        <time>2016-02-07T09:59:04Z</time>
      </trkpt>
      <trkpt lat="48.99054" lon="1.12016">
        <ele>113.1</ele>
        <time>2016-02-07T09:59:07Z</time>
      </trkpt>
      <trkpt lat="48.99064" lon="1.12019">
        <ele>113</ele>
        <time>2016-02-07T09:59:10Z</time>
      </trkpt>
      <trkpt lat="48.99075" lon="1.12029">
        <ele>112.9</ele>
        <time>2016-02-07T09:59:13Z</time>
      </trkpt>
      <trkpt lat="48.99084" lon="1.12035">
        <ele>112.7</ele>
        <time>2016-02-07T09:59:16Z</time>
      </trkpt>
      <trkpt lat="48.99093" lon="1.12037">
        <ele>112.6</ele>
        <time>2016-02-07T09:59:18Z</time>
      </trkpt>
      <trkpt lat="48.99106" lon="1.12037">
        <ele>112.5</ele>
        <time>2016-02-07T09:59:21Z</time>
      </trkpt>
      <trkpt lat="48.99114" lon="1.12043">
        <ele>112.4</ele>
        <time>2016-02-07T09:59:24Z</time>
      </trkpt>
      <trkpt lat="48.99122" lon="1.12053">
        <ele>112.3</ele>
        <time>2016-02-07T09:59:28Z</time>
      </trkpt>
      <trkpt lat="48.99124" lon="1.1207">
        <ele>112.1</ele>
        <time>2016-02-07T09:59:33Z</time>
      </trkpt>
      <trkpt lat="48.99124" lon="1.12087">
        <ele>112</ele>
        <time>2016-02-07T09:59:37Z</time>
      </trkpt>
      <trkpt lat="48.9912" lon="1.12102">
        <ele>111.7</ele>
        <time>2016-02-07T09:59:41Z</time>
      </trkpt>
      <trkpt lat="48.99116" lon="1.12116">
        <ele>111.5</ele>
        <time>2016-02-07T09:59:45Z</time>
      </trkpt>
      <trkpt lat="48.99119" lon="1.12133">
        <ele>111.3</ele>
        <time>2016-02-07T09:59:49Z</time>
      </trkpt>
      <trkpt lat="48.9912" lon="1.12147">
        <ele>110.9</ele>
        <time>2016-02-07T09:59:52Z</time>
      </trkpt>
      <trkpt lat="48.99123" lon="1.12164">
        <ele>110.4</ele>
        <time>2016-02-07T09:59:56Z</time>
      </trkpt>
      <trkpt lat="48.99121" lon="1.12182">
        <ele>110.1</ele>
        <time>2016-02-07T09:59:59Z</time>
      </trkpt>
      <trkpt lat="48.99111" lon="1.12194">
        <ele>109.9</ele>
        <time>2016-02-07T10:00:02Z</time>
      </trkpt>
      <trkpt lat="48.99102" lon="1.12202">
        <ele>109.7</ele>
        <time>2016-02-07T10:00:04Z</time>
      </trkpt>
      <trkpt lat="48.99094" lon="1.12211">
        <ele>109.7</ele>
        <time>2016-02-07T10:00:06Z</time>
      </trkpt>
      <trkpt lat="48.99085" lon="1.12221">
        <ele>109.6</ele>
        <time>2016-02-07T10:00:09Z</time>
      </trkpt>
      <trkpt lat="48.99076" lon="1.12232">
        <ele>109.7</ele>
        <time>2016-02-07T10:00:12Z</time>
      </trkpt>
      <trkpt lat="48.99065" lon="1.12245">
        <ele>109.8</ele>
        <time>2016-02-07T10:00:14Z</time>
      </trkpt>
      <trkpt lat="48.99057" lon="1.12254">
        <ele>109.9</ele>
        <time>2016-02-07T10:00:16Z</time>
      </trkpt>
      <trkpt lat="48.99044" lon="1.12261">
        <ele>110.1</ele>
        <time>2016-02-07T10:00:19Z</time>
      </trkpt>
      <trkpt lat="48.99036" lon="1.12252">
        <ele>110.3</ele>
        <time>2016-02-07T10:00:24Z</time>
      </trkpt>
      <trkpt lat="48.99033" lon="1.12238">
        <ele>110.6</ele>
        <time>2016-02-07T10:00:28Z</time>
      </trkpt>
      <trkpt lat="48.99028" lon="1.12223">
        <ele>110.8</ele>
        <time>2016-02-07T10:00:31Z</time>
      </trkpt>
      <trkpt lat="48.99024" lon="1.12206">
        <ele>111</ele>
        <time>2016-02-07T10:00:34Z</time>
      </trkpt>
      <trkpt lat="48.99022" lon="1.12189">
        <ele>111.3</ele>
        <time>2016-02-07T10:00:37Z</time>
      </trkpt>
      <trkpt lat="48.9902" lon="1.12173">
        <ele>111.5</ele>
        <time>2016-02-07T10:00:40Z</time>
      </trkpt>
      <trkpt lat="48.99015" lon="1.12155">
        <ele>111.7</ele>
        <time>2016-02-07T10:00:43Z</time>
      </trkpt>
      <trkpt lat="48.99011" lon="1.12136">
        <ele>111.9</ele>
        <time>2016-02-07T10:00:46Z</time>
      </trkpt>
      <trkpt lat="48.99008" lon="1.12123">
        <ele>111.9</ele>
        <time>2016-02-07T10:00:48Z</time>
      </trkpt>
      <trkpt lat="48.99004" lon="1.1211">
        <ele>112</ele>
        <time>2016-02-07T10:00:50Z</time>
      </trkpt>
      <trkpt lat="48.98999" lon="1.12093">
        <ele>112.2</ele>
        <time>2016-02-07T10:00:53Z</time>
      </trkpt>
      <trkpt lat="48.98996" lon="1.12078">
        <ele>112.4</ele>
        <time>2016-02-07T10:00:56Z</time>
      </trkpt>
      <trkpt lat="48.98993" lon="1.12064">
        <ele>112.7</ele>
        <time>2016-02-07T10:01:02Z</time>
      </trkpt>
      <trkpt lat="48.98988" lon="1.12051">
        <ele>113.5</ele>
        <time>2016-02-07T10:02:11Z</time>
      </trkpt>
      <trkpt lat="48.98993" lon="1.12039">
        <ele>113.5</ele>
        <time>2016-02-07T10:02:21Z</time>
      </trkpt>
      <trkpt lat="48.98997" lon="1.12026">
        <ele>113.5</ele>
        <time>2016-02-07T10:02:24Z</time>
      </trkpt>
      <trkpt lat="48.99006" lon="1.12012">
        <ele>113.5</ele>
        <time>2016-02-07T10:02:27Z</time>
      </trkpt>
      <trkpt lat="48.99013" lon="1.12002">
        <ele>113.5</ele>
        <time>2016-02-07T10:02:30Z</time>
      </trkpt>
      <trkpt lat="48.99024" lon="1.12008">
        <ele>113.3</ele>
        <time>2016-02-07T10:02:35Z</time>
      </trkpt>
      <trkpt lat="48.99034" lon="1.12013">
        <ele>113.1</ele>
        <time>2016-02-07T10:02:39Z</time>
      </trkpt>
      <trkpt lat="48.99045" lon="1.12018">
        <ele>113</ele>
        <time>2016-02-07T10:02:42Z</time>
      </trkpt>
      <trkpt lat="48.99059" lon="1.12021">
        <ele>112.6</ele>
        <time>2016-02-07T10:02:45Z</time>
      </trkpt>
      <trkpt lat="48.99069" lon="1.12032">
        <ele>112.3</ele>
        <time>2016-02-07T10:02:49Z</time>
      </trkpt>
      <trkpt lat="48.99079" lon="1.12038">
        <ele>112.1</ele>
        <time>2016-02-07T10:02:52Z</time>
      </trkpt>
      <trkpt lat="48.9909" lon="1.1204">
        <ele>112</ele>
        <time>2016-02-07T10:02:55Z</time>
      </trkpt>
      <trkpt lat="48.99099" lon="1.1204">
        <ele>111.7</ele>
        <time>2016-02-07T10:02:58Z</time>
      </trkpt>
      <trkpt lat="48.99109" lon="1.12045">
        <ele>111.2</ele>
        <time>2016-02-07T10:03:04Z</time>
      </trkpt>
      <trkpt lat="48.99119" lon="1.12055">
        <ele>111</ele>
        <time>2016-02-07T10:03:08Z</time>
      </trkpt>
      <trkpt lat="48.99122" lon="1.1207">
        <ele>110.8</ele>
        <time>2016-02-07T10:03:12Z</time>
      </trkpt>
      <trkpt lat="48.99121" lon="1.12088">
        <ele>110.6</ele>
        <time>2016-02-07T10:03:16Z</time>
      </trkpt>
      <trkpt lat="48.99118" lon="1.12102">
        <ele>110.5</ele>
        <time>2016-02-07T10:03:20Z</time>
      </trkpt>
      <trkpt lat="48.99115" lon="1.12118">
        <ele>110.4</ele>
        <time>2016-02-07T10:03:24Z</time>
      </trkpt>
      <trkpt lat="48.99116" lon="1.12131">
        <ele>110.3</ele>
        <time>2016-02-07T10:03:27Z</time>
      </trkpt>
      <trkpt lat="48.99117" lon="1.12145">
        <ele>110.1</ele>
        <time>2016-02-07T10:03:30Z</time>
      </trkpt>
      <trkpt lat="48.99119" lon="1.12159">
        <ele>109.9</ele>
        <time>2016-02-07T10:03:33Z</time>
      </trkpt>
      <trkpt lat="48.99119" lon="1.12176">
        <ele>109.7</ele>
        <time>2016-02-07T10:03:37Z</time>
      </trkpt>
      <trkpt lat="48.99128" lon="1.12179">
        <ele>109.4</ele>
        <time>2016-02-07T10:03:45Z</time>
      </trkpt>
      <trkpt lat="48.99137" lon="1.12171">
        <ele>109.1</ele>
        <time>2016-02-07T10:03:49Z</time>
      </trkpt>
      <trkpt lat="48.99146" lon="1.12163">
        <ele>109</ele>
        <time>2016-02-07T10:03:52Z</time>
      </trkpt>
      <trkpt lat="48.99157" lon="1.12154">
        <ele>108.8</ele>
        <time>2016-02-07T10:03:55Z</time>
      </trkpt>
      <trkpt lat="48.99165" lon="1.12147">
        <ele>108.5</ele>
        <time>2016-02-07T10:03:58Z</time>
      </trkpt>
      <trkpt lat="48.99172" lon="1.12139">
        <ele>108.4</ele>
        <time>2016-02-07T10:04:01Z</time>
      </trkpt>
      <trkpt lat="48.99181" lon="1.12128">
        <ele>108.2</ele>
        <time>2016-02-07T10:04:04Z</time>
      </trkpt>
      <trkpt lat="48.99188" lon="1.1212">
        <ele>108.1</ele>
        <time>2016-02-07T10:04:06Z</time>
      </trkpt>
      <trkpt lat="48.99197" lon="1.1211">
        <ele>108</ele>
        <time>2016-02-07T10:04:09Z</time>
      </trkpt>
      <trkpt lat="48.99206" lon="1.12097">
        <ele>108</ele>
        <time>2016-02-07T10:04:12Z</time>
      </trkpt>
      <trkpt lat="48.99216" lon="1.12086">
        <ele>108</ele>
        <time>2016-02-07T10:04:15Z</time>
      </trkpt>
      <trkpt lat="48.99225" lon="1.12073">
        <ele>107.9</ele>
        <time>2016-02-07T10:04:18Z</time>
      </trkpt>
      <trkpt lat="48.99234" lon="1.12076">
        <ele>107.7</ele>
        <time>2016-02-07T10:04:22Z</time>
      </trkpt>
      <trkpt lat="48.99244" lon="1.12088">
        <ele>107.4</ele>
        <time>2016-02-07T10:04:26Z</time>
      </trkpt>
      <trkpt lat="48.99253" lon="1.12099">
        <ele>107.2</ele>
        <time>2016-02-07T10:04:29Z</time>
      </trkpt>
      <trkpt lat="48.99263" lon="1.1211">
        <ele>106.8</ele>
        <time>2016-02-07T10:04:32Z</time>
      </trkpt>
      <trkpt lat="48.99271" lon="1.1212">
        <ele>106.4</ele>
        <time>2016-02-07T10:04:35Z</time>
      </trkpt>
      <trkpt lat="48.99278" lon="1.12133">
        <ele>106.1</ele>
        <time>2016-02-07T10:04:38Z</time>
      </trkpt>
      <trkpt lat="48.99285" lon="1.12145">
        <ele>105.7</ele>
        <time>2016-02-07T10:04:42Z</time>
      </trkpt>
      <trkpt lat="48.99288" lon="1.1216">
        <ele>105.2</ele>
        <time>2016-02-07T10:04:47Z</time>
      </trkpt>
      <trkpt lat="48.99297" lon="1.12157">
        <ele>104.6</ele>
        <time>2016-02-07T10:04:56Z</time>
      </trkpt>
      <trkpt lat="48.99304" lon="1.12145">
        <ele>104.4</ele>
        <time>2016-02-07T10:05:00Z</time>
      </trkpt>
      <trkpt lat="48.99311" lon="1.12135">
        <ele>104.3</ele>
        <time>2016-02-07T10:05:03Z</time>
      </trkpt>
      <trkpt lat="48.99316" lon="1.12124">
        <ele>104.3</ele>
        <time>2016-02-07T10:05:06Z</time>
      </trkpt>
      <trkpt lat="48.99325" lon="1.12113">
        <ele>104.3</ele>
        <time>2016-02-07T10:05:09Z</time>
      </trkpt>
      <trkpt lat="48.99332" lon="1.12101">
        <ele>104.3</ele>
        <time>2016-02-07T10:05:12Z</time>
      </trkpt>
      <trkpt lat="48.99342" lon="1.12088">
        <ele>104.4</ele>
        <time>2016-02-07T10:05:15Z</time>
      </trkpt>
      <trkpt lat="48.99353" lon="1.12075">
        <ele>104.4</ele>
        <time>2016-02-07T10:05:18Z</time>
      </trkpt>
      <trkpt lat="48.99362" lon="1.12063">
        <ele>104.5</ele>
        <time>2016-02-07T10:05:21Z</time>
      </trkpt>
      <trkpt lat="48.9937" lon="1.12055">
        <ele>104.6</ele>
        <time>2016-02-07T10:05:23Z</time>
      </trkpt>
      <trkpt lat="48.99377" lon="1.12045">
        <ele>104.6</ele>
        <time>2016-02-07T10:05:25Z</time>
      </trkpt>
      <trkpt lat="48.99384" lon="1.12035">
        <ele>104.6</ele>
        <time>2016-02-07T10:05:27Z</time>
      </trkpt>
      <trkpt lat="48.99393" lon="1.12021">
        <ele>104.6</ele>
        <time>2016-02-07T10:05:30Z</time>
      </trkpt>
      <trkpt lat="48.994" lon="1.12011">
        <ele>104.6</ele>
        <time>2016-02-07T10:05:32Z</time>
      </trkpt>
      <trkpt lat="48.99408" lon="1.12002">
        <ele>104.6</ele>
        <time>2016-02-07T10:05:34Z</time>
      </trkpt>
      <trkpt lat="48.99416" lon="1.11995">
        <ele>104.6</ele>
        <time>2016-02-07T10:05:36Z</time>
      </trkpt>
      <trkpt lat="48.99424" lon="1.11981">
        <ele>104.5</ele>
        <time>2016-02-07T10:05:39Z</time>
      </trkpt>
      <trkpt lat="48.99438" lon="1.11967">
        <ele>104.3</ele>
        <time>2016-02-07T10:05:42Z</time>
      </trkpt>
      <trkpt lat="48.99445" lon="1.11956">
        <ele>104.2</ele>
        <time>2016-02-07T10:05:44Z</time>
      </trkpt>
      <trkpt lat="48.99453" lon="1.11946">
        <ele>104</ele>
        <time>2016-02-07T10:05:46Z</time>
      </trkpt>
      <trkpt lat="48.99461" lon="1.11936">
        <ele>103.8</ele>
        <time>2016-02-07T10:05:48Z</time>
      </trkpt>
      <trkpt lat="48.9947" lon="1.11926">
        <ele>103.6</ele>
        <time>2016-02-07T10:05:50Z</time>
      </trkpt>
      <trkpt lat="48.99478" lon="1.11917">
        <ele>103.5</ele>
        <time>2016-02-07T10:05:52Z</time>
      </trkpt>
      <trkpt lat="48.99487" lon="1.11907">
        <ele>103.4</ele>
        <time>2016-02-07T10:05:55Z</time>
      </trkpt>
      <trkpt lat="48.99496" lon="1.11899">
        <ele>103.3</ele>
        <time>2016-02-07T10:05:58Z</time>
      </trkpt>
      <trkpt lat="48.99505" lon="1.11895">
        <ele>103.2</ele>
        <time>2016-02-07T10:06:00Z</time>
      </trkpt>
      <trkpt lat="48.99516" lon="1.1189">
        <ele>103.2</ele>
        <time>2016-02-07T10:06:02Z</time>
      </trkpt>
      <trkpt lat="48.99528" lon="1.11886">
        <ele>103</ele>
        <time>2016-02-07T10:06:04Z</time>
      </trkpt>
      <trkpt lat="48.99538" lon="1.11885">
        <ele>102.8</ele>
        <time>2016-02-07T10:06:06Z</time>
      </trkpt>
      <trkpt lat="48.9955" lon="1.11885">
        <ele>102.6</ele>
        <time>2016-02-07T10:06:08Z</time>
      </trkpt>
      <trkpt lat="48.9956" lon="1.11887">
        <ele>102.4</ele>
        <time>2016-02-07T10:06:10Z</time>
      </trkpt>
      <trkpt lat="48.99574" lon="1.11893">
        <ele>102.1</ele>
        <time>2016-02-07T10:06:13Z</time>
      </trkpt>
      <trkpt lat="48.99586" lon="1.11898">
        <ele>101.8</ele>
        <time>2016-02-07T10:06:16Z</time>
      </trkpt>
      <trkpt lat="48.99599" lon="1.11904">
        <ele>101.4</ele>
        <time>2016-02-07T10:06:19Z</time>
      </trkpt>
      <trkpt lat="48.9961" lon="1.11902">
        <ele>101</ele>
        <time>2016-02-07T10:06:21Z</time>
      </trkpt>
      <trkpt lat="48.99625" lon="1.11902">
        <ele>100.5</ele>
        <time>2016-02-07T10:06:24Z</time>
      </trkpt>
      <trkpt lat="48.99637" lon="1.11902">
        <ele>100.2</ele>
        <time>2016-02-07T10:06:26Z</time>
      </trkpt>
      <trkpt lat="48.99648" lon="1.11902">
        <ele>99.9</ele>
        <time>2016-02-07T10:06:28Z</time>
      </trkpt>
      <trkpt lat="48.99659" lon="1.11901">
        <ele>99.6</ele>
        <time>2016-02-07T10:06:30Z</time>
      </trkpt>
      <trkpt lat="48.99673" lon="1.11901">
        <ele>98.9</ele>
        <time>2016-02-07T10:06:33Z</time>
      </trkpt>
      <trkpt lat="48.99687" lon="1.11898">
        <ele>98.5</ele>
        <time>2016-02-07T10:06:35Z</time>
      </trkpt>
      <trkpt lat="48.99699" lon="1.11895">
        <ele>98.2</ele>
        <time>2016-02-07T10:06:37Z</time>
      </trkpt>
      <trkpt lat="48.99708" lon="1.11886">
        <ele>97.9</ele>
        <time>2016-02-07T10:06:39Z</time>
      </trkpt>
      <trkpt lat="48.99714" lon="1.11876">
        <ele>97.6</ele>
        <time>2016-02-07T10:06:41Z</time>
      </trkpt>
      <trkpt lat="48.99724" lon="1.1187">
        <ele>97.3</ele>
        <time>2016-02-07T10:06:43Z</time>
      </trkpt>
      <trkpt lat="48.99733" lon="1.11871">
        <ele>97.1</ele>
        <time>2016-02-07T10:06:45Z</time>
      </trkpt>
      <trkpt lat="48.99744" lon="1.11872">
        <ele>96.8</ele>
        <time>2016-02-07T10:06:47Z</time>
      </trkpt>
      <trkpt lat="48.99755" lon="1.11872">
        <ele>96.5</ele>
        <time>2016-02-07T10:06:49Z</time>
      </trkpt>
      <trkpt lat="48.99764" lon="1.11871">
        <ele>96.2</ele>
        <time>2016-02-07T10:06:51Z</time>
      </trkpt>
      <trkpt lat="48.99776" lon="1.11872">
        <ele>95.8</ele>
        <time>2016-02-07T10:06:53Z</time>
      </trkpt>
      <trkpt lat="48.99787" lon="1.11871">
        <ele>95.5</ele>
        <time>2016-02-07T10:06:55Z</time>
      </trkpt>
      <trkpt lat="48.998" lon="1.1187">
        <ele>95.1</ele>
        <time>2016-02-07T10:06:57Z</time>
      </trkpt>
      <trkpt lat="48.9981" lon="1.1187">
        <ele>94.7</ele>
        <time>2016-02-07T10:06:59Z</time>
      </trkpt>
      <trkpt lat="48.99825" lon="1.11869">
        <ele>94.3</ele>
        <time>2016-02-07T10:07:01Z</time>
      </trkpt>
      <trkpt lat="48.99838" lon="1.11871">
        <ele>94</ele>
        <time>2016-02-07T10:07:03Z</time>
      </trkpt>
      <trkpt lat="48.9985" lon="1.11874">
        <ele>93.7</ele>
        <time>2016-02-07T10:07:05Z</time>
      </trkpt>
      <trkpt lat="48.99861" lon="1.1188">
        <ele>93.3</ele>
        <time>2016-02-07T10:07:07Z</time>
      </trkpt>
      <trkpt lat="48.99873" lon="1.11886">
        <ele>92.9</ele>
        <time>2016-02-07T10:07:09Z</time>
      </trkpt>
      <trkpt lat="48.99884" lon="1.11892">
        <ele>92.5</ele>
        <time>2016-02-07T10:07:11Z</time>
      </trkpt>
      <trkpt lat="48.99897" lon="1.11897">
        <ele>92.1</ele>
        <time>2016-02-07T10:07:13Z</time>
      </trkpt>
      <trkpt lat="48.9991" lon="1.11902">
        <ele>91.8</ele>
        <time>2016-02-07T10:07:15Z</time>
      </trkpt>
      <trkpt lat="48.99923" lon="1.11908">
        <ele>91.3</ele>
        <time>2016-02-07T10:07:17Z</time>
      </trkpt>
      <trkpt lat="48.99936" lon="1.11912">
        <ele>90.9</ele>
        <time>2016-02-07T10:07:19Z</time>
      </trkpt>
      <trkpt lat="48.99946" lon="1.11918">
        <ele>90.6</ele>
        <time>2016-02-07T10:07:21Z</time>
      </trkpt>
      <trkpt lat="48.99957" lon="1.11924">
        <ele>90.2</ele>
        <time>2016-02-07T10:07:23Z</time>
      </trkpt>
      <trkpt lat="48.99969" lon="1.1193">
        <ele>89.8</ele>
        <time>2016-02-07T10:07:25Z</time>
      </trkpt>
      <trkpt lat="48.99981" lon="1.11937">
        <ele>89.4</ele>
        <time>2016-02-07T10:07:27Z</time>
      </trkpt>
      <trkpt lat="48.99992" lon="1.11941">
        <ele>89</ele>
        <time>2016-02-07T10:07:29Z</time>
      </trkpt>
      <trkpt lat="49.00003" lon="1.11948">
        <ele>88.3</ele>
        <time>2016-02-07T10:07:32Z</time>
      </trkpt>
      <trkpt lat="49.00012" lon="1.11956">
        <ele>87.5</ele>
        <time>2016-02-07T10:07:37Z</time>
      </trkpt>
      <trkpt lat="49.00018" lon="1.11967">
        <ele>87.1</ele>
        <time>2016-02-07T10:07:42Z</time>
      </trkpt>
      <trkpt lat="49.00017" lon="1.11981">
        <ele>87.4</ele>
        <time>2016-02-07T10:07:49Z</time>
      </trkpt>
      <trkpt lat="49.00013" lon="1.11994">
        <ele>88.3</ele>
        <time>2016-02-07T10:07:55Z</time>
      </trkpt>
      <trkpt lat="49.00006" lon="1.12006">
        <ele>89.3</ele>
        <time>2016-02-07T10:08:01Z</time>
      </trkpt>
      <trkpt lat="48.99999" lon="1.12014">
        <ele>90.5</ele>
        <time>2016-02-07T10:08:07Z</time>
      </trkpt>
      <trkpt lat="48.9999" lon="1.12021">
        <ele>91.5</ele>
        <time>2016-02-07T10:08:12Z</time>
      </trkpt>
      <trkpt lat="48.9998" lon="1.12028">
        <ele>92.7</ele>
        <time>2016-02-07T10:08:17Z</time>
      </trkpt>
      <trkpt lat="48.99972" lon="1.12035">
        <ele>94</ele>
        <time>2016-02-07T10:08:23Z</time>
      </trkpt>
      <trkpt lat="48.99963" lon="1.1204">
        <ele>95</ele>
        <time>2016-02-07T10:08:28Z</time>
      </trkpt>
      <trkpt lat="48.99953" lon="1.12042">
        <ele>96.1</ele>
        <time>2016-02-07T10:08:33Z</time>
      </trkpt>
      <trkpt lat="48.99944" lon="1.1204">
        <ele>96.8</ele>
        <time>2016-02-07T10:08:37Z</time>
      </trkpt>
      <trkpt lat="48.99934" lon="1.12032">
        <ele>97.7</ele>
        <time>2016-02-07T10:08:42Z</time>
      </trkpt>
      <trkpt lat="48.99925" lon="1.12028">
        <ele>98.6</ele>
        <time>2016-02-07T10:08:47Z</time>
      </trkpt>
      <trkpt lat="48.99917" lon="1.12019">
        <ele>99.3</ele>
        <time>2016-02-07T10:08:51Z</time>
      </trkpt>
      <trkpt lat="48.99908" lon="1.12009">
        <ele>99.8</ele>
        <time>2016-02-07T10:08:55Z</time>
      </trkpt>
      <trkpt lat="48.99899" lon="1.12004">
        <ele>100.2</ele>
        <time>2016-02-07T10:08:59Z</time>
      </trkpt>
      <trkpt lat="48.99888" lon="1.12003">
        <ele>100.6</ele>
        <time>2016-02-07T10:09:03Z</time>
      </trkpt>
      <trkpt lat="48.99877" lon="1.12005">
        <ele>101.2</ele>
        <time>2016-02-07T10:09:07Z</time>
      </trkpt>
      <trkpt lat="48.99869" lon="1.12013">
        <ele>101.6</ele>
        <time>2016-02-07T10:09:11Z</time>
      </trkpt>
      <trkpt lat="48.9986" lon="1.12019">
        <ele>102</ele>
        <time>2016-02-07T10:09:14Z</time>
      </trkpt>
      <trkpt lat="48.99849" lon="1.12025">
        <ele>102.5</ele>
        <time>2016-02-07T10:09:18Z</time>
      </trkpt>
      <trkpt lat="48.99839" lon="1.12028">
        <ele>103.1</ele>
        <time>2016-02-07T10:09:21Z</time>
      </trkpt>
      <trkpt lat="48.99828" lon="1.12031">
        <ele>103.7</ele>
        <time>2016-02-07T10:09:25Z</time>
      </trkpt>
      <trkpt lat="48.99818" lon="1.12031">
        <ele>104.2</ele>
        <time>2016-02-07T10:09:28Z</time>
      </trkpt>
      <trkpt lat="48.99808" lon="1.12024">
        <ele>104.7</ele>
        <time>2016-02-07T10:09:32Z</time>
      </trkpt>
      <trkpt lat="48.99799" lon="1.12019">
        <ele>105.1</ele>
        <time>2016-02-07T10:09:35Z</time>
      </trkpt>
      <trkpt lat="48.99789" lon="1.12021">
        <ele>105.4</ele>
        <time>2016-02-07T10:09:39Z</time>
      </trkpt>
      <trkpt lat="48.99795" lon="1.12034">
        <ele>106.5</ele>
        <time>2016-02-07T10:13:51Z</time>
      </trkpt>
      <trkpt lat="48.99799" lon="1.12046">
        <ele>106.5</ele>
        <time>2016-02-07T10:13:56Z</time>
      </trkpt>
      <trkpt lat="48.99801" lon="1.12062">
        <ele>106.5</ele>
        <time>2016-02-07T10:14:00Z</time>
      </trkpt>
      <trkpt lat="48.99803" lon="1.12077">
        <ele>106.6</ele>
        <time>2016-02-07T10:14:04Z</time>
      </trkpt>
      <trkpt lat="48.99804" lon="1.12091">
        <ele>106.7</ele>
        <time>2016-02-07T10:14:07Z</time>
      </trkpt>
      <trkpt lat="48.99808" lon="1.12109">
        <ele>106.9</ele>
        <time>2016-02-07T10:14:11Z</time>
      </trkpt>
      <trkpt lat="48.99811" lon="1.12125">
        <ele>107.1</ele>
        <time>2016-02-07T10:14:15Z</time>
      </trkpt>
      <trkpt lat="48.99812" lon="1.1214">
        <ele>107.3</ele>
        <time>2016-02-07T10:14:18Z</time>
      </trkpt>
      <trkpt lat="48.99815" lon="1.12158">
        <ele>107.4</ele>
        <time>2016-02-07T10:14:21Z</time>
      </trkpt>
      <trkpt lat="48.99819" lon="1.12174">
        <ele>107.5</ele>
        <time>2016-02-07T10:14:24Z</time>
      </trkpt>
      <trkpt lat="48.9982" lon="1.12191">
        <ele>107.7</ele>
        <time>2016-02-07T10:14:27Z</time>
      </trkpt>
      <trkpt lat="48.99818" lon="1.12207">
        <ele>107.9</ele>
        <time>2016-02-07T10:14:30Z</time>
      </trkpt>
      <trkpt lat="48.99819" lon="1.12224">
        <ele>108</ele>
        <time>2016-02-07T10:14:33Z</time>
      </trkpt>
      <trkpt lat="48.99824" lon="1.12241">
        <ele>108.1</ele>
        <time>2016-02-07T10:14:36Z</time>
      </trkpt>
      <trkpt lat="48.99829" lon="1.12258">
        <ele>108.3</ele>
        <time>2016-02-07T10:14:39Z</time>
      </trkpt>
      <trkpt lat="48.99833" lon="1.12273">
        <ele>108.5</ele>
        <time>2016-02-07T10:14:42Z</time>
      </trkpt>
      <trkpt lat="48.99836" lon="1.12288">
        <ele>108.7</ele>
        <time>2016-02-07T10:14:45Z</time>
      </trkpt>
      <trkpt lat="48.99839" lon="1.12305">
        <ele>108.9</ele>
        <time>2016-02-07T10:14:48Z</time>
      </trkpt>
      <trkpt lat="48.99845" lon="1.12322">
        <ele>109.2</ele>
        <time>2016-02-07T10:14:51Z</time>
      </trkpt>
      <trkpt lat="48.99846" lon="1.12338">
        <ele>109.5</ele>
        <time>2016-02-07T10:14:54Z</time>
      </trkpt>
      <trkpt lat="48.99847" lon="1.12357">
        <ele>109.7</ele>
        <time>2016-02-07T10:14:57Z</time>
      </trkpt>
      <trkpt lat="48.99849" lon="1.12373">
        <ele>110</ele>
        <time>2016-02-07T10:15:00Z</time>
      </trkpt>
      <trkpt lat="48.99854" lon="1.12391">
        <ele>110.1</ele>
        <time>2016-02-07T10:15:03Z</time>
      </trkpt>
      <trkpt lat="48.99856" lon="1.12411">
        <ele>110.3</ele>
        <time>2016-02-07T10:15:06Z</time>
      </trkpt>
      <trkpt lat="48.99857" lon="1.1243">
        <ele>110.4</ele>
        <time>2016-02-07T10:15:09Z</time>
      </trkpt>
      <trkpt lat="48.99859" lon="1.12447">
        <ele>110.4</ele>
        <time>2016-02-07T10:15:12Z</time>
      </trkpt>
      <trkpt lat="48.99862" lon="1.12465">
        <ele>110.4</ele>
        <time>2016-02-07T10:15:15Z</time>
      </trkpt>
      <trkpt lat="48.99864" lon="1.12481">
        <ele>110.4</ele>
        <time>2016-02-07T10:15:18Z</time>
      </trkpt>
      <trkpt lat="48.9987" lon="1.12498">
        <ele>110.5</ele>
        <time>2016-02-07T10:15:21Z</time>
      </trkpt>
      <trkpt lat="48.99874" lon="1.12516">
        <ele>110.6</ele>
        <time>2016-02-07T10:15:24Z</time>
      </trkpt>
      <trkpt lat="48.99873" lon="1.12532">
        <ele>110.7</ele>
        <time>2016-02-07T10:15:26Z</time>
      </trkpt>
      <trkpt lat="48.99875" lon="1.12549">
        <ele>111</ele>
        <time>2016-02-07T10:15:29Z</time>
      </trkpt>
      <trkpt lat="48.99877" lon="1.12566">
        <ele>111.2</ele>
        <time>2016-02-07T10:15:32Z</time>
      </trkpt>
      <trkpt lat="48.99879" lon="1.12582">
        <ele>111.5</ele>
        <time>2016-02-07T10:15:35Z</time>
      </trkpt>
      <trkpt lat="48.99882" lon="1.12597">
        <ele>111.9</ele>
        <time>2016-02-07T10:15:38Z</time>
      </trkpt>
      <trkpt lat="48.99884" lon="1.12613">
        <ele>112.3</ele>
        <time>2016-02-07T10:15:41Z</time>
      </trkpt>
      <trkpt lat="48.99887" lon="1.12628">
        <ele>112.7</ele>
        <time>2016-02-07T10:15:44Z</time>
      </trkpt>
      <trkpt lat="48.99889" lon="1.12644">
        <ele>113.1</ele>
        <time>2016-02-07T10:15:47Z</time>
      </trkpt>
      <trkpt lat="48.99891" lon="1.1266">
        <ele>113.4</ele>
        <time>2016-02-07T10:15:50Z</time>
      </trkpt>
      <trkpt lat="48.99894" lon="1.12677">
        <ele>113.7</ele>
        <time>2016-02-07T10:15:53Z</time>
      </trkpt>
      <trkpt lat="48.99896" lon="1.12694">
        <ele>114.1</ele>
        <time>2016-02-07T10:15:56Z</time>
      </trkpt>
      <trkpt lat="48.99898" lon="1.12711">
        <ele>114.5</ele>
        <time>2016-02-07T10:15:59Z</time>
      </trkpt>
      <trkpt lat="48.99902" lon="1.12726">
        <ele>114.9</ele>
        <time>2016-02-07T10:16:02Z</time>
      </trkpt>
      <trkpt lat="48.99892" lon="1.12726">
        <ele>115.8</ele>
        <time>2016-02-07T10:16:08Z</time>
      </trkpt>
      <trkpt lat="48.99885" lon="1.12717">
        <ele>116.4</ele>
        <time>2016-02-07T10:16:12Z</time>
      </trkpt>
      <trkpt lat="48.99877" lon="1.12709">
        <ele>116.7</ele>
        <time>2016-02-07T10:16:15Z</time>
      </trkpt>
      <trkpt lat="48.99868" lon="1.127">
        <ele>117</ele>
        <time>2016-02-07T10:16:18Z</time>
      </trkpt>
      <trkpt lat="48.99857" lon="1.12689">
        <ele>117.2</ele>
        <time>2016-02-07T10:16:21Z</time>
      </trkpt>
      <trkpt lat="48.99847" lon="1.12678">
        <ele>117.4</ele>
        <time>2016-02-07T10:16:24Z</time>
      </trkpt>
      <trkpt lat="48.99838" lon="1.12667">
        <ele>117.5</ele>
        <time>2016-02-07T10:16:27Z</time>
      </trkpt>
      <trkpt lat="48.99828" lon="1.12657">
        <ele>117.7</ele>
        <time>2016-02-07T10:16:30Z</time>
      </trkpt>
      <trkpt lat="48.9982" lon="1.1265">
        <ele>117.7</ele>
        <time>2016-02-07T10:16:32Z</time>
      </trkpt>
      <trkpt lat="48.99812" lon="1.12641">
        <ele>117.7</ele>
        <time>2016-02-07T10:16:34Z</time>
      </trkpt>
      <trkpt lat="48.99801" lon="1.12633">
        <ele>117.7</ele>
        <time>2016-02-07T10:16:37Z</time>
      </trkpt>
      <trkpt lat="48.99789" lon="1.12627">
        <ele>117.7</ele>
        <time>2016-02-07T10:16:40Z</time>
      </trkpt>
      <trkpt lat="48.99778" lon="1.12614">
        <ele>117.6</ele>
        <time>2016-02-07T10:16:43Z</time>
      </trkpt>
      <trkpt lat="48.99769" lon="1.12607">
        <ele>117.6</ele>
        <time>2016-02-07T10:16:45Z</time>
      </trkpt>
      <trkpt lat="48.99761" lon="1.12598">
        <ele>117.4</ele>
        <time>2016-02-07T10:16:47Z</time>
      </trkpt>
      <trkpt lat="48.99752" lon="1.1259">
        <ele>117.3</ele>
        <time>2016-02-07T10:16:49Z</time>
      </trkpt>
      <trkpt lat="48.99743" lon="1.12581">
        <ele>117.1</ele>
        <time>2016-02-07T10:16:51Z</time>
      </trkpt>
      <trkpt lat="48.99735" lon="1.12571">
        <ele>116.9</ele>
        <time>2016-02-07T10:16:53Z</time>
      </trkpt>
      <trkpt lat="48.99726" lon="1.12562">
        <ele>116.7</ele>
        <time>2016-02-07T10:16:55Z</time>
      </trkpt>
      <trkpt lat="48.99719" lon="1.12554">
        <ele>116.5</ele>
        <time>2016-02-07T10:16:57Z</time>
      </trkpt>
      <trkpt lat="48.9971" lon="1.12542">
        <ele>116.2</ele>
        <time>2016-02-07T10:17:00Z</time>
      </trkpt>
      <trkpt lat="48.99702" lon="1.12529">
        <ele>116</ele>
        <time>2016-02-07T10:17:03Z</time>
      </trkpt>
      <trkpt lat="48.99696" lon="1.12512">
        <ele>115.8</ele>
        <time>2016-02-07T10:17:06Z</time>
      </trkpt>
      <trkpt lat="48.99693" lon="1.12498">
        <ele>115.7</ele>
        <time>2016-02-07T10:17:08Z</time>
      </trkpt>
      <trkpt lat="48.9969" lon="1.12483">
        <ele>115.6</ele>
        <time>2016-02-07T10:17:11Z</time>
      </trkpt>
      <trkpt lat="48.99687" lon="1.12467">
        <ele>115.5</ele>
        <time>2016-02-07T10:17:14Z</time>
      </trkpt>
      <trkpt lat="48.99684" lon="1.12449">
        <ele>115.3</ele>
        <time>2016-02-07T10:17:17Z</time>
      </trkpt>
      <trkpt lat="48.99681" lon="1.12434">
        <ele>115.2</ele>
        <time>2016-02-07T10:17:20Z</time>
      </trkpt>
      <trkpt lat="48.99677" lon="1.12417">
        <ele>115.1</ele>
        <time>2016-02-07T10:17:23Z</time>
      </trkpt>
      <trkpt lat="48.99674" lon="1.12402">
        <ele>115.1</ele>
        <time>2016-02-07T10:17:26Z</time>
      </trkpt>
      <trkpt lat="48.99671" lon="1.12389">
        <ele>115</ele>
        <time>2016-02-07T10:17:29Z</time>
      </trkpt>
      <trkpt lat="48.99668" lon="1.12373">
        <ele>114.9</ele>
        <time>2016-02-07T10:17:33Z</time>
      </trkpt>
      <trkpt lat="48.99665" lon="1.1236">
        <ele>114.9</ele>
        <time>2016-02-07T10:17:36Z</time>
      </trkpt>
      <trkpt lat="48.99663" lon="1.12344">
        <ele>114.8</ele>
        <time>2016-02-07T10:17:39Z</time>
      </trkpt>
      <trkpt lat="48.9966" lon="1.12325">
        <ele>114.7</ele>
        <time>2016-02-07T10:17:42Z</time>
      </trkpt>
      <trkpt lat="48.99657" lon="1.12312">
        <ele>114.7</ele>
        <time>2016-02-07T10:17:44Z</time>
      </trkpt>
      <trkpt lat="48.99653" lon="1.12294">
        <ele>114.6</ele>
        <time>2016-02-07T10:17:47Z</time>
      </trkpt>
      <trkpt lat="48.99651" lon="1.12275">
        <ele>114.5</ele>
        <time>2016-02-07T10:17:50Z</time>
      </trkpt>
      <trkpt lat="48.99647" lon="1.12256">
        <ele>114.4</ele>
        <time>2016-02-07T10:17:53Z</time>
      </trkpt>
      <trkpt lat="48.99643" lon="1.1224">
        <ele>114.4</ele>
        <time>2016-02-07T10:17:56Z</time>
      </trkpt>
      <trkpt lat="48.99641" lon="1.12221">
        <ele>114.3</ele>
        <time>2016-02-07T10:17:59Z</time>
      </trkpt>
      <trkpt lat="48.99642" lon="1.12204">
        <ele>114.3</ele>
        <time>2016-02-07T10:18:02Z</time>
      </trkpt>
      <trkpt lat="48.99647" lon="1.12187">
        <ele>114.2</ele>
        <time>2016-02-07T10:18:06Z</time>
      </trkpt>
      <trkpt lat="48.9965" lon="1.1217">
        <ele>114.1</ele>
        <time>2016-02-07T10:18:09Z</time>
      </trkpt>
      <trkpt lat="48.99654" lon="1.12157">
        <ele>113.7</ele>
        <time>2016-02-07T10:18:13Z</time>
      </trkpt>
      <trkpt lat="48.99655" lon="1.1214">
        <ele>113.1</ele>
        <time>2016-02-07T10:18:18Z</time>
      </trkpt>
      <trkpt lat="48.99659" lon="1.12124">
        <ele>112.6</ele>
        <time>2016-02-07T10:18:23Z</time>
      </trkpt>
      <trkpt lat="48.99664" lon="1.12109">
        <ele>112.3</ele>
        <time>2016-02-07T10:18:27Z</time>
      </trkpt>
      <trkpt lat="48.99669" lon="1.12094">
        <ele>112.1</ele>
        <time>2016-02-07T10:18:31Z</time>
      </trkpt>
      <trkpt lat="48.99669" lon="1.12076">
        <ele>111.9</ele>
        <time>2016-02-07T10:18:35Z</time>
      </trkpt>
      <trkpt lat="48.99661" lon="1.12068">
        <ele>111.7</ele>
        <time>2016-02-07T10:18:39Z</time>
      </trkpt>
      <trkpt lat="48.99652" lon="1.12069">
        <ele>111.6</ele>
        <time>2016-02-07T10:18:42Z</time>
      </trkpt>
      <trkpt lat="48.99642" lon="1.12071">
        <ele>111.6</ele>
        <time>2016-02-07T10:18:45Z</time>
      </trkpt>
      <trkpt lat="48.99632" lon="1.12074">
        <ele>111.6</ele>
        <time>2016-02-07T10:18:48Z</time>
      </trkpt>
      <trkpt lat="48.99621" lon="1.12078">
        <ele>111.6</ele>
        <time>2016-02-07T10:18:51Z</time>
      </trkpt>
      <trkpt lat="48.9961" lon="1.12082">
        <ele>111.6</ele>
        <time>2016-02-07T10:18:54Z</time>
      </trkpt>
      <trkpt lat="48.996" lon="1.12084">
        <ele>111.7</ele>
        <time>2016-02-07T10:18:57Z</time>
      </trkpt>
      <trkpt lat="48.9959" lon="1.12088">
        <ele>111.8</ele>
        <time>2016-02-07T10:18:59Z</time>
      </trkpt>
      <trkpt lat="48.99578" lon="1.12092">
        <ele>112</ele>
        <time>2016-02-07T10:19:02Z</time>
      </trkpt>
      <trkpt lat="48.99565" lon="1.12096">
        <ele>112.1</ele>
        <time>2016-02-07T10:19:05Z</time>
      </trkpt>
      <trkpt lat="48.99553" lon="1.121">
        <ele>112.2</ele>
        <time>2016-02-07T10:19:08Z</time>
      </trkpt>
      <trkpt lat="48.9954" lon="1.12105">
        <ele>112.3</ele>
        <time>2016-02-07T10:19:11Z</time>
      </trkpt>
      <trkpt lat="48.99531" lon="1.12108">
        <ele>112.4</ele>
        <time>2016-02-07T10:19:13Z</time>
      </trkpt>
      <trkpt lat="48.99518" lon="1.12112">
        <ele>112.4</ele>
        <time>2016-02-07T10:19:16Z</time>
      </trkpt>
      <trkpt lat="48.99506" lon="1.12116">
        <ele>112.3</ele>
        <time>2016-02-07T10:19:19Z</time>
      </trkpt>
      <trkpt lat="48.99506" lon="1.1213">
        <ele>112.2</ele>
        <time>2016-02-07T10:19:24Z</time>
      </trkpt>
      <trkpt lat="48.99508" lon="1.12144">
        <ele>112.2</ele>
        <time>2016-02-07T10:19:28Z</time>
      </trkpt>
      <trkpt lat="48.99512" lon="1.12161">
        <ele>112.2</ele>
        <time>2016-02-07T10:19:32Z</time>
      </trkpt>
      <trkpt lat="48.99513" lon="1.12175">
        <ele>112.3</ele>
        <time>2016-02-07T10:19:35Z</time>
      </trkpt>
      <trkpt lat="48.99514" lon="1.1219">
        <ele>112.4</ele>
        <time>2016-02-07T10:19:38Z</time>
      </trkpt>
      <trkpt lat="48.99516" lon="1.12206">
        <ele>112.4</ele>
        <time>2016-02-07T10:19:41Z</time>
      </trkpt>
      <trkpt lat="48.99517" lon="1.12223">
        <ele>112.5</ele>
        <time>2016-02-07T10:19:44Z</time>
      </trkpt>
      <trkpt lat="48.99518" lon="1.12238">
        <ele>112.5</ele>
        <time>2016-02-07T10:19:47Z</time>
      </trkpt>
      <trkpt lat="48.9952" lon="1.12253">
        <ele>112.7</ele>
        <time>2016-02-07T10:19:50Z</time>
      </trkpt>
      <trkpt lat="48.99522" lon="1.12269">
        <ele>112.8</ele>
        <time>2016-02-07T10:19:53Z</time>
      </trkpt>
      <trkpt lat="48.99524" lon="1.12284">
        <ele>112.9</ele>
        <time>2016-02-07T10:19:56Z</time>
      </trkpt>
      <trkpt lat="48.99528" lon="1.12298">
        <ele>113</ele>
        <time>2016-02-07T10:19:59Z</time>
      </trkpt>
      <trkpt lat="48.9953" lon="1.12312">
        <ele>113</ele>
        <time>2016-02-07T10:20:02Z</time>
      </trkpt>
      <trkpt lat="48.99533" lon="1.12327">
        <ele>113.1</ele>
        <time>2016-02-07T10:20:05Z</time>
      </trkpt>
      <trkpt lat="48.99534" lon="1.12343">
        <ele>113.2</ele>
        <time>2016-02-07T10:20:09Z</time>
      </trkpt>
      <trkpt lat="48.99533" lon="1.12358">
        <ele>113.2</ele>
        <time>2016-02-07T10:20:14Z</time>
      </trkpt>
      <trkpt lat="48.99537" lon="1.12372">
        <ele>113.3</ele>
        <time>2016-02-07T10:20:18Z</time>
      </trkpt>
      <trkpt lat="48.99541" lon="1.12387">
        <ele>113.3</ele>
        <time>2016-02-07T10:20:21Z</time>
      </trkpt>
      <trkpt lat="48.99544" lon="1.12404">
        <ele>113.4</ele>
        <time>2016-02-07T10:20:24Z</time>
      </trkpt>
      <trkpt lat="48.99547" lon="1.12419">
        <ele>113.4</ele>
        <time>2016-02-07T10:20:27Z</time>
      </trkpt>
      <trkpt lat="48.9955" lon="1.12436">
        <ele>113.5</ele>
        <time>2016-02-07T10:20:30Z</time>
      </trkpt>
      <trkpt lat="48.99552" lon="1.12453">
        <ele>113.5</ele>
        <time>2016-02-07T10:20:33Z</time>
      </trkpt>
      <trkpt lat="48.99555" lon="1.12468">
        <ele>113.6</ele>
        <time>2016-02-07T10:20:36Z</time>
      </trkpt>
      <trkpt lat="48.99555" lon="1.12485">
        <ele>113.7</ele>
        <time>2016-02-07T10:20:40Z</time>
      </trkpt>
      <trkpt lat="48.99559" lon="1.12501">
        <ele>113.9</ele>
        <time>2016-02-07T10:20:44Z</time>
      </trkpt>
      <trkpt lat="48.99557" lon="1.12517">
        <ele>114.1</ele>
        <time>2016-02-07T10:20:50Z</time>
      </trkpt>
      <trkpt lat="48.99557" lon="1.12532">
        <ele>114.4</ele>
        <time>2016-02-07T10:21:05Z</time>
      </trkpt>
      <trkpt lat="48.99553" lon="1.12545">
        <ele>115.2</ele>
        <time>2016-02-07T10:21:41Z</time>
      </trkpt>
      <trkpt lat="48.99547" lon="1.12556">
        <ele>115.3</ele>
        <time>2016-02-07T10:21:45Z</time>
      </trkpt>
      <trkpt lat="48.9954" lon="1.12568">
        <ele>115.3</ele>
        <time>2016-02-07T10:21:48Z</time>
      </trkpt>
      <trkpt lat="48.99532" lon="1.12579">
        <ele>115.4</ele>
        <time>2016-02-07T10:21:51Z</time>
      </trkpt>
      <trkpt lat="48.99525" lon="1.12591">
        <ele>115.4</ele>
        <time>2016-02-07T10:21:54Z</time>
      </trkpt>
      <trkpt lat="48.99517" lon="1.12603">
        <ele>115.5</ele>
        <time>2016-02-07T10:21:57Z</time>
      </trkpt>
      <trkpt lat="48.99511" lon="1.12616">
        <ele>115.5</ele>
        <time>2016-02-07T10:22:00Z</time>
      </trkpt>
      <trkpt lat="48.99503" lon="1.12628">
        <ele>115.6</ele>
        <time>2016-02-07T10:22:03Z</time>
      </trkpt>
      <trkpt lat="48.99498" lon="1.12639">
        <ele>115.7</ele>
        <time>2016-02-07T10:22:06Z</time>
      </trkpt>
      <trkpt lat="48.99489" lon="1.12653">
        <ele>115.7</ele>
        <time>2016-02-07T10:22:09Z</time>
      </trkpt>
      <trkpt lat="48.99481" lon="1.12667">
        <ele>115.8</ele>
        <time>2016-02-07T10:22:12Z</time>
      </trkpt>
      <trkpt lat="48.99472" lon="1.1268">
        <ele>115.8</ele>
        <time>2016-02-07T10:22:15Z</time>
      </trkpt>
      <trkpt lat="48.99464" lon="1.12674">
        <ele>115.9</ele>
        <time>2016-02-07T10:22:20Z</time>
      </trkpt>
      <trkpt lat="48.9946" lon="1.12658">
        <ele>116</ele>
        <time>2016-02-07T10:22:24Z</time>
      </trkpt>
      <trkpt lat="48.99457" lon="1.12644">
        <ele>116</ele>
        <time>2016-02-07T10:22:27Z</time>
      </trkpt>
      <trkpt lat="48.99453" lon="1.12629">
        <ele>116.1</ele>
        <time>2016-02-07T10:22:30Z</time>
      </trkpt>
      <trkpt lat="48.9945" lon="1.12613">
        <ele>116.1</ele>
        <time>2016-02-07T10:22:33Z</time>
      </trkpt>
      <trkpt lat="48.99448" lon="1.12594">
        <ele>116.2</ele>
        <time>2016-02-07T10:22:36Z</time>
      </trkpt>
      <trkpt lat="48.99444" lon="1.1258">
        <ele>116.2</ele>
        <time>2016-02-07T10:22:38Z</time>
      </trkpt>
      <trkpt lat="48.99441" lon="1.1256">
        <ele>116.2</ele>
        <time>2016-02-07T10:22:41Z</time>
      </trkpt>
      <trkpt lat="48.99439" lon="1.12546">
        <ele>116.2</ele>
        <time>2016-02-07T10:22:43Z</time>
      </trkpt>
      <trkpt lat="48.99438" lon="1.12532">
        <ele>116.2</ele>
        <time>2016-02-07T10:22:45Z</time>
      </trkpt>
      <trkpt lat="48.99436" lon="1.12517">
        <ele>116.2</ele>
        <time>2016-02-07T10:22:47Z</time>
      </trkpt>
      <trkpt lat="48.99434" lon="1.12504">
        <ele>116.2</ele>
        <time>2016-02-07T10:22:49Z</time>
      </trkpt>
      <trkpt lat="48.99431" lon="1.12484">
        <ele>116.1</ele>
        <time>2016-02-07T10:22:52Z</time>
      </trkpt>
      <trkpt lat="48.99428" lon="1.12471">
        <ele>116</ele>
        <time>2016-02-07T10:22:54Z</time>
      </trkpt>
      <trkpt lat="48.99425" lon="1.12457">
        <ele>115.9</ele>
        <time>2016-02-07T10:22:56Z</time>
      </trkpt>
      <trkpt lat="48.99423" lon="1.12439">
        <ele>115.5</ele>
        <time>2016-02-07T10:22:59Z</time>
      </trkpt>
      <trkpt lat="48.9942" lon="1.12418">
        <ele>115.1</ele>
        <time>2016-02-07T10:23:02Z</time>
      </trkpt>
      <trkpt lat="48.99417" lon="1.12404">
        <ele>114.9</ele>
        <time>2016-02-07T10:23:04Z</time>
      </trkpt>
      <trkpt lat="48.99414" lon="1.12384">
        <ele>114.6</ele>
        <time>2016-02-07T10:23:07Z</time>
      </trkpt>
      <trkpt lat="48.99412" lon="1.12369">
        <ele>114.4</ele>
        <time>2016-02-07T10:23:09Z</time>
      </trkpt>
      <trkpt lat="48.9941" lon="1.12355">
        <ele>114.3</ele>
        <time>2016-02-07T10:23:11Z</time>
      </trkpt>
      <trkpt lat="48.99407" lon="1.1234">
        <ele>114.1</ele>
        <time>2016-02-07T10:23:13Z</time>
      </trkpt>
      <trkpt lat="48.99405" lon="1.12326">
        <ele>114</ele>
        <time>2016-02-07T10:23:15Z</time>
      </trkpt>
      <trkpt lat="48.99403" lon="1.12311">
        <ele>113.9</ele>
        <time>2016-02-07T10:23:17Z</time>
      </trkpt>
      <trkpt lat="48.99399" lon="1.12291">
        <ele>113.6</ele>
        <time>2016-02-07T10:23:20Z</time>
      </trkpt>
      <trkpt lat="48.99396" lon="1.1227">
        <ele>113.4</ele>
        <time>2016-02-07T10:23:23Z</time>
      </trkpt>
      <trkpt lat="48.99393" lon="1.12256">
        <ele>113.2</ele>
        <time>2016-02-07T10:23:25Z</time>
      </trkpt>
      <trkpt lat="48.9939" lon="1.12242">
        <ele>113</ele>
        <time>2016-02-07T10:23:27Z</time>
      </trkpt>
      <trkpt lat="48.99388" lon="1.12228">
        <ele>112.8</ele>
        <time>2016-02-07T10:23:29Z</time>
      </trkpt>
      <trkpt lat="48.99386" lon="1.12207">
        <ele>112.4</ele>
        <time>2016-02-07T10:23:32Z</time>
      </trkpt>
      <trkpt lat="48.99385" lon="1.1219">
        <ele>112</ele>
        <time>2016-02-07T10:23:35Z</time>
      </trkpt>
      <trkpt lat="48.9938" lon="1.12177">
        <ele>111.6</ele>
        <time>2016-02-07T10:23:38Z</time>
      </trkpt>
      <trkpt lat="48.99369" lon="1.12175">
        <ele>111.1</ele>
        <time>2016-02-07T10:23:41Z</time>
      </trkpt>
      <trkpt lat="48.99359" lon="1.12175">
        <ele>110.8</ele>
        <time>2016-02-07T10:23:43Z</time>
      </trkpt>
      <trkpt lat="48.99349" lon="1.12179">
        <ele>110.4</ele>
        <time>2016-02-07T10:23:45Z</time>
      </trkpt>
      <trkpt lat="48.99337" lon="1.12181">
        <ele>109.9</ele>
        <time>2016-02-07T10:23:47Z</time>
      </trkpt>
      <trkpt lat="48.99325" lon="1.12183">
        <ele>109.5</ele>
        <time>2016-02-07T10:23:49Z</time>
      </trkpt>
      <trkpt lat="48.99315" lon="1.12185">
        <ele>109.1</ele>
        <time>2016-02-07T10:23:51Z</time>
      </trkpt>
      <trkpt lat="48.99305" lon="1.12185">
        <ele>108.5</ele>
        <time>2016-02-07T10:23:53Z</time>
      </trkpt>
      <trkpt lat="48.99297" lon="1.12196">
        <ele>107.5</ele>
        <time>2016-02-07T10:23:56Z</time>
      </trkpt>
      <trkpt lat="48.99292" lon="1.12208">
        <ele>106.7</ele>
        <time>2016-02-07T10:23:59Z</time>
      </trkpt>
      <trkpt lat="48.99287" lon="1.12219">
        <ele>106.1</ele>
        <time>2016-02-07T10:24:02Z</time>
      </trkpt>
      <trkpt lat="48.99282" lon="1.12233">
        <ele>105.6</ele>
        <time>2016-02-07T10:24:05Z</time>
      </trkpt>
      <trkpt lat="48.99277" lon="1.12244">
        <ele>105.3</ele>
        <time>2016-02-07T10:24:07Z</time>
      </trkpt>
      <trkpt lat="48.9927" lon="1.12258">
        <ele>104.9</ele>
        <time>2016-02-07T10:24:10Z</time>
      </trkpt>
      <trkpt lat="48.99266" lon="1.12272">
        <ele>104.7</ele>
        <time>2016-02-07T10:24:12Z</time>
      </trkpt>
      <trkpt lat="48.99262" lon="1.12288">
        <ele>104.4</ele>
        <time>2016-02-07T10:24:15Z</time>
      </trkpt>
      <trkpt lat="48.9926" lon="1.12303">
        <ele>104.3</ele>
        <time>2016-02-07T10:24:18Z</time>
      </trkpt>
      <trkpt lat="48.99257" lon="1.12318">
        <ele>104.4</ele>
        <time>2016-02-07T10:24:21Z</time>
      </trkpt>
      <trkpt lat="48.99254" lon="1.12333">
        <ele>104.5</ele>
        <time>2016-02-07T10:24:23Z</time>
      </trkpt>
      <trkpt lat="48.9925" lon="1.12349">
        <ele>104.5</ele>
        <time>2016-02-07T10:24:25Z</time>
      </trkpt>
      <trkpt lat="48.99247" lon="1.12367">
        <ele>104.5</ele>
        <time>2016-02-07T10:24:28Z</time>
      </trkpt>
      <trkpt lat="48.99246" lon="1.12385">
        <ele>104.6</ele>
        <time>2016-02-07T10:24:31Z</time>
      </trkpt>
      <trkpt lat="48.99242" lon="1.12405">
        <ele>104.7</ele>
        <time>2016-02-07T10:24:34Z</time>
      </trkpt>
      <trkpt lat="48.99241" lon="1.12418">
        <ele>104.7</ele>
        <time>2016-02-07T10:24:36Z</time>
      </trkpt>
      <trkpt lat="48.99242" lon="1.12437">
        <ele>104.8</ele>
        <time>2016-02-07T10:24:39Z</time>
      </trkpt>
      <trkpt lat="48.99242" lon="1.12455">
        <ele>104.8</ele>
        <time>2016-02-07T10:24:42Z</time>
      </trkpt>
      <trkpt lat="48.99242" lon="1.12469">
        <ele>104.9</ele>
        <time>2016-02-07T10:24:44Z</time>
      </trkpt>
      <trkpt lat="48.99242" lon="1.12483">
        <ele>104.9</ele>
        <time>2016-02-07T10:24:46Z</time>
      </trkpt>
      <trkpt lat="48.99241" lon="1.12497">
        <ele>104.9</ele>
        <time>2016-02-07T10:24:48Z</time>
      </trkpt>
      <trkpt lat="48.99241" lon="1.12513">
        <ele>105</ele>
        <time>2016-02-07T10:24:50Z</time>
      </trkpt>
      <trkpt lat="48.99242" lon="1.12526">
        <ele>105</ele>
        <time>2016-02-07T10:24:52Z</time>
      </trkpt>
      <trkpt lat="48.99241" lon="1.12542">
        <ele>105</ele>
        <time>2016-02-07T10:24:54Z</time>
      </trkpt>
      <trkpt lat="48.9924" lon="1.12558">
        <ele>105.1</ele>
        <time>2016-02-07T10:24:56Z</time>
      </trkpt>
      <trkpt lat="48.9924" lon="1.12578">
        <ele>105.1</ele>
        <time>2016-02-07T10:24:59Z</time>
      </trkpt>
      <trkpt lat="48.99239" lon="1.12593">
        <ele>105.1</ele>
        <time>2016-02-07T10:25:01Z</time>
      </trkpt>
      <trkpt lat="48.99239" lon="1.12608">
        <ele>105.2</ele>
        <time>2016-02-07T10:25:03Z</time>
      </trkpt>
      <trkpt lat="48.99239" lon="1.12628">
        <ele>105.3</ele>
        <time>2016-02-07T10:25:06Z</time>
      </trkpt>
      <trkpt lat="48.99239" lon="1.12642">
        <ele>105.4</ele>
        <time>2016-02-07T10:25:08Z</time>
      </trkpt>
      <trkpt lat="48.99238" lon="1.12656">
        <ele>105.5</ele>
        <time>2016-02-07T10:25:10Z</time>
      </trkpt>
      <trkpt lat="48.99239" lon="1.12676">
        <ele>105.6</ele>
        <time>2016-02-07T10:25:13Z</time>
      </trkpt>
      <trkpt lat="48.99238" lon="1.12694">
        <ele>105.7</ele>
        <time>2016-02-07T10:25:16Z</time>
      </trkpt>
      <trkpt lat="48.99238" lon="1.12712">
        <ele>105.8</ele>
        <time>2016-02-07T10:25:19Z</time>
      </trkpt>
      <trkpt lat="48.99238" lon="1.12727">
        <ele>106.1</ele>
        <time>2016-02-07T10:25:22Z</time>
      </trkpt>
      <trkpt lat="48.99235" lon="1.12742">
        <ele>106.4</ele>
        <time>2016-02-07T10:25:25Z</time>
      </trkpt>
      <trkpt lat="48.99237" lon="1.12756">
        <ele>106.6</ele>
        <time>2016-02-07T10:25:28Z</time>
      </trkpt>
      <trkpt lat="48.99233" lon="1.1277">
        <ele>106.9</ele>
        <time>2016-02-07T10:25:31Z</time>
      </trkpt>
      <trkpt lat="48.99231" lon="1.12785">
        <ele>107.1</ele>
        <time>2016-02-07T10:25:35Z</time>
      </trkpt>
      <trkpt lat="48.99225" lon="1.12798">
        <ele>107.5</ele>
        <time>2016-02-07T10:25:42Z</time>
      </trkpt>
      <trkpt lat="48.99214" lon="1.12792">
        <ele>107.7</ele>
        <time>2016-02-07T10:25:46Z</time>
      </trkpt>
      <trkpt lat="48.99206" lon="1.12787">
        <ele>107.8</ele>
        <time>2016-02-07T10:25:49Z</time>
      </trkpt>
      <trkpt lat="48.99204" lon="1.12773">
        <ele>107.9</ele>
        <time>2016-02-07T10:25:53Z</time>
      </trkpt>
      <trkpt lat="48.99212" lon="1.12777">
        <ele>108.1</ele>
        <time>2016-02-07T10:26:02Z</time>
      </trkpt>
      <trkpt lat="48.99216" lon="1.12763">
        <ele>108.4</ele>
        <time>2016-02-07T10:26:16Z</time>
      </trkpt>
      <trkpt lat="48.99222" lon="1.12751">
        <ele>108.3</ele>
        <time>2016-02-07T10:26:22Z</time>
      </trkpt>
      <trkpt lat="48.99213" lon="1.12743">
        <ele>109.9</ele>
        <time>2016-02-07T10:27:58Z</time>
      </trkpt>
      <trkpt lat="48.99202" lon="1.1274">
        <ele>109.9</ele>
        <time>2016-02-07T10:28:02Z</time>
      </trkpt>
      <trkpt lat="48.99193" lon="1.12737">
        <ele>110</ele>
        <time>2016-02-07T10:28:05Z</time>
      </trkpt>
      <trkpt lat="48.99183" lon="1.12736">
        <ele>110</ele>
        <time>2016-02-07T10:28:08Z</time>
      </trkpt>
      <trkpt lat="48.99172" lon="1.12733">
        <ele>110.2</ele>
        <time>2016-02-07T10:28:12Z</time>
      </trkpt>
      <trkpt lat="48.99162" lon="1.12736">
        <ele>110.4</ele>
        <time>2016-02-07T10:28:15Z</time>
      </trkpt>
      <trkpt lat="48.99154" lon="1.12745">
        <ele>110.7</ele>
        <time>2016-02-07T10:28:19Z</time>
      </trkpt>
      <trkpt lat="48.99156" lon="1.1276">
        <ele>111</ele>
        <time>2016-02-07T10:28:23Z</time>
      </trkpt>
      <trkpt lat="48.99161" lon="1.12774">
        <ele>111.2</ele>
        <time>2016-02-07T10:28:27Z</time>
      </trkpt>
      <trkpt lat="48.99164" lon="1.12787">
        <ele>111.4</ele>
        <time>2016-02-07T10:28:31Z</time>
      </trkpt>
      <trkpt lat="48.99166" lon="1.12805">
        <ele>111.6</ele>
        <time>2016-02-07T10:28:34Z</time>
      </trkpt>
      <trkpt lat="48.99168" lon="1.12819">
        <ele>111.7</ele>
        <time>2016-02-07T10:28:37Z</time>
      </trkpt>
      <trkpt lat="48.99171" lon="1.12836">
        <ele>111.8</ele>
        <time>2016-02-07T10:28:41Z</time>
      </trkpt>
      <trkpt lat="48.99176" lon="1.12851">
        <ele>111.9</ele>
        <time>2016-02-07T10:28:44Z</time>
      </trkpt>
      <trkpt lat="48.99178" lon="1.12869">
        <ele>112</ele>
        <time>2016-02-07T10:28:46Z</time>
      </trkpt>
      <trkpt lat="48.99181" lon="1.12883">
        <ele>112.1</ele>
        <time>2016-02-07T10:28:48Z</time>
      </trkpt>
      <trkpt lat="48.99186" lon="1.12901">
        <ele>112.2</ele>
        <time>2016-02-07T10:28:52Z</time>
      </trkpt>
      <trkpt lat="48.9919" lon="1.12919">
        <ele>112.4</ele>
        <time>2016-02-07T10:28:55Z</time>
      </trkpt>
      <trkpt lat="48.99192" lon="1.12937">
        <ele>112.5</ele>
        <time>2016-02-07T10:28:58Z</time>
      </trkpt>
      <trkpt lat="48.99194" lon="1.12951">
        <ele>112.6</ele>
        <time>2016-02-07T10:29:00Z</time>
      </trkpt>
      <trkpt lat="48.99196" lon="1.12969">
        <ele>112.8</ele>
        <time>2016-02-07T10:29:03Z</time>
      </trkpt>
      <trkpt lat="48.99198" lon="1.12983">
        <ele>113</ele>
        <time>2016-02-07T10:29:06Z</time>
      </trkpt>
      <trkpt lat="48.99202" lon="1.13">
        <ele>113.1</ele>
        <time>2016-02-07T10:29:08Z</time>
      </trkpt>
      <trkpt lat="48.99205" lon="1.13013">
        <ele>113.2</ele>
        <time>2016-02-07T10:29:10Z</time>
      </trkpt>
      <trkpt lat="48.99208" lon="1.13031">
        <ele>113.4</ele>
        <time>2016-02-07T10:29:13Z</time>
      </trkpt>
      <trkpt lat="48.99212" lon="1.1305">
        <ele>113.7</ele>
        <time>2016-02-07T10:29:16Z</time>
      </trkpt>
      <trkpt lat="48.99217" lon="1.13066">
        <ele>114</ele>
        <time>2016-02-07T10:29:19Z</time>
      </trkpt>
      <trkpt lat="48.99219" lon="1.13083">
        <ele>114.4</ele>
        <time>2016-02-07T10:29:23Z</time>
      </trkpt>
      <trkpt lat="48.99223" lon="1.13097">
        <ele>114.7</ele>
        <time>2016-02-07T10:29:25Z</time>
      </trkpt>
      <trkpt lat="48.99229" lon="1.13114">
        <ele>115.1</ele>
        <time>2016-02-07T10:29:28Z</time>
      </trkpt>
      <trkpt lat="48.99233" lon="1.13129">
        <ele>115.5</ele>
        <time>2016-02-07T10:29:31Z</time>
      </trkpt>
      <trkpt lat="48.99236" lon="1.13145">
        <ele>116</ele>
        <time>2016-02-07T10:29:34Z</time>
      </trkpt>
      <trkpt lat="48.9924" lon="1.13164">
        <ele>116.8</ele>
        <time>2016-02-07T10:29:38Z</time>
      </trkpt>
      <trkpt lat="48.99245" lon="1.13181">
        <ele>117.5</ele>
        <time>2016-02-07T10:29:41Z</time>
      </trkpt>
      <trkpt lat="48.99248" lon="1.13195">
        <ele>118.1</ele>
        <time>2016-02-07T10:29:44Z</time>
      </trkpt>
      <trkpt lat="48.99252" lon="1.1321">
        <ele>118.7</ele>
        <time>2016-02-07T10:29:47Z</time>
      </trkpt>
      <trkpt lat="48.99257" lon="1.13223">
        <ele>119.3</ele>
        <time>2016-02-07T10:29:50Z</time>
      </trkpt>
      <trkpt lat="48.99261" lon="1.13238">
        <ele>119.8</ele>
        <time>2016-02-07T10:29:53Z</time>
      </trkpt>
      <trkpt lat="48.99263" lon="1.13252">
        <ele>120.2</ele>
        <time>2016-02-07T10:29:56Z</time>
      </trkpt>
      <trkpt lat="48.99265" lon="1.13266">
        <ele>120.5</ele>
        <time>2016-02-07T10:29:59Z</time>
      </trkpt>
      <trkpt lat="48.99269" lon="1.13282">
        <ele>120.8</ele>
        <time>2016-02-07T10:30:02Z</time>
      </trkpt>
      <trkpt lat="48.99272" lon="1.13297">
        <ele>121.1</ele>
        <time>2016-02-07T10:30:05Z</time>
      </trkpt>
      <trkpt lat="48.99275" lon="1.13311">
        <ele>121.4</ele>
        <time>2016-02-07T10:30:08Z</time>
      </trkpt>
      <trkpt lat="48.99278" lon="1.13327">
        <ele>121.7</ele>
        <time>2016-02-07T10:30:11Z</time>
      </trkpt>
      <trkpt lat="48.99282" lon="1.13341">
        <ele>122.1</ele>
        <time>2016-02-07T10:30:14Z</time>
      </trkpt>
      <trkpt lat="48.99285" lon="1.13356">
        <ele>122.5</ele>
        <time>2016-02-07T10:30:17Z</time>
      </trkpt>
      <trkpt lat="48.9929" lon="1.13372">
        <ele>122.9</ele>
        <time>2016-02-07T10:30:20Z</time>
      </trkpt>
      <trkpt lat="48.99295" lon="1.1339">
        <ele>123.2</ele>
        <time>2016-02-07T10:30:23Z</time>
      </trkpt>
      <trkpt lat="48.99298" lon="1.13408">
        <ele>123.4</ele>
        <time>2016-02-07T10:30:26Z</time>
      </trkpt>
      <trkpt lat="48.99303" lon="1.13427">
        <ele>123.7</ele>
        <time>2016-02-07T10:30:29Z</time>
      </trkpt>
      <trkpt lat="48.99305" lon="1.13441">
        <ele>124</ele>
        <time>2016-02-07T10:30:32Z</time>
      </trkpt>
      <trkpt lat="48.99308" lon="1.13456">
        <ele>124.3</ele>
        <time>2016-02-07T10:30:35Z</time>
      </trkpt>
      <trkpt lat="48.99311" lon="1.13473">
        <ele>124.6</ele>
        <time>2016-02-07T10:30:38Z</time>
      </trkpt>
      <trkpt lat="48.99314" lon="1.1349">
        <ele>124.8</ele>
        <time>2016-02-07T10:30:41Z</time>
      </trkpt>
      <trkpt lat="48.99318" lon="1.13508">
        <ele>125</ele>
        <time>2016-02-07T10:30:44Z</time>
      </trkpt>
      <trkpt lat="48.99324" lon="1.13528">
        <ele>125.2</ele>
        <time>2016-02-07T10:30:47Z</time>
      </trkpt>
      <trkpt lat="48.99328" lon="1.13541">
        <ele>125.3</ele>
        <time>2016-02-07T10:30:49Z</time>
      </trkpt>
      <trkpt lat="48.99333" lon="1.13559">
        <ele>125.4</ele>
        <time>2016-02-07T10:30:52Z</time>
      </trkpt>
      <trkpt lat="48.99335" lon="1.13575">
        <ele>125.5</ele>
        <time>2016-02-07T10:30:54Z</time>
      </trkpt>
      <trkpt lat="48.99339" lon="1.13589">
        <ele>125.6</ele>
        <time>2016-02-07T10:30:56Z</time>
      </trkpt>
      <trkpt lat="48.99341" lon="1.13604">
        <ele>125.8</ele>
        <time>2016-02-07T10:30:59Z</time>
      </trkpt>
      <trkpt lat="48.99344" lon="1.13622">
        <ele>126.1</ele>
        <time>2016-02-07T10:31:02Z</time>
      </trkpt>
      <trkpt lat="48.99349" lon="1.13637">
        <ele>126.5</ele>
        <time>2016-02-07T10:31:05Z</time>
      </trkpt>
      <trkpt lat="48.99352" lon="1.13651">
        <ele>126.8</ele>
        <time>2016-02-07T10:31:07Z</time>
      </trkpt>
      <trkpt lat="48.99357" lon="1.13669">
        <ele>127.1</ele>
        <time>2016-02-07T10:31:10Z</time>
      </trkpt>
      <trkpt lat="48.9936" lon="1.13683">
        <ele>127.4</ele>
        <time>2016-02-07T10:31:13Z</time>
      </trkpt>
      <trkpt lat="48.99363" lon="1.137">
        <ele>127.7</ele>
        <time>2016-02-07T10:31:16Z</time>
      </trkpt>
      <trkpt lat="48.99366" lon="1.13716">
        <ele>128</ele>
        <time>2016-02-07T10:31:19Z</time>
      </trkpt>
      <trkpt lat="48.99372" lon="1.13731">
        <ele>128.2</ele>
        <time>2016-02-07T10:31:22Z</time>
      </trkpt>
      <trkpt lat="48.99376" lon="1.13749">
        <ele>128.4</ele>
        <time>2016-02-07T10:31:25Z</time>
      </trkpt>
      <trkpt lat="48.9938" lon="1.13764">
        <ele>128.7</ele>
        <time>2016-02-07T10:31:28Z</time>
      </trkpt>
      <trkpt lat="48.99383" lon="1.1378">
        <ele>129.1</ele>
        <time>2016-02-07T10:31:31Z</time>
      </trkpt>
      <trkpt lat="48.99388" lon="1.13798">
        <ele>129.4</ele>
        <time>2016-02-07T10:31:34Z</time>
      </trkpt>
      <trkpt lat="48.9939" lon="1.13812">
        <ele>129.7</ele>
        <time>2016-02-07T10:31:37Z</time>
      </trkpt>
      <trkpt lat="48.99395" lon="1.13829">
        <ele>129.9</ele>
        <time>2016-02-07T10:31:40Z</time>
      </trkpt>
      <trkpt lat="48.994" lon="1.13845">
        <ele>130.2</ele>
        <time>2016-02-07T10:31:43Z</time>
      </trkpt>
      <trkpt lat="48.994" lon="1.13861">
        <ele>130.3</ele>
        <time>2016-02-07T10:31:45Z</time>
      </trkpt>
      <trkpt lat="48.99403" lon="1.13879">
        <ele>130.4</ele>
        <time>2016-02-07T10:31:48Z</time>
      </trkpt>
      <trkpt lat="48.99405" lon="1.13896">
        <ele>130.6</ele>
        <time>2016-02-07T10:31:51Z</time>
      </trkpt>
      <trkpt lat="48.99409" lon="1.13912">
        <ele>130.8</ele>
        <time>2016-02-07T10:31:54Z</time>
      </trkpt>
      <trkpt lat="48.99414" lon="1.13927">
        <ele>130.9</ele>
        <time>2016-02-07T10:31:56Z</time>
      </trkpt>
      <trkpt lat="48.99417" lon="1.13942">
        <ele>131.1</ele>
        <time>2016-02-07T10:31:59Z</time>
      </trkpt>
      <trkpt lat="48.9942" lon="1.13957">
        <ele>131.3</ele>
        <time>2016-02-07T10:32:02Z</time>
      </trkpt>
      <trkpt lat="48.99424" lon="1.1397">
        <ele>131.4</ele>
        <time>2016-02-07T10:32:04Z</time>
      </trkpt>
      <trkpt lat="48.99429" lon="1.13984">
        <ele>131.5</ele>
        <time>2016-02-07T10:32:06Z</time>
      </trkpt>
      <trkpt lat="48.99432" lon="1.14003">
        <ele>131.7</ele>
        <time>2016-02-07T10:32:09Z</time>
      </trkpt>
      <trkpt lat="48.99434" lon="1.14018">
        <ele>131.8</ele>
        <time>2016-02-07T10:32:12Z</time>
      </trkpt>
      <trkpt lat="48.99437" lon="1.14032">
        <ele>131.9</ele>
        <time>2016-02-07T10:32:15Z</time>
      </trkpt>
      <trkpt lat="48.9944" lon="1.1405">
        <ele>132</ele>
        <time>2016-02-07T10:32:18Z</time>
      </trkpt>
      <trkpt lat="48.99445" lon="1.14062">
        <ele>132.1</ele>
        <time>2016-02-07T10:32:20Z</time>
      </trkpt>
      <trkpt lat="48.99449" lon="1.14076">
        <ele>132.2</ele>
        <time>2016-02-07T10:32:23Z</time>
      </trkpt>
      <trkpt lat="48.99451" lon="1.14092">
        <ele>132.3</ele>
        <time>2016-02-07T10:32:25Z</time>
      </trkpt>
      <trkpt lat="48.99456" lon="1.14111">
        <ele>132.5</ele>
        <time>2016-02-07T10:32:28Z</time>
      </trkpt>
      <trkpt lat="48.9946" lon="1.14126">
        <ele>132.6</ele>
        <time>2016-02-07T10:32:30Z</time>
      </trkpt>
      <trkpt lat="48.99462" lon="1.1414">
        <ele>132.7</ele>
        <time>2016-02-07T10:32:33Z</time>
      </trkpt>
      <trkpt lat="48.99466" lon="1.14156">
        <ele>132.8</ele>
        <time>2016-02-07T10:32:36Z</time>
      </trkpt>
      <trkpt lat="48.99469" lon="1.14173">
        <ele>132.8</ele>
        <time>2016-02-07T10:32:39Z</time>
      </trkpt>
      <trkpt lat="48.99473" lon="1.14186">
        <ele>132.9</ele>
        <time>2016-02-07T10:32:41Z</time>
      </trkpt>
      <trkpt lat="48.99476" lon="1.14206">
        <ele>132.9</ele>
        <time>2016-02-07T10:32:44Z</time>
      </trkpt>
      <trkpt lat="48.9948" lon="1.14221">
        <ele>132.9</ele>
        <time>2016-02-07T10:32:46Z</time>
      </trkpt>
      <trkpt lat="48.99483" lon="1.14236">
        <ele>132.9</ele>
        <time>2016-02-07T10:32:48Z</time>
      </trkpt>
      <trkpt lat="48.99487" lon="1.14251">
        <ele>132.8</ele>
        <time>2016-02-07T10:32:50Z</time>
      </trkpt>
      <trkpt lat="48.99491" lon="1.14265">
        <ele>132.8</ele>
        <time>2016-02-07T10:32:52Z</time>
      </trkpt>
      <trkpt lat="48.99495" lon="1.14278">
        <ele>132.8</ele>
        <time>2016-02-07T10:32:54Z</time>
      </trkpt>
      <trkpt lat="48.99503" lon="1.14293">
        <ele>132.7</ele>
        <time>2016-02-07T10:32:57Z</time>
      </trkpt>
      <trkpt lat="48.99512" lon="1.143">
        <ele>132.6</ele>
        <time>2016-02-07T10:33:01Z</time>
      </trkpt>
      <trkpt lat="48.99522" lon="1.14302">
        <ele>132.5</ele>
        <time>2016-02-07T10:33:06Z</time>
      </trkpt>
      <trkpt lat="48.99532" lon="1.143">
        <ele>132.4</ele>
        <time>2016-02-07T10:33:10Z</time>
      </trkpt>
      <trkpt lat="48.99542" lon="1.14294">
        <ele>132.3</ele>
        <time>2016-02-07T10:33:13Z</time>
      </trkpt>
      <trkpt lat="48.99551" lon="1.14289">
        <ele>132.5</ele>
        <time>2016-02-07T10:33:16Z</time>
      </trkpt>
      <trkpt lat="48.9956" lon="1.14284">
        <ele>132.8</ele>
        <time>2016-02-07T10:33:19Z</time>
      </trkpt>
      <trkpt lat="48.9957" lon="1.14279">
        <ele>133</ele>
        <time>2016-02-07T10:33:22Z</time>
      </trkpt>
      <trkpt lat="48.99581" lon="1.14274">
        <ele>133.2</ele>
        <time>2016-02-07T10:33:25Z</time>
      </trkpt>
      <trkpt lat="48.99592" lon="1.14271">
        <ele>133.5</ele>
        <time>2016-02-07T10:33:30Z</time>
      </trkpt>
      <trkpt lat="48.99602" lon="1.14263">
        <ele>133.6</ele>
        <time>2016-02-07T10:33:33Z</time>
      </trkpt>
      <trkpt lat="48.99613" lon="1.14259">
        <ele>133.7</ele>
        <time>2016-02-07T10:33:36Z</time>
      </trkpt>
      <trkpt lat="48.99626" lon="1.14254">
        <ele>134</ele>
        <time>2016-02-07T10:33:39Z</time>
      </trkpt>
      <trkpt lat="48.99636" lon="1.1425">
        <ele>134.2</ele>
        <time>2016-02-07T10:33:42Z</time>
      </trkpt>
      <trkpt lat="48.99648" lon="1.14242">
        <ele>134.5</ele>
        <time>2016-02-07T10:33:46Z</time>
      </trkpt>
      <trkpt lat="48.99661" lon="1.14234">
        <ele>134.8</ele>
        <time>2016-02-07T10:33:49Z</time>
      </trkpt>
      <trkpt lat="48.99672" lon="1.14228">
        <ele>135</ele>
        <time>2016-02-07T10:33:52Z</time>
      </trkpt>
      <trkpt lat="48.99683" lon="1.14222">
        <ele>135.2</ele>
        <time>2016-02-07T10:33:55Z</time>
      </trkpt>
      <trkpt lat="48.99695" lon="1.14215">
        <ele>135.5</ele>
        <time>2016-02-07T10:33:58Z</time>
      </trkpt>
      <trkpt lat="48.99706" lon="1.14209">
        <ele>135.7</ele>
        <time>2016-02-07T10:34:01Z</time>
      </trkpt>
      <trkpt lat="48.99716" lon="1.14204">
        <ele>135.9</ele>
        <time>2016-02-07T10:34:05Z</time>
      </trkpt>
      <trkpt lat="48.99728" lon="1.14198">
        <ele>136.1</ele>
        <time>2016-02-07T10:34:08Z</time>
      </trkpt>
      <trkpt lat="48.99737" lon="1.14193">
        <ele>136.2</ele>
        <time>2016-02-07T10:34:11Z</time>
      </trkpt>
      <trkpt lat="48.99746" lon="1.14189">
        <ele>136.3</ele>
        <time>2016-02-07T10:34:13Z</time>
      </trkpt>
      <trkpt lat="48.99756" lon="1.1418">
        <ele>136.4</ele>
        <time>2016-02-07T10:34:16Z</time>
      </trkpt>
      <trkpt lat="48.9976" lon="1.14163">
        <ele>136.5</ele>
        <time>2016-02-07T10:34:20Z</time>
      </trkpt>
      <trkpt lat="48.99762" lon="1.14148">
        <ele>136.6</ele>
        <time>2016-02-07T10:34:23Z</time>
      </trkpt>
      <trkpt lat="48.99761" lon="1.14132">
        <ele>136.7</ele>
        <time>2016-02-07T10:34:26Z</time>
      </trkpt>
      <trkpt lat="48.99759" lon="1.14115">
        <ele>136.9</ele>
        <time>2016-02-07T10:34:29Z</time>
      </trkpt>
      <trkpt lat="48.99759" lon="1.14099">
        <ele>137.2</ele>
        <time>2016-02-07T10:34:32Z</time>
      </trkpt>
      <trkpt lat="48.99756" lon="1.14081">
        <ele>137.3</ele>
        <time>2016-02-07T10:34:35Z</time>
      </trkpt>
      <trkpt lat="48.99754" lon="1.14065">
        <ele>137.5</ele>
        <time>2016-02-07T10:34:38Z</time>
      </trkpt>
      <trkpt lat="48.99752" lon="1.14048">
        <ele>137.7</ele>
        <time>2016-02-07T10:34:41Z</time>
      </trkpt>
      <trkpt lat="48.99749" lon="1.14028">
        <ele>137.8</ele>
        <time>2016-02-07T10:34:44Z</time>
      </trkpt>
      <trkpt lat="48.99746" lon="1.14012">
        <ele>137.9</ele>
        <time>2016-02-07T10:34:47Z</time>
      </trkpt>
      <trkpt lat="48.99744" lon="1.13995">
        <ele>138</ele>
        <time>2016-02-07T10:34:50Z</time>
      </trkpt>
      <trkpt lat="48.99741" lon="1.13979">
        <ele>138.1</ele>
        <time>2016-02-07T10:34:53Z</time>
      </trkpt>
      <trkpt lat="48.99739" lon="1.13963">
        <ele>138.2</ele>
        <time>2016-02-07T10:34:56Z</time>
      </trkpt>
      <trkpt lat="48.99736" lon="1.13942">
        <ele>138.2</ele>
        <time>2016-02-07T10:34:59Z</time>
      </trkpt>
      <trkpt lat="48.99733" lon="1.13925">
        <ele>138.3</ele>
        <time>2016-02-07T10:35:02Z</time>
      </trkpt>
      <trkpt lat="48.99732" lon="1.13911">
        <ele>138.4</ele>
        <time>2016-02-07T10:35:05Z</time>
      </trkpt>
      <trkpt lat="48.99729" lon="1.13891">
        <ele>138.4</ele>
        <time>2016-02-07T10:35:08Z</time>
      </trkpt>
      <trkpt lat="48.99726" lon="1.13877">
        <ele>138.5</ele>
        <time>2016-02-07T10:35:10Z</time>
      </trkpt>
      <trkpt lat="48.99723" lon="1.13859">
        <ele>138.5</ele>
        <time>2016-02-07T10:35:13Z</time>
      </trkpt>
      <trkpt lat="48.9972" lon="1.13838">
        <ele>138.6</ele>
        <time>2016-02-07T10:35:16Z</time>
      </trkpt>
      <trkpt lat="48.99716" lon="1.13819">
        <ele>138.6</ele>
        <time>2016-02-07T10:35:19Z</time>
      </trkpt>
      <trkpt lat="48.99713" lon="1.138">
        <ele>138.7</ele>
        <time>2016-02-07T10:35:22Z</time>
      </trkpt>
      <trkpt lat="48.9971" lon="1.13786">
        <ele>138.7</ele>
        <time>2016-02-07T10:35:24Z</time>
      </trkpt>
      <trkpt lat="48.99707" lon="1.13767">
        <ele>138.8</ele>
        <time>2016-02-07T10:35:27Z</time>
      </trkpt>
      <trkpt lat="48.99703" lon="1.13749">
        <ele>138.9</ele>
        <time>2016-02-07T10:35:30Z</time>
      </trkpt>
      <trkpt lat="48.99702" lon="1.13734">
        <ele>139</ele>
        <time>2016-02-07T10:35:32Z</time>
      </trkpt>
      <trkpt lat="48.99699" lon="1.13715">
        <ele>139</ele>
        <time>2016-02-07T10:35:35Z</time>
      </trkpt>
      <trkpt lat="48.99694" lon="1.13695">
        <ele>139.1</ele>
        <time>2016-02-07T10:35:38Z</time>
      </trkpt>
      <trkpt lat="48.99692" lon="1.13677">
        <ele>139.2</ele>
        <time>2016-02-07T10:35:41Z</time>
      </trkpt>
      <trkpt lat="48.9969" lon="1.13658">
        <ele>139.3</ele>
        <time>2016-02-07T10:35:44Z</time>
      </trkpt>
      <trkpt lat="48.9969" lon="1.13641">
        <ele>139.3</ele>
        <time>2016-02-07T10:35:47Z</time>
      </trkpt>
      <trkpt lat="48.99698" lon="1.13628">
        <ele>139.4</ele>
        <time>2016-02-07T10:35:50Z</time>
      </trkpt>
      <trkpt lat="48.99706" lon="1.13621">
        <ele>139.4</ele>
        <time>2016-02-07T10:35:54Z</time>
      </trkpt>
      <trkpt lat="48.99716" lon="1.13615">
        <ele>139.5</ele>
        <time>2016-02-07T10:35:57Z</time>
      </trkpt>
      <trkpt lat="48.99728" lon="1.1361">
        <ele>139.5</ele>
        <time>2016-02-07T10:36:00Z</time>
      </trkpt>
      <trkpt lat="48.99739" lon="1.13606">
        <ele>139.6</ele>
        <time>2016-02-07T10:36:03Z</time>
      </trkpt>
      <trkpt lat="48.9975" lon="1.13601">
        <ele>139.6</ele>
        <time>2016-02-07T10:36:06Z</time>
      </trkpt>
      <trkpt lat="48.99759" lon="1.13596">
        <ele>139.6</ele>
        <time>2016-02-07T10:36:08Z</time>
      </trkpt>
      <trkpt lat="48.99769" lon="1.13591">
        <ele>139.6</ele>
        <time>2016-02-07T10:36:10Z</time>
      </trkpt>
      <trkpt lat="48.99781" lon="1.13586">
        <ele>139.6</ele>
        <time>2016-02-07T10:36:13Z</time>
      </trkpt>
      <trkpt lat="48.9979" lon="1.13583">
        <ele>139.5</ele>
        <time>2016-02-07T10:36:15Z</time>
      </trkpt>
      <trkpt lat="48.99801" lon="1.13574">
        <ele>139.3</ele>
        <time>2016-02-07T10:36:18Z</time>
      </trkpt>
      <trkpt lat="48.99808" lon="1.13561">
        <ele>139.1</ele>
        <time>2016-02-07T10:36:21Z</time>
      </trkpt>
      <trkpt lat="48.9981" lon="1.13541">
        <ele>139</ele>
        <time>2016-02-07T10:36:24Z</time>
      </trkpt>
      <trkpt lat="48.9981" lon="1.13526">
        <ele>138.9</ele>
        <time>2016-02-07T10:36:26Z</time>
      </trkpt>
      <trkpt lat="48.99808" lon="1.13508">
        <ele>138.8</ele>
        <time>2016-02-07T10:36:29Z</time>
      </trkpt>
      <trkpt lat="48.99804" lon="1.13493">
        <ele>138.7</ele>
        <time>2016-02-07T10:36:32Z</time>
      </trkpt>
      <trkpt lat="48.99803" lon="1.13475">
        <ele>138.7</ele>
        <time>2016-02-07T10:36:35Z</time>
      </trkpt>
      <trkpt lat="48.998" lon="1.13454">
        <ele>138.6</ele>
        <time>2016-02-07T10:36:38Z</time>
      </trkpt>
      <trkpt lat="48.99799" lon="1.13434">
        <ele>138.6</ele>
        <time>2016-02-07T10:36:41Z</time>
      </trkpt>
      <trkpt lat="48.99798" lon="1.1342">
        <ele>138.6</ele>
        <time>2016-02-07T10:36:43Z</time>
      </trkpt>
      <trkpt lat="48.99796" lon="1.13402">
        <ele>138.6</ele>
        <time>2016-02-07T10:36:46Z</time>
      </trkpt>
      <trkpt lat="48.99794" lon="1.13386">
        <ele>138.6</ele>
        <time>2016-02-07T10:36:49Z</time>
      </trkpt>
      <trkpt lat="48.99791" lon="1.13365">
        <ele>138.6</ele>
        <time>2016-02-07T10:36:52Z</time>
      </trkpt>
      <trkpt lat="48.99789" lon="1.13348">
        <ele>138.6</ele>
        <time>2016-02-07T10:36:55Z</time>
      </trkpt>
      <trkpt lat="48.99786" lon="1.13335">
        <ele>138.6</ele>
        <time>2016-02-07T10:36:57Z</time>
      </trkpt>
      <trkpt lat="48.99782" lon="1.13317">
        <ele>138.7</ele>
        <time>2016-02-07T10:37:00Z</time>
      </trkpt>
      <trkpt lat="48.99779" lon="1.13297">
        <ele>138.7</ele>
        <time>2016-02-07T10:37:03Z</time>
      </trkpt>
      <trkpt lat="48.99778" lon="1.13282">
        <ele>138.7</ele>
        <time>2016-02-07T10:37:05Z</time>
      </trkpt>
      <trkpt lat="48.99775" lon="1.13264">
        <ele>138.7</ele>
        <time>2016-02-07T10:37:08Z</time>
      </trkpt>
      <trkpt lat="48.99771" lon="1.13245">
        <ele>138.8</ele>
        <time>2016-02-07T10:37:11Z</time>
      </trkpt>
      <trkpt lat="48.99769" lon="1.13226">
        <ele>138.8</ele>
        <time>2016-02-07T10:37:14Z</time>
      </trkpt>
      <trkpt lat="48.99765" lon="1.13211">
        <ele>138.8</ele>
        <time>2016-02-07T10:37:16Z</time>
      </trkpt>
      <trkpt lat="48.99762" lon="1.13198">
        <ele>138.8</ele>
        <time>2016-02-07T10:37:18Z</time>
      </trkpt>
      <trkpt lat="48.99761" lon="1.13184">
        <ele>138.9</ele>
        <time>2016-02-07T10:37:20Z</time>
      </trkpt>
      <trkpt lat="48.9976" lon="1.1317">
        <ele>138.9</ele>
        <time>2016-02-07T10:37:22Z</time>
      </trkpt>
      <trkpt lat="48.99757" lon="1.13156">
        <ele>138.9</ele>
        <time>2016-02-07T10:37:24Z</time>
      </trkpt>
      <trkpt lat="48.99754" lon="1.13142">
        <ele>138.9</ele>
        <time>2016-02-07T10:37:26Z</time>
      </trkpt>
      <trkpt lat="48.99753" lon="1.13127">
        <ele>138.9</ele>
        <time>2016-02-07T10:37:28Z</time>
      </trkpt>
      <trkpt lat="48.99752" lon="1.13113">
        <ele>138.8</ele>
        <time>2016-02-07T10:37:30Z</time>
      </trkpt>
      <trkpt lat="48.99749" lon="1.13098">
        <ele>138.8</ele>
        <time>2016-02-07T10:37:33Z</time>
      </trkpt>
      <trkpt lat="48.99748" lon="1.13085">
        <ele>138.4</ele>
        <time>2016-02-07T10:38:35Z</time>
      </trkpt>
      <trkpt lat="48.99759" lon="1.13082">
        <ele>138.7</ele>
        <time>2016-02-07T10:39:06Z</time>
      </trkpt>
      <trkpt lat="48.99769" lon="1.13086">
        <ele>138.9</ele>
        <time>2016-02-07T10:39:10Z</time>
      </trkpt>
      <trkpt lat="48.9978" lon="1.13086">
        <ele>139.1</ele>
        <time>2016-02-07T10:39:14Z</time>
      </trkpt>
      <trkpt lat="48.99791" lon="1.13083">
        <ele>139.3</ele>
        <time>2016-02-07T10:39:18Z</time>
      </trkpt>
      <trkpt lat="48.99799" lon="1.13091">
        <ele>139.4</ele>
        <time>2016-02-07T10:39:21Z</time>
      </trkpt>
      <trkpt lat="48.99806" lon="1.13099">
        <ele>139.5</ele>
        <time>2016-02-07T10:39:24Z</time>
      </trkpt>
      <trkpt lat="48.99816" lon="1.13101">
        <ele>139.5</ele>
        <time>2016-02-07T10:39:27Z</time>
      </trkpt>
      <trkpt lat="48.99826" lon="1.13102">
        <ele>139.6</ele>
        <time>2016-02-07T10:39:30Z</time>
      </trkpt>
      <trkpt lat="48.99837" lon="1.13107">
        <ele>139.6</ele>
        <time>2016-02-07T10:39:34Z</time>
      </trkpt>
      <trkpt lat="48.99847" lon="1.13109">
        <ele>139.7</ele>
        <time>2016-02-07T10:39:37Z</time>
      </trkpt>
      <trkpt lat="48.99857" lon="1.13106">
        <ele>139.7</ele>
        <time>2016-02-07T10:39:40Z</time>
      </trkpt>
      <trkpt lat="48.99866" lon="1.13101">
        <ele>139.7</ele>
        <time>2016-02-07T10:39:42Z</time>
      </trkpt>
      <trkpt lat="48.99871" lon="1.13087">
        <ele>139.8</ele>
        <time>2016-02-07T10:39:46Z</time>
      </trkpt>
      <trkpt lat="48.99877" lon="1.13073">
        <ele>139.8</ele>
        <time>2016-02-07T10:39:50Z</time>
      </trkpt>
      <trkpt lat="48.99882" lon="1.13056">
        <ele>139.6</ele>
        <time>2016-02-07T10:39:54Z</time>
      </trkpt>
      <trkpt lat="48.99884" lon="1.13041">
        <ele>139.6</ele>
        <time>2016-02-07T10:39:57Z</time>
      </trkpt>
      <trkpt lat="48.99889" lon="1.13024">
        <ele>139.5</ele>
        <time>2016-02-07T10:40:01Z</time>
      </trkpt>
      <trkpt lat="48.99894" lon="1.13008">
        <ele>139.4</ele>
        <time>2016-02-07T10:40:04Z</time>
      </trkpt>
      <trkpt lat="48.99898" lon="1.12995">
        <ele>139</ele>
        <time>2016-02-07T10:40:07Z</time>
      </trkpt>
      <trkpt lat="48.99903" lon="1.1298">
        <ele>138.8</ele>
        <time>2016-02-07T10:40:10Z</time>
      </trkpt>
      <trkpt lat="48.99905" lon="1.12963">
        <ele>138.6</ele>
        <time>2016-02-07T10:40:13Z</time>
      </trkpt>
      <trkpt lat="48.99908" lon="1.12949">
        <ele>138.4</ele>
        <time>2016-02-07T10:40:16Z</time>
      </trkpt>
      <trkpt lat="48.99914" lon="1.12938">
        <ele>138.2</ele>
        <time>2016-02-07T10:40:19Z</time>
      </trkpt>
      <trkpt lat="48.9992" lon="1.12925">
        <ele>138</ele>
        <time>2016-02-07T10:40:23Z</time>
      </trkpt>
      <trkpt lat="48.99915" lon="1.1291">
        <ele>137.5</ele>
        <time>2016-02-07T10:40:29Z</time>
      </trkpt>
      <trkpt lat="48.99906" lon="1.12902">
        <ele>137.3</ele>
        <time>2016-02-07T10:40:33Z</time>
      </trkpt>
      <trkpt lat="48.99899" lon="1.1289">
        <ele>137.2</ele>
        <time>2016-02-07T10:40:37Z</time>
      </trkpt>
      <trkpt lat="48.99902" lon="1.12873">
        <ele>137.1</ele>
        <time>2016-02-07T10:40:41Z</time>
      </trkpt>
      <trkpt lat="48.99905" lon="1.12858">
        <ele>137</ele>
        <time>2016-02-07T10:40:44Z</time>
      </trkpt>
      <trkpt lat="48.99908" lon="1.1284">
        <ele>136.9</ele>
        <time>2016-02-07T10:40:47Z</time>
      </trkpt>
      <trkpt lat="48.99912" lon="1.12826">
        <ele>136.9</ele>
        <time>2016-02-07T10:40:50Z</time>
      </trkpt>
      <trkpt lat="48.99921" lon="1.12815">
        <ele>136.8</ele>
        <time>2016-02-07T10:40:53Z</time>
      </trkpt>
      <trkpt lat="48.99932" lon="1.12814">
        <ele>136.4</ele>
        <time>2016-02-07T10:40:56Z</time>
      </trkpt>
      <trkpt lat="48.99942" lon="1.12813">
        <ele>135.9</ele>
        <time>2016-02-07T10:41:00Z</time>
      </trkpt>
      <trkpt lat="48.99951" lon="1.12815">
        <ele>136.4</ele>
        <time>2016-02-07T10:43:11Z</time>
      </trkpt>
      <trkpt lat="48.99962" lon="1.12817">
        <ele>136.4</ele>
        <time>2016-02-07T10:43:14Z</time>
      </trkpt>
      <trkpt lat="48.99973" lon="1.12817">
        <ele>136.4</ele>
        <time>2016-02-07T10:43:16Z</time>
      </trkpt>
      <trkpt lat="48.99985" lon="1.12818">
        <ele>136.4</ele>
        <time>2016-02-07T10:43:18Z</time>
      </trkpt>
      <trkpt lat="48.99996" lon="1.12817">
        <ele>136.2</ele>
        <time>2016-02-07T10:43:20Z</time>
      </trkpt>
      <trkpt lat="49.00007" lon="1.12819">
        <ele>136.1</ele>
        <time>2016-02-07T10:43:22Z</time>
      </trkpt>
      <trkpt lat="49.00017" lon="1.1282">
        <ele>136</ele>
        <time>2016-02-07T10:43:24Z</time>
      </trkpt>
      <trkpt lat="49.00029" lon="1.12821">
        <ele>135.9</ele>
        <time>2016-02-07T10:43:26Z</time>
      </trkpt>
      <trkpt lat="49.00039" lon="1.12823">
        <ele>135.8</ele>
        <time>2016-02-07T10:43:28Z</time>
      </trkpt>
      <trkpt lat="49.00052" lon="1.12825">
        <ele>135.6</ele>
        <time>2016-02-07T10:43:30Z</time>
      </trkpt>
      <trkpt lat="49.00065" lon="1.12826">
        <ele>135.4</ele>
        <time>2016-02-07T10:43:32Z</time>
      </trkpt>
      <trkpt lat="49.00077" lon="1.12827">
        <ele>135.3</ele>
        <time>2016-02-07T10:43:34Z</time>
      </trkpt>
      <trkpt lat="49.00087" lon="1.12828">
        <ele>135.1</ele>
        <time>2016-02-07T10:43:36Z</time>
      </trkpt>
      <trkpt lat="49.00099" lon="1.12828">
        <ele>134.8</ele>
        <time>2016-02-07T10:43:39Z</time>
      </trkpt>
      <trkpt lat="49.00109" lon="1.1283">
        <ele>134.5</ele>
        <time>2016-02-07T10:43:42Z</time>
      </trkpt>
      <trkpt lat="49.0012" lon="1.1283">
        <ele>134.1</ele>
        <time>2016-02-07T10:43:45Z</time>
      </trkpt>
      <trkpt lat="49.00133" lon="1.12833">
        <ele>133.9</ele>
        <time>2016-02-07T10:43:47Z</time>
      </trkpt>
      <trkpt lat="49.00147" lon="1.12834">
        <ele>133.7</ele>
        <time>2016-02-07T10:43:49Z</time>
      </trkpt>
      <trkpt lat="49.00156" lon="1.12836">
        <ele>133.6</ele>
        <time>2016-02-07T10:43:51Z</time>
      </trkpt>
      <trkpt lat="49.00166" lon="1.12838">
        <ele>133.4</ele>
        <time>2016-02-07T10:43:53Z</time>
      </trkpt>
      <trkpt lat="49.00176" lon="1.12839">
        <ele>133.3</ele>
        <time>2016-02-07T10:43:55Z</time>
      </trkpt>
      <trkpt lat="49.00192" lon="1.1284">
        <ele>133.1</ele>
        <time>2016-02-07T10:43:57Z</time>
      </trkpt>
      <trkpt lat="49.00206" lon="1.12841">
        <ele>132.9</ele>
        <time>2016-02-07T10:43:59Z</time>
      </trkpt>
      <trkpt lat="49.00216" lon="1.12842">
        <ele>132.8</ele>
        <time>2016-02-07T10:44:01Z</time>
      </trkpt>
      <trkpt lat="49.00227" lon="1.12845">
        <ele>132.5</ele>
        <time>2016-02-07T10:44:04Z</time>
      </trkpt>
      <trkpt lat="49.00235" lon="1.12853">
        <ele>132.1</ele>
        <time>2016-02-07T10:44:10Z</time>
      </trkpt>
      <trkpt lat="49.00242" lon="1.12863">
        <ele>131.9</ele>
        <time>2016-02-07T10:44:15Z</time>
      </trkpt>
      <trkpt lat="49.00247" lon="1.1288">
        <ele>131.7</ele>
        <time>2016-02-07T10:44:19Z</time>
      </trkpt>
      <trkpt lat="49.00251" lon="1.12893">
        <ele>131.6</ele>
        <time>2016-02-07T10:44:22Z</time>
      </trkpt>
      <trkpt lat="49.00257" lon="1.12908">
        <ele>131.4</ele>
        <time>2016-02-07T10:44:25Z</time>
      </trkpt>
      <trkpt lat="49.00265" lon="1.12923">
        <ele>131.3</ele>
        <time>2016-02-07T10:44:28Z</time>
      </trkpt>
      <trkpt lat="49.00268" lon="1.12936">
        <ele>131.2</ele>
        <time>2016-02-07T10:44:30Z</time>
      </trkpt>
      <trkpt lat="49.00273" lon="1.12955">
        <ele>131.1</ele>
        <time>2016-02-07T10:44:33Z</time>
      </trkpt>
      <trkpt lat="49.0028" lon="1.1297">
        <ele>131</ele>
        <time>2016-02-07T10:44:36Z</time>
      </trkpt>
      <trkpt lat="49.00285" lon="1.12982">
        <ele>130.9</ele>
        <time>2016-02-07T10:44:38Z</time>
      </trkpt>
      <trkpt lat="49.0029" lon="1.12995">
        <ele>130.8</ele>
        <time>2016-02-07T10:44:40Z</time>
      </trkpt>
      <trkpt lat="49.00294" lon="1.13008">
        <ele>130.7</ele>
        <time>2016-02-07T10:44:42Z</time>
      </trkpt>
      <trkpt lat="49.00298" lon="1.13021">
        <ele>130.7</ele>
        <time>2016-02-07T10:44:44Z</time>
      </trkpt>
      <trkpt lat="49.00304" lon="1.13039">
        <ele>130.6</ele>
        <time>2016-02-07T10:44:47Z</time>
      </trkpt>
      <trkpt lat="49.00309" lon="1.13054">
        <ele>130.6</ele>
        <time>2016-02-07T10:44:50Z</time>
      </trkpt>
      <trkpt lat="49.00314" lon="1.13073">
        <ele>130.5</ele>
        <time>2016-02-07T10:44:53Z</time>
      </trkpt>
      <trkpt lat="49.00318" lon="1.1309">
        <ele>130.5</ele>
        <time>2016-02-07T10:44:55Z</time>
      </trkpt>
      <trkpt lat="49.00318" lon="1.13105">
        <ele>130.5</ele>
        <time>2016-02-07T10:44:57Z</time>
      </trkpt>
      <trkpt lat="49.00323" lon="1.13121">
        <ele>130.5</ele>
        <time>2016-02-07T10:45:00Z</time>
      </trkpt>
      <trkpt lat="49.00327" lon="1.13134">
        <ele>130.5</ele>
        <time>2016-02-07T10:45:02Z</time>
      </trkpt>
      <trkpt lat="49.0033" lon="1.13147">
        <ele>130.5</ele>
        <time>2016-02-07T10:45:04Z</time>
      </trkpt>
      <trkpt lat="49.00333" lon="1.13165">
        <ele>130.5</ele>
        <time>2016-02-07T10:45:07Z</time>
      </trkpt>
      <trkpt lat="49.00341" lon="1.13172">
        <ele>130.6</ele>
        <time>2016-02-07T10:45:13Z</time>
      </trkpt>
      <trkpt lat="49.00352" lon="1.13175">
        <ele>130.6</ele>
        <time>2016-02-07T10:45:21Z</time>
      </trkpt>
      <trkpt lat="49.00361" lon="1.13175">
        <ele>130.7</ele>
        <time>2016-02-07T10:45:24Z</time>
      </trkpt>
      <trkpt lat="49.00373" lon="1.13173">
        <ele>130.7</ele>
        <time>2016-02-07T10:45:27Z</time>
      </trkpt>
      <trkpt lat="49.00384" lon="1.13172">
        <ele>130.7</ele>
        <time>2016-02-07T10:45:30Z</time>
      </trkpt>
      <trkpt lat="49.00395" lon="1.13171">
        <ele>130.6</ele>
        <time>2016-02-07T10:45:34Z</time>
      </trkpt>
      <trkpt lat="49.00406" lon="1.13172">
        <ele>130.6</ele>
        <time>2016-02-07T10:45:37Z</time>
      </trkpt>
      <trkpt lat="49.00417" lon="1.13172">
        <ele>130.5</ele>
        <time>2016-02-07T10:45:40Z</time>
      </trkpt>
      <trkpt lat="49.00429" lon="1.13172">
        <ele>130.3</ele>
        <time>2016-02-07T10:45:42Z</time>
      </trkpt>
      <trkpt lat="49.0044" lon="1.13172">
        <ele>130.2</ele>
        <time>2016-02-07T10:45:44Z</time>
      </trkpt>
      <trkpt lat="49.00455" lon="1.13171">
        <ele>130.1</ele>
        <time>2016-02-07T10:45:46Z</time>
      </trkpt>
      <trkpt lat="49.00469" lon="1.13171">
        <ele>130</ele>
        <time>2016-02-07T10:45:48Z</time>
      </trkpt>
      <trkpt lat="49.00478" lon="1.13169">
        <ele>130</ele>
        <time>2016-02-07T10:45:50Z</time>
      </trkpt>
      <trkpt lat="49.00491" lon="1.13168">
        <ele>129.9</ele>
        <time>2016-02-07T10:45:53Z</time>
      </trkpt>
      <trkpt lat="49.00504" lon="1.13168">
        <ele>129.8</ele>
        <time>2016-02-07T10:45:57Z</time>
      </trkpt>
      <trkpt lat="49.00514" lon="1.13168">
        <ele>129.6</ele>
        <time>2016-02-07T10:45:59Z</time>
      </trkpt>
      <trkpt lat="49.00526" lon="1.13167">
        <ele>129.5</ele>
        <time>2016-02-07T10:46:02Z</time>
      </trkpt>
      <trkpt lat="49.00536" lon="1.13167">
        <ele>129.4</ele>
        <time>2016-02-07T10:46:04Z</time>
      </trkpt>
      <trkpt lat="49.00548" lon="1.13164">
        <ele>129.2</ele>
        <time>2016-02-07T10:46:07Z</time>
      </trkpt>
      <trkpt lat="49.00559" lon="1.13163">
        <ele>128.9</ele>
        <time>2016-02-07T10:46:10Z</time>
      </trkpt>
      <trkpt lat="49.00568" lon="1.13171">
        <ele>128.7</ele>
        <time>2016-02-07T10:46:14Z</time>
      </trkpt>
      <trkpt lat="49.00574" lon="1.13181">
        <ele>128.4</ele>
        <time>2016-02-07T10:46:19Z</time>
      </trkpt>
      <trkpt lat="49.00582" lon="1.13188">
        <ele>128.3</ele>
        <time>2016-02-07T10:46:22Z</time>
      </trkpt>
      <trkpt lat="49.00588" lon="1.13199">
        <ele>128.1</ele>
        <time>2016-02-07T10:46:25Z</time>
      </trkpt>
      <trkpt lat="49.00593" lon="1.1321">
        <ele>128</ele>
        <time>2016-02-07T10:46:27Z</time>
      </trkpt>
      <trkpt lat="49.00595" lon="1.13224">
        <ele>127.9</ele>
        <time>2016-02-07T10:46:30Z</time>
      </trkpt>
      <trkpt lat="49.00592" lon="1.13238">
        <ele>127.7</ele>
        <time>2016-02-07T10:46:34Z</time>
      </trkpt>
      <trkpt lat="49.00585" lon="1.13247">
        <ele>127.7</ele>
        <time>2016-02-07T10:46:37Z</time>
      </trkpt>
      <trkpt lat="49.00583" lon="1.13263">
        <ele>127.6</ele>
        <time>2016-02-07T10:46:41Z</time>
      </trkpt>
      <trkpt lat="49.00584" lon="1.13278">
        <ele>127.5</ele>
        <time>2016-02-07T10:46:45Z</time>
      </trkpt>
      <trkpt lat="49.00589" lon="1.13293">
        <ele>127.5</ele>
        <time>2016-02-07T10:46:48Z</time>
      </trkpt>
      <trkpt lat="49.00592" lon="1.13307">
        <ele>127.5</ele>
        <time>2016-02-07T10:46:51Z</time>
      </trkpt>
      <trkpt lat="49.00594" lon="1.13325">
        <ele>127.5</ele>
        <time>2016-02-07T10:46:54Z</time>
      </trkpt>
      <trkpt lat="49.00596" lon="1.13343">
        <ele>127.4</ele>
        <time>2016-02-07T10:46:57Z</time>
      </trkpt>
      <trkpt lat="49.00598" lon="1.13359">
        <ele>127.4</ele>
        <time>2016-02-07T10:47:00Z</time>
      </trkpt>
      <trkpt lat="49.00601" lon="1.13374">
        <ele>127.4</ele>
        <time>2016-02-07T10:47:03Z</time>
      </trkpt>
      <trkpt lat="49.00601" lon="1.13389">
        <ele>127.4</ele>
        <time>2016-02-07T10:47:05Z</time>
      </trkpt>
      <trkpt lat="49.00602" lon="1.13409">
        <ele>127.2</ele>
        <time>2016-02-07T10:47:08Z</time>
      </trkpt>
      <trkpt lat="49.00602" lon="1.13428">
        <ele>127.2</ele>
        <time>2016-02-07T10:47:11Z</time>
      </trkpt>
      <trkpt lat="49.006" lon="1.13446">
        <ele>127.1</ele>
        <time>2016-02-07T10:47:14Z</time>
      </trkpt>
      <trkpt lat="49.006" lon="1.13463">
        <ele>127</ele>
        <time>2016-02-07T10:47:17Z</time>
      </trkpt>
      <trkpt lat="49.006" lon="1.13478">
        <ele>126.9</ele>
        <time>2016-02-07T10:47:19Z</time>
      </trkpt>
      <trkpt lat="49.00602" lon="1.13497">
        <ele>126.6</ele>
        <time>2016-02-07T10:47:22Z</time>
      </trkpt>
      <trkpt lat="49.00603" lon="1.13512">
        <ele>126.4</ele>
        <time>2016-02-07T10:47:24Z</time>
      </trkpt>
      <trkpt lat="49.00602" lon="1.13525">
        <ele>126.2</ele>
        <time>2016-02-07T10:47:26Z</time>
      </trkpt>
      <trkpt lat="49.00603" lon="1.13544">
        <ele>125.9</ele>
        <time>2016-02-07T10:47:29Z</time>
      </trkpt>
      <trkpt lat="49.00603" lon="1.13562">
        <ele>125.7</ele>
        <time>2016-02-07T10:47:32Z</time>
      </trkpt>
      <trkpt lat="49.00614" lon="1.13565">
        <ele>125.2</ele>
        <time>2016-02-07T10:47:38Z</time>
      </trkpt>
      <trkpt lat="49.00625" lon="1.13563">
        <ele>125</ele>
        <time>2016-02-07T10:47:42Z</time>
      </trkpt>
      <trkpt lat="49.00637" lon="1.13561">
        <ele>125</ele>
        <time>2016-02-07T10:47:46Z</time>
      </trkpt>
      <trkpt lat="49.00647" lon="1.13557">
        <ele>125.1</ele>
        <time>2016-02-07T10:47:49Z</time>
      </trkpt>
      <trkpt lat="49.00657" lon="1.13553">
        <ele>125.3</ele>
        <time>2016-02-07T10:47:52Z</time>
      </trkpt>
      <trkpt lat="49.00668" lon="1.13547">
        <ele>125.4</ele>
        <time>2016-02-07T10:47:55Z</time>
      </trkpt>
      <trkpt lat="49.00679" lon="1.13544">
        <ele>125.6</ele>
        <time>2016-02-07T10:47:58Z</time>
      </trkpt>
      <trkpt lat="49.0069" lon="1.1354">
        <ele>125.8</ele>
        <time>2016-02-07T10:48:01Z</time>
      </trkpt>
      <trkpt lat="49.007" lon="1.13535">
        <ele>126.1</ele>
        <time>2016-02-07T10:48:04Z</time>
      </trkpt>
      <trkpt lat="49.00712" lon="1.1353">
        <ele>126.4</ele>
        <time>2016-02-07T10:48:07Z</time>
      </trkpt>
      <trkpt lat="49.00722" lon="1.13524">
        <ele>126.7</ele>
        <time>2016-02-07T10:48:10Z</time>
      </trkpt>
      <trkpt lat="49.00725" lon="1.13508">
        <ele>127.4</ele>
        <time>2016-02-07T10:48:15Z</time>
      </trkpt>
      <trkpt lat="49.0072" lon="1.13491">
        <ele>127.9</ele>
        <time>2016-02-07T10:48:19Z</time>
      </trkpt>
      <trkpt lat="49.00718" lon="1.13476">
        <ele>128.2</ele>
        <time>2016-02-07T10:48:22Z</time>
      </trkpt>
      <trkpt lat="49.00715" lon="1.13462">
        <ele>128.5</ele>
        <time>2016-02-07T10:48:25Z</time>
      </trkpt>
      <trkpt lat="49.00711" lon="1.13448">
        <ele>128.7</ele>
        <time>2016-02-07T10:48:28Z</time>
      </trkpt>
      <trkpt lat="49.00708" lon="1.13432">
        <ele>128.9</ele>
        <time>2016-02-07T10:48:31Z</time>
      </trkpt>
      <trkpt lat="49.00706" lon="1.13417">
        <ele>129.1</ele>
        <time>2016-02-07T10:48:34Z</time>
      </trkpt>
      <trkpt lat="49.00702" lon="1.13402">
        <ele>129.3</ele>
        <time>2016-02-07T10:48:37Z</time>
      </trkpt>
      <trkpt lat="49.00698" lon="1.13387">
        <ele>129.5</ele>
        <time>2016-02-07T10:48:40Z</time>
      </trkpt>
      <trkpt lat="49.00694" lon="1.13371">
        <ele>129.6</ele>
        <time>2016-02-07T10:48:43Z</time>
      </trkpt>
      <trkpt lat="49.0069" lon="1.13356">
        <ele>129.9</ele>
        <time>2016-02-07T10:48:46Z</time>
      </trkpt>
      <trkpt lat="49.00687" lon="1.13341">
        <ele>130.1</ele>
        <time>2016-02-07T10:48:49Z</time>
      </trkpt>
      <trkpt lat="49.00682" lon="1.13326">
        <ele>130.2</ele>
        <time>2016-02-07T10:48:52Z</time>
      </trkpt>
      <trkpt lat="49.00679" lon="1.1331">
        <ele>130.4</ele>
        <time>2016-02-07T10:48:55Z</time>
      </trkpt>
      <trkpt lat="49.00675" lon="1.13291">
        <ele>130.5</ele>
        <time>2016-02-07T10:48:58Z</time>
      </trkpt>
      <trkpt lat="49.00671" lon="1.13273">
        <ele>130.7</ele>
        <time>2016-02-07T10:49:01Z</time>
      </trkpt>
      <trkpt lat="49.00666" lon="1.13256">
        <ele>130.8</ele>
        <time>2016-02-07T10:49:04Z</time>
      </trkpt>
      <trkpt lat="49.00661" lon="1.13239">
        <ele>130.9</ele>
        <time>2016-02-07T10:49:07Z</time>
      </trkpt>
      <trkpt lat="49.00658" lon="1.13221">
        <ele>131.2</ele>
        <time>2016-02-07T10:49:10Z</time>
      </trkpt>
      <trkpt lat="49.00654" lon="1.13201">
        <ele>131.3</ele>
        <time>2016-02-07T10:49:13Z</time>
      </trkpt>
      <trkpt lat="49.00648" lon="1.13183">
        <ele>131.4</ele>
        <time>2016-02-07T10:49:16Z</time>
      </trkpt>
      <trkpt lat="49.00644" lon="1.13167">
        <ele>131.5</ele>
        <time>2016-02-07T10:49:19Z</time>
      </trkpt>
      <trkpt lat="49.0064" lon="1.13148">
        <ele>131.4</ele>
        <time>2016-02-07T10:49:22Z</time>
      </trkpt>
      <trkpt lat="49.00635" lon="1.13134">
        <ele>131.4</ele>
        <time>2016-02-07T10:49:24Z</time>
      </trkpt>
      <trkpt lat="49.00632" lon="1.13117">
        <ele>131.4</ele>
        <time>2016-02-07T10:49:27Z</time>
      </trkpt>
      <trkpt lat="49.00629" lon="1.13102">
        <ele>131.4</ele>
        <time>2016-02-07T10:49:29Z</time>
      </trkpt>
      <trkpt lat="49.00626" lon="1.13088">
        <ele>131.4</ele>
        <time>2016-02-07T10:49:31Z</time>
      </trkpt>
      <trkpt lat="49.00622" lon="1.13075">
        <ele>131.4</ele>
        <time>2016-02-07T10:49:33Z</time>
      </trkpt>
      <trkpt lat="49.00618" lon="1.13063">
        <ele>131.4</ele>
        <time>2016-02-07T10:49:35Z</time>
      </trkpt>
      <trkpt lat="49.00613" lon="1.13047">
        <ele>131.4</ele>
        <time>2016-02-07T10:49:37Z</time>
      </trkpt>
      <trkpt lat="49.00609" lon="1.13034">
        <ele>131.3</ele>
        <time>2016-02-07T10:49:39Z</time>
      </trkpt>
      <trkpt lat="49.00606" lon="1.13021">
        <ele>131.2</ele>
        <time>2016-02-07T10:49:41Z</time>
      </trkpt>
      <trkpt lat="49.00603" lon="1.13006">
        <ele>131.2</ele>
        <time>2016-02-07T10:49:43Z</time>
      </trkpt>
      <trkpt lat="49.00599" lon="1.12993">
        <ele>131.1</ele>
        <time>2016-02-07T10:49:45Z</time>
      </trkpt>
      <trkpt lat="49.00595" lon="1.12974">
        <ele>131.1</ele>
        <time>2016-02-07T10:49:48Z</time>
      </trkpt>
      <trkpt lat="49.00592" lon="1.12961">
        <ele>131</ele>
        <time>2016-02-07T10:49:50Z</time>
      </trkpt>
      <trkpt lat="49.00588" lon="1.12947">
        <ele>131</ele>
        <time>2016-02-07T10:49:52Z</time>
      </trkpt>
      <trkpt lat="49.00584" lon="1.12929">
        <ele>131</ele>
        <time>2016-02-07T10:49:55Z</time>
      </trkpt>
      <trkpt lat="49.00579" lon="1.12911">
        <ele>131</ele>
        <time>2016-02-07T10:49:58Z</time>
      </trkpt>
      <trkpt lat="49.00578" lon="1.12892">
        <ele>131</ele>
        <time>2016-02-07T10:50:01Z</time>
      </trkpt>
      <trkpt lat="49.00577" lon="1.12877">
        <ele>130.9</ele>
        <time>2016-02-07T10:50:04Z</time>
      </trkpt>
      <trkpt lat="49.00574" lon="1.12858">
        <ele>130.9</ele>
        <time>2016-02-07T10:50:07Z</time>
      </trkpt>
      <trkpt lat="49.0057" lon="1.12844">
        <ele>130.8</ele>
        <time>2016-02-07T10:50:10Z</time>
      </trkpt>
      <trkpt lat="49.00559" lon="1.12841">
        <ele>130.8</ele>
        <time>2016-02-07T10:50:14Z</time>
      </trkpt>
      <trkpt lat="49.00548" lon="1.1284">
        <ele>130.7</ele>
        <time>2016-02-07T10:50:17Z</time>
      </trkpt>
      <trkpt lat="49.00537" lon="1.12842">
        <ele>130.7</ele>
        <time>2016-02-07T10:50:20Z</time>
      </trkpt>
      <trkpt lat="49.00525" lon="1.12845">
        <ele>130.6</ele>
        <time>2016-02-07T10:50:23Z</time>
      </trkpt>
      <trkpt lat="49.00515" lon="1.12845">
        <ele>130.6</ele>
        <time>2016-02-07T10:50:26Z</time>
      </trkpt>
      <trkpt lat="49.0051" lon="1.12832">
        <ele>130.6</ele>
        <time>2016-02-07T10:50:30Z</time>
      </trkpt>
      <trkpt lat="49.00506" lon="1.12816">
        <ele>130.6</ele>
        <time>2016-02-07T10:50:35Z</time>
      </trkpt>
      <trkpt lat="49.00511" lon="1.12802">
        <ele>130.6</ele>
        <time>2016-02-07T10:50:41Z</time>
      </trkpt>
      <trkpt lat="49.00516" lon="1.12787">
        <ele>130.6</ele>
        <time>2016-02-07T10:50:46Z</time>
      </trkpt>
      <trkpt lat="49.00519" lon="1.12772">
        <ele>130.6</ele>
        <time>2016-02-07T10:50:50Z</time>
      </trkpt>
      <trkpt lat="49.00526" lon="1.12759">
        <ele>130.6</ele>
        <time>2016-02-07T10:50:54Z</time>
      </trkpt>
      <trkpt lat="49.00533" lon="1.12746">
        <ele>130.7</ele>
        <time>2016-02-07T10:50:58Z</time>
      </trkpt>
      <trkpt lat="49.00539" lon="1.12733">
        <ele>130.8</ele>
        <time>2016-02-07T10:51:01Z</time>
      </trkpt>
      <trkpt lat="49.00547" lon="1.12723">
        <ele>130.9</ele>
        <time>2016-02-07T10:51:04Z</time>
      </trkpt>
      <trkpt lat="49.00554" lon="1.12708">
        <ele>131</ele>
        <time>2016-02-07T10:51:07Z</time>
      </trkpt>
      <trkpt lat="49.0056" lon="1.12694">
        <ele>131.1</ele>
        <time>2016-02-07T10:51:10Z</time>
      </trkpt>
      <trkpt lat="49.00566" lon="1.1268">
        <ele>131.2</ele>
        <time>2016-02-07T10:51:13Z</time>
      </trkpt>
      <trkpt lat="49.00572" lon="1.12667">
        <ele>131.2</ele>
        <time>2016-02-07T10:51:16Z</time>
      </trkpt>
      <trkpt lat="49.00579" lon="1.12657">
        <ele>131.3</ele>
        <time>2016-02-07T10:51:19Z</time>
      </trkpt>
      <trkpt lat="49.00586" lon="1.12644">
        <ele>131.4</ele>
        <time>2016-02-07T10:51:22Z</time>
      </trkpt>
      <trkpt lat="49.00592" lon="1.1263">
        <ele>131.4</ele>
        <time>2016-02-07T10:51:25Z</time>
      </trkpt>
      <trkpt lat="49.00596" lon="1.12612">
        <ele>131.6</ele>
        <time>2016-02-07T10:51:29Z</time>
      </trkpt>
      <trkpt lat="49.00597" lon="1.12598">
        <ele>131.8</ele>
        <time>2016-02-07T10:51:32Z</time>
      </trkpt>
      <trkpt lat="49.00599" lon="1.12582">
        <ele>132</ele>
        <time>2016-02-07T10:51:35Z</time>
      </trkpt>
      <trkpt lat="49.00601" lon="1.12566">
        <ele>132.2</ele>
        <time>2016-02-07T10:51:38Z</time>
      </trkpt>
      <trkpt lat="49.00599" lon="1.12551">
        <ele>132.3</ele>
        <time>2016-02-07T10:51:41Z</time>
      </trkpt>
      <trkpt lat="49.00607" lon="1.12545">
        <ele>132.6</ele>
        <time>2016-02-07T10:51:54Z</time>
      </trkpt>
      <trkpt lat="49.00614" lon="1.12533">
        <ele>132.7</ele>
        <time>2016-02-07T10:51:59Z</time>
      </trkpt>
      <trkpt lat="49.00622" lon="1.1252">
        <ele>132.7</ele>
        <time>2016-02-07T10:52:03Z</time>
      </trkpt>
      <trkpt lat="49.00631" lon="1.12515">
        <ele>132.8</ele>
        <time>2016-02-07T10:52:08Z</time>
      </trkpt>
      <trkpt lat="49.00638" lon="1.12531">
        <ele>132.8</ele>
        <time>2016-02-07T10:52:13Z</time>
      </trkpt>
      <trkpt lat="49.00642" lon="1.12545">
        <ele>132.9</ele>
        <time>2016-02-07T10:52:17Z</time>
      </trkpt>
      <trkpt lat="49.00646" lon="1.12558">
        <ele>133</ele>
        <time>2016-02-07T10:52:20Z</time>
      </trkpt>
      <trkpt lat="49.00651" lon="1.12574">
        <ele>133.2</ele>
        <time>2016-02-07T10:52:23Z</time>
      </trkpt>
      <trkpt lat="49.00656" lon="1.1259">
        <ele>133.4</ele>
        <time>2016-02-07T10:52:27Z</time>
      </trkpt>
      <trkpt lat="49.00658" lon="1.12605">
        <ele>133.7</ele>
        <time>2016-02-07T10:52:30Z</time>
      </trkpt>
      <trkpt lat="49.00662" lon="1.12619">
        <ele>134</ele>
        <time>2016-02-07T10:52:33Z</time>
      </trkpt>
      <trkpt lat="49.00667" lon="1.12636">
        <ele>134.2</ele>
        <time>2016-02-07T10:52:36Z</time>
      </trkpt>
      <trkpt lat="49.00672" lon="1.12652">
        <ele>134.4</ele>
        <time>2016-02-07T10:52:39Z</time>
      </trkpt>
      <trkpt lat="49.00677" lon="1.12666">
        <ele>134.5</ele>
        <time>2016-02-07T10:52:42Z</time>
      </trkpt>
      <trkpt lat="49.00683" lon="1.12681">
        <ele>134.6</ele>
        <time>2016-02-07T10:52:45Z</time>
      </trkpt>
      <trkpt lat="49.00689" lon="1.12695">
        <ele>134.7</ele>
        <time>2016-02-07T10:52:48Z</time>
      </trkpt>
      <trkpt lat="49.00695" lon="1.12707">
        <ele>134.8</ele>
        <time>2016-02-07T10:52:51Z</time>
      </trkpt>
      <trkpt lat="49.00707" lon="1.12705">
        <ele>134.8</ele>
        <time>2016-02-07T10:52:55Z</time>
      </trkpt>
      <trkpt lat="49.00717" lon="1.12701">
        <ele>134.9</ele>
        <time>2016-02-07T10:52:58Z</time>
      </trkpt>
      <trkpt lat="49.00727" lon="1.12696">
        <ele>134.9</ele>
        <time>2016-02-07T10:53:01Z</time>
      </trkpt>
      <trkpt lat="49.00738" lon="1.12692">
        <ele>134.9</ele>
        <time>2016-02-07T10:53:04Z</time>
      </trkpt>
      <trkpt lat="49.00749" lon="1.12686">
        <ele>135</ele>
        <time>2016-02-07T10:53:07Z</time>
      </trkpt>
      <trkpt lat="49.00761" lon="1.1268">
        <ele>135</ele>
        <time>2016-02-07T10:53:10Z</time>
      </trkpt>
      <trkpt lat="49.0077" lon="1.12676">
        <ele>135</ele>
        <time>2016-02-07T10:53:12Z</time>
      </trkpt>
      <trkpt lat="49.00781" lon="1.1267">
        <ele>135.1</ele>
        <time>2016-02-07T10:53:15Z</time>
      </trkpt>
      <trkpt lat="49.0079" lon="1.12664">
        <ele>135.2</ele>
        <time>2016-02-07T10:53:18Z</time>
      </trkpt>
      <trkpt lat="49.00799" lon="1.12658">
        <ele>135.4</ele>
        <time>2016-02-07T10:53:21Z</time>
      </trkpt>
      <trkpt lat="49.00811" lon="1.12653">
        <ele>135.5</ele>
        <time>2016-02-07T10:53:24Z</time>
      </trkpt>
      <trkpt lat="49.00822" lon="1.12646">
        <ele>135.6</ele>
        <time>2016-02-07T10:53:27Z</time>
      </trkpt>
      <trkpt lat="49.00831" lon="1.12649">
        <ele>135.8</ele>
        <time>2016-02-07T10:53:33Z</time>
      </trkpt>
      <trkpt lat="49.0084" lon="1.12652">
        <ele>136.1</ele>
        <time>2016-02-07T10:53:52Z</time>
      </trkpt>
      <trkpt lat="49.00848" lon="1.12656">
        <ele>136.4</ele>
        <time>2016-02-07T10:54:46Z</time>
      </trkpt>
      <trkpt lat="49.00852" lon="1.12669">
        <ele>136.4</ele>
        <time>2016-02-07T10:54:58Z</time>
      </trkpt>
      <trkpt lat="49.00854" lon="1.12682">
        <ele>136.4</ele>
        <time>2016-02-07T10:55:01Z</time>
      </trkpt>
      <trkpt lat="49.00859" lon="1.12697">
        <ele>136.3</ele>
        <time>2016-02-07T10:55:04Z</time>
      </trkpt>
      <trkpt lat="49.00864" lon="1.12712">
        <ele>136.3</ele>
        <time>2016-02-07T10:55:07Z</time>
      </trkpt>
      <trkpt lat="49.00869" lon="1.12727">
        <ele>135.9</ele>
        <time>2016-02-07T10:55:10Z</time>
      </trkpt>
      <trkpt lat="49.00873" lon="1.1274">
        <ele>135.7</ele>
        <time>2016-02-07T10:55:12Z</time>
      </trkpt>
      <trkpt lat="49.00876" lon="1.12753">
        <ele>135.6</ele>
        <time>2016-02-07T10:55:14Z</time>
      </trkpt>
      <trkpt lat="49.0088" lon="1.12771">
        <ele>135.3</ele>
        <time>2016-02-07T10:55:17Z</time>
      </trkpt>
      <trkpt lat="49.00884" lon="1.12785">
        <ele>135.2</ele>
        <time>2016-02-07T10:55:20Z</time>
      </trkpt>
      <trkpt lat="49.0089" lon="1.12796">
        <ele>134.9</ele>
        <time>2016-02-07T10:55:24Z</time>
      </trkpt>
      <trkpt lat="49.00899" lon="1.12804">
        <ele>134.6</ele>
        <time>2016-02-07T10:55:30Z</time>
      </trkpt>
      <trkpt lat="49.00909" lon="1.12805">
        <ele>134.4</ele>
        <time>2016-02-07T10:55:34Z</time>
      </trkpt>
      <trkpt lat="49.00921" lon="1.12806">
        <ele>134.1</ele>
        <time>2016-02-07T10:55:38Z</time>
      </trkpt>
      <trkpt lat="49.00932" lon="1.12806">
        <ele>133.8</ele>
        <time>2016-02-07T10:55:41Z</time>
      </trkpt>
      <trkpt lat="49.00943" lon="1.12808">
        <ele>133.6</ele>
        <time>2016-02-07T10:55:45Z</time>
      </trkpt>
      <trkpt lat="49.00955" lon="1.12809">
        <ele>133.4</ele>
        <time>2016-02-07T10:55:49Z</time>
      </trkpt>
      <trkpt lat="49.0096" lon="1.12822">
        <ele>133.2</ele>
        <time>2016-02-07T10:55:54Z</time>
      </trkpt>
      <trkpt lat="49.00957" lon="1.1284">
        <ele>133.1</ele>
        <time>2016-02-07T10:55:58Z</time>
      </trkpt>
      <trkpt lat="49.00956" lon="1.12854">
        <ele>133</ele>
        <time>2016-02-07T10:56:01Z</time>
      </trkpt>
      <trkpt lat="49.00952" lon="1.12867">
        <ele>132.9</ele>
        <time>2016-02-07T10:56:04Z</time>
      </trkpt>
      <trkpt lat="49.00948" lon="1.12884">
        <ele>132.8</ele>
        <time>2016-02-07T10:56:07Z</time>
      </trkpt>
      <trkpt lat="49.00946" lon="1.12898">
        <ele>132.7</ele>
        <time>2016-02-07T10:56:09Z</time>
      </trkpt>
      <trkpt lat="49.00947" lon="1.12913">
        <ele>132.6</ele>
        <time>2016-02-07T10:56:11Z</time>
      </trkpt>
      <trkpt lat="49.00948" lon="1.12927">
        <ele>132.5</ele>
        <time>2016-02-07T10:56:14Z</time>
      </trkpt>
      <trkpt lat="49.00947" lon="1.12944">
        <ele>132.4</ele>
        <time>2016-02-07T10:56:17Z</time>
      </trkpt>
      <trkpt lat="49.00951" lon="1.12957">
        <ele>132.4</ele>
        <time>2016-02-07T10:56:20Z</time>
      </trkpt>
      <trkpt lat="49.00961" lon="1.12959">
        <ele>132.3</ele>
        <time>2016-02-07T10:56:25Z</time>
      </trkpt>
      <trkpt lat="49.00971" lon="1.12957">
        <ele>132.1</ele>
        <time>2016-02-07T10:56:28Z</time>
      </trkpt>
      <trkpt lat="49.00975" lon="1.12944">
        <ele>131.9</ele>
        <time>2016-02-07T10:56:33Z</time>
      </trkpt>
      <trkpt lat="49.00984" lon="1.12938">
        <ele>131.6</ele>
        <time>2016-02-07T10:56:38Z</time>
      </trkpt>
      <trkpt lat="49.00992" lon="1.12947">
        <ele>131.3</ele>
        <time>2016-02-07T10:56:43Z</time>
      </trkpt>
      <trkpt lat="49.00999" lon="1.12957">
        <ele>130.9</ele>
        <time>2016-02-07T10:56:47Z</time>
      </trkpt>
      <trkpt lat="49.01005" lon="1.12969">
        <ele>130.6</ele>
        <time>2016-02-07T10:56:51Z</time>
      </trkpt>
      <trkpt lat="49.01012" lon="1.12979">
        <ele>130.4</ele>
        <time>2016-02-07T10:56:55Z</time>
      </trkpt>
      <trkpt lat="49.01019" lon="1.12991">
        <ele>130.1</ele>
        <time>2016-02-07T10:57:00Z</time>
      </trkpt>
      <trkpt lat="49.01027" lon="1.12997">
        <ele>129.9</ele>
        <time>2016-02-07T10:57:05Z</time>
      </trkpt>
      <trkpt lat="49.01037" lon="1.13005">
        <ele>129.7</ele>
        <time>2016-02-07T10:57:09Z</time>
      </trkpt>
      <trkpt lat="49.01045" lon="1.13016">
        <ele>129.5</ele>
        <time>2016-02-07T10:57:13Z</time>
      </trkpt>
      <trkpt lat="49.01054" lon="1.13022">
        <ele>129.3</ele>
        <time>2016-02-07T10:57:18Z</time>
      </trkpt>
      <trkpt lat="49.01059" lon="1.13033">
        <ele>129.1</ele>
        <time>2016-02-07T10:57:23Z</time>
      </trkpt>
      <trkpt lat="49.01065" lon="1.13045">
        <ele>128.8</ele>
        <time>2016-02-07T10:57:28Z</time>
      </trkpt>
      <trkpt lat="49.01067" lon="1.13058">
        <ele>128.6</ele>
        <time>2016-02-07T10:57:35Z</time>
      </trkpt>
      <trkpt lat="49.01077" lon="1.13063">
        <ele>128.2</ele>
        <time>2016-02-07T10:57:45Z</time>
      </trkpt>
      <trkpt lat="49.01088" lon="1.13064">
        <ele>127.7</ele>
        <time>2016-02-07T10:57:53Z</time>
      </trkpt>
      <trkpt lat="49.01098" lon="1.13069">
        <ele>127.3</ele>
        <time>2016-02-07T10:57:59Z</time>
      </trkpt>
      <trkpt lat="49.01108" lon="1.13081">
        <ele>127</ele>
        <time>2016-02-07T10:58:03Z</time>
      </trkpt>
      <trkpt lat="49.01116" lon="1.13091">
        <ele>126.8</ele>
        <time>2016-02-07T10:58:06Z</time>
      </trkpt>
      <trkpt lat="49.01124" lon="1.13099">
        <ele>126.6</ele>
        <time>2016-02-07T10:58:09Z</time>
      </trkpt>
      <trkpt lat="49.01135" lon="1.13099">
        <ele>126.3</ele>
        <time>2016-02-07T10:58:15Z</time>
      </trkpt>
      <trkpt lat="49.01144" lon="1.13091">
        <ele>126.1</ele>
        <time>2016-02-07T10:58:19Z</time>
      </trkpt>
      <trkpt lat="49.01154" lon="1.13082">
        <ele>125.9</ele>
        <time>2016-02-07T10:58:23Z</time>
      </trkpt>
      <trkpt lat="49.01161" lon="1.13069">
        <ele>125.8</ele>
        <time>2016-02-07T10:58:27Z</time>
      </trkpt>
      <trkpt lat="49.01169" lon="1.13057">
        <ele>125.7</ele>
        <time>2016-02-07T10:58:31Z</time>
      </trkpt>
      <trkpt lat="49.01176" lon="1.13048">
        <ele>125.6</ele>
        <time>2016-02-07T10:58:34Z</time>
      </trkpt>
      <trkpt lat="49.01185" lon="1.13038">
        <ele>125.6</ele>
        <time>2016-02-07T10:58:38Z</time>
      </trkpt>
      <trkpt lat="49.01195" lon="1.13047">
        <ele>125.5</ele>
        <time>2016-02-07T10:58:44Z</time>
      </trkpt>
      <trkpt lat="49.01203" lon="1.13061">
        <ele>125.4</ele>
        <time>2016-02-07T10:58:48Z</time>
      </trkpt>
      <trkpt lat="49.01211" lon="1.13073">
        <ele>125.2</ele>
        <time>2016-02-07T10:58:51Z</time>
      </trkpt>
      <trkpt lat="49.0122" lon="1.13084">
        <ele>125</ele>
        <time>2016-02-07T10:58:54Z</time>
      </trkpt>
      <trkpt lat="49.01229" lon="1.13093">
        <ele>124.8</ele>
        <time>2016-02-07T10:58:57Z</time>
      </trkpt>
      <trkpt lat="49.01238" lon="1.13101">
        <ele>124.7</ele>
        <time>2016-02-07T10:59:00Z</time>
      </trkpt>
      <trkpt lat="49.01243" lon="1.13116">
        <ele>124.6</ele>
        <time>2016-02-07T10:59:03Z</time>
      </trkpt>
      <trkpt lat="49.0125" lon="1.13133">
        <ele>124.6</ele>
        <time>2016-02-07T10:59:06Z</time>
      </trkpt>
      <trkpt lat="49.01256" lon="1.1315">
        <ele>124.5</ele>
        <time>2016-02-07T10:59:09Z</time>
      </trkpt>
      <trkpt lat="49.01261" lon="1.13167">
        <ele>124.5</ele>
        <time>2016-02-07T10:59:12Z</time>
      </trkpt>
      <trkpt lat="49.01267" lon="1.1318">
        <ele>124.4</ele>
        <time>2016-02-07T10:59:14Z</time>
      </trkpt>
      <trkpt lat="49.01272" lon="1.13191">
        <ele>124.4</ele>
        <time>2016-02-07T10:59:16Z</time>
      </trkpt>
      <trkpt lat="49.01279" lon="1.13202">
        <ele>124.5</ele>
        <time>2016-02-07T10:59:19Z</time>
      </trkpt>
      <trkpt lat="49.01289" lon="1.13202">
        <ele>124.5</ele>
        <time>2016-02-07T10:59:23Z</time>
      </trkpt>
      <trkpt lat="49.013" lon="1.13197">
        <ele>124.6</ele>
        <time>2016-02-07T10:59:27Z</time>
      </trkpt>
      <trkpt lat="49.01309" lon="1.132">
        <ele>124.7</ele>
        <time>2016-02-07T10:59:31Z</time>
      </trkpt>
      <trkpt lat="49.01313" lon="1.13213">
        <ele>124.8</ele>
        <time>2016-02-07T10:59:34Z</time>
      </trkpt>
      <trkpt lat="49.0132" lon="1.13228">
        <ele>124.9</ele>
        <time>2016-02-07T10:59:37Z</time>
      </trkpt>
      <trkpt lat="49.01326" lon="1.1324">
        <ele>125</ele>
        <time>2016-02-07T10:59:39Z</time>
      </trkpt>
      <trkpt lat="49.01334" lon="1.13253">
        <ele>125.2</ele>
        <time>2016-02-07T10:59:42Z</time>
      </trkpt>
      <trkpt lat="49.01344" lon="1.13265">
        <ele>125.3</ele>
        <time>2016-02-07T10:59:45Z</time>
      </trkpt>
      <trkpt lat="49.01352" lon="1.13277">
        <ele>125.4</ele>
        <time>2016-02-07T10:59:48Z</time>
      </trkpt>
      <trkpt lat="49.01359" lon="1.1329">
        <ele>125.5</ele>
        <time>2016-02-07T10:59:51Z</time>
      </trkpt>
      <trkpt lat="49.01368" lon="1.13303">
        <ele>125.6</ele>
        <time>2016-02-07T10:59:54Z</time>
      </trkpt>
      <trkpt lat="49.01376" lon="1.13314">
        <ele>125.6</ele>
        <time>2016-02-07T10:59:57Z</time>
      </trkpt>
      <trkpt lat="49.01383" lon="1.13329">
        <ele>125.7</ele>
        <time>2016-02-07T11:00:00Z</time>
      </trkpt>
      <trkpt lat="49.01387" lon="1.13342">
        <ele>125.6</ele>
        <time>2016-02-07T11:00:02Z</time>
      </trkpt>
      <trkpt lat="49.01396" lon="1.13354">
        <ele>125.4</ele>
        <time>2016-02-07T11:00:05Z</time>
      </trkpt>
      <trkpt lat="49.01403" lon="1.13368">
        <ele>125.2</ele>
        <time>2016-02-07T11:00:07Z</time>
      </trkpt>
      <trkpt lat="49.01409" lon="1.13379">
        <ele>124.9</ele>
        <time>2016-02-07T11:00:09Z</time>
      </trkpt>
      <trkpt lat="49.01419" lon="1.13394">
        <ele>124.6</ele>
        <time>2016-02-07T11:00:12Z</time>
      </trkpt>
      <trkpt lat="49.01429" lon="1.13409">
        <ele>124.3</ele>
        <time>2016-02-07T11:00:15Z</time>
      </trkpt>
      <trkpt lat="49.01439" lon="1.13423">
        <ele>124.1</ele>
        <time>2016-02-07T11:00:17Z</time>
      </trkpt>
      <trkpt lat="49.01445" lon="1.13436">
        <ele>123.8</ele>
        <time>2016-02-07T11:00:19Z</time>
      </trkpt>
      <trkpt lat="49.01454" lon="1.13451">
        <ele>123.3</ele>
        <time>2016-02-07T11:00:21Z</time>
      </trkpt>
      <trkpt lat="49.01465" lon="1.13465">
        <ele>122.8</ele>
        <time>2016-02-07T11:00:23Z</time>
      </trkpt>
      <trkpt lat="49.01474" lon="1.13484">
        <ele>122.3</ele>
        <time>2016-02-07T11:00:25Z</time>
      </trkpt>
      <trkpt lat="49.01485" lon="1.13499">
        <ele>121.7</ele>
        <time>2016-02-07T11:00:27Z</time>
      </trkpt>
      <trkpt lat="49.01493" lon="1.13517">
        <ele>121.1</ele>
        <time>2016-02-07T11:00:29Z</time>
      </trkpt>
      <trkpt lat="49.01504" lon="1.13535">
        <ele>120.4</ele>
        <time>2016-02-07T11:00:31Z</time>
      </trkpt>
      <trkpt lat="49.01511" lon="1.13549">
        <ele>119.7</ele>
        <time>2016-02-07T11:00:33Z</time>
      </trkpt>
      <trkpt lat="49.01516" lon="1.13563">
        <ele>118.9</ele>
        <time>2016-02-07T11:00:35Z</time>
      </trkpt>
      <trkpt lat="49.01523" lon="1.13576">
        <ele>117.6</ele>
        <time>2016-02-07T11:00:38Z</time>
      </trkpt>
      <trkpt lat="49.01527" lon="1.1359">
        <ele>115.8</ele>
        <time>2016-02-07T11:00:42Z</time>
      </trkpt>
      <trkpt lat="49.01526" lon="1.13607">
        <ele>113.8</ele>
        <time>2016-02-07T11:00:46Z</time>
      </trkpt>
      <trkpt lat="49.01522" lon="1.13623">
        <ele>112.4</ele>
        <time>2016-02-07T11:00:49Z</time>
      </trkpt>
      <trkpt lat="49.01531" lon="1.13635">
        <ele>110.5</ele>
        <time>2016-02-07T11:00:54Z</time>
      </trkpt>
      <trkpt lat="49.01539" lon="1.13642">
        <ele>105.8</ele>
        <time>2016-02-07T11:01:10Z</time>
      </trkpt>
      <trkpt lat="49.01547" lon="1.13651">
        <ele>104.7</ele>
        <time>2016-02-07T11:01:16Z</time>
      </trkpt>
      <trkpt lat="49.01554" lon="1.13662">
        <ele>103.4</ele>
        <time>2016-02-07T11:01:21Z</time>
      </trkpt>
      <trkpt lat="49.01558" lon="1.13677">
        <ele>101.9</ele>
        <time>2016-02-07T11:01:25Z</time>
      </trkpt>
      <trkpt lat="49.01568" lon="1.13681">
        <ele>96.9</ele>
        <time>2016-02-07T11:01:42Z</time>
      </trkpt>
      <trkpt lat="49.01578" lon="1.13684">
        <ele>94.5</ele>
        <time>2016-02-07T11:02:15Z</time>
      </trkpt>
      <trkpt lat="49.01587" lon="1.13689">
        <ele>94.4</ele>
        <time>2016-02-07T11:02:17Z</time>
      </trkpt>
      <trkpt lat="49.01597" lon="1.13693">
        <ele>94.2</ele>
        <time>2016-02-07T11:02:19Z</time>
      </trkpt>
      <trkpt lat="49.01608" lon="1.13691">
        <ele>93.8</ele>
        <time>2016-02-07T11:02:21Z</time>
      </trkpt>
      <trkpt lat="49.0162" lon="1.13688">
        <ele>93.4</ele>
        <time>2016-02-07T11:02:23Z</time>
      </trkpt>
      <trkpt lat="49.01632" lon="1.13687">
        <ele>92.6</ele>
        <time>2016-02-07T11:02:26Z</time>
      </trkpt>
      <trkpt lat="49.01643" lon="1.13681">
        <ele>92</ele>
        <time>2016-02-07T11:02:29Z</time>
      </trkpt>
      <trkpt lat="49.01647" lon="1.13664">
        <ele>91.5</ele>
        <time>2016-02-07T11:02:32Z</time>
      </trkpt>
      <trkpt lat="49.01647" lon="1.13649">
        <ele>91.2</ele>
        <time>2016-02-07T11:02:34Z</time>
      </trkpt>
      <trkpt lat="49.01646" lon="1.13634">
        <ele>91</ele>
        <time>2016-02-07T11:02:36Z</time>
      </trkpt>
      <trkpt lat="49.01645" lon="1.13617">
        <ele>90.9</ele>
        <time>2016-02-07T11:02:38Z</time>
      </trkpt>
      <trkpt lat="49.01645" lon="1.13599">
        <ele>90.8</ele>
        <time>2016-02-07T11:02:40Z</time>
      </trkpt>
      <trkpt lat="49.01645" lon="1.13581">
        <ele>90.7</ele>
        <time>2016-02-07T11:02:42Z</time>
      </trkpt>
      <trkpt lat="49.01645" lon="1.13564">
        <ele>90.6</ele>
        <time>2016-02-07T11:02:44Z</time>
      </trkpt>
      <trkpt lat="49.01644" lon="1.13546">
        <ele>90.5</ele>
        <time>2016-02-07T11:02:46Z</time>
      </trkpt>
      <trkpt lat="49.01644" lon="1.13529">
        <ele>90.4</ele>
        <time>2016-02-07T11:02:48Z</time>
      </trkpt>
      <trkpt lat="49.01642" lon="1.13513">
        <ele>90.4</ele>
        <time>2016-02-07T11:02:50Z</time>
      </trkpt>
      <trkpt lat="49.01636" lon="1.13501">
        <ele>90.4</ele>
        <time>2016-02-07T11:02:52Z</time>
      </trkpt>
      <trkpt lat="49.01632" lon="1.13497">
        <ele>90.4</ele>
        <time>2016-02-07T11:02:53Z</time>
      </trkpt>
      <trkpt lat="49.01628" lon="1.13492">
        <ele>90.4</ele>
        <time>2016-02-07T11:02:54Z</time>
      </trkpt>
    </trkseg>
  </trk>
</gpx>